| time (UTC) | temp F | wind direction | speed MPH | gust MPH | rain 1hr in | rain 24hr in | rain mn in | humidity % | barometer mb |
| 20260901032024 | 87 | 360 | 10.0 | 18.0 | 0.00 | 0.00 | 0.00 | 60 | 1016.2 |
| 20260901031923 | 87 | 360 | 12.0 | 18.0 | 0.00 | 0.00 | 0.00 | 60 | 1016.2 |
| 20260901031849 | 87 | 360 | 12.0 | 18.0 | 0.00 | 0.00 | 0.00 | 60 | 1016.1 |
| 20260901031728 | 87 | 360 | 12.0 | 18.0 | 0.00 | 0.00 | 0.00 | 59 | 1016.1 |
| 20260901031629 | 87 | 360 | 11.0 | 19.0 | 0.00 | 0.00 | 0.00 | 59 | 1016.2 |
| 20260901031548 | 87 | 360 | 11.0 | 19.0 | 0.00 | 0.00 | 0.00 | 59 | 1016.1 |
| 20260901031428 | 87 | 360 | 10.0 | 21.0 | 0.00 | 0.00 | 0.00 | 59 | 1016.1 |
| 20260901031329 | 87 | 360 | 11.0 | 21.0 | 0.00 | 0.00 | 0.00 | 59 | 1016.1 |
| 20260901031229 | 88 | 360 | 10.0 | 21.0 | 0.00 | 0.00 | 0.00 | 58 | 1016.1 |
| 20260901031134 | 88 | 360 | 11.0 | 21.0 | 0.00 | 0.00 | 0.00 | 58 | 1016.1 |
| 20260901031034 | 88 | 360 | 12.0 | 21.0 | 0.00 | 0.00 | 0.00 | 58 | 1016.1 |
| 20260901030954 | 88 | 360 | 14.0 | 21.0 | 0.00 | 0.00 | 0.00 | 58 | 1016.1 |
| 20260901030834 | 88 | 360 | 15.0 | 22.0 | 0.00 | 0.00 | 0.00 | 58 | 1016.1 |
| 20260901030754 | 88 | 360 | 15.0 | 22.0 | 0.00 | 0.00 | 0.00 | 57 | 1016.0 |
| 20260901030635 | 88 | 360 | 14.0 | 22.0 | 0.00 | 0.00 | 0.00 | 57 | 1016.0 |
| 20260901030555 | 88 | 360 | 14.0 | 22.0 | 0.00 | 0.00 | 0.00 | 57 | 1015.9 |
| 20260901030454 | 88 | 360 | 12.0 | 22.0 | 0.00 | 0.00 | 0.00 | 57 | 1016.0 |
| 20260901030333 | 88 | 360 | 13.0 | 22.0 | 0.00 | 0.00 | 0.00 | 57 | 1016.0 |
| 20260901030217 | 88 | 360 | 13.0 | 22.0 | 0.00 | 0.00 | 0.00 | 56 | 1015.9 |
| 20260901030118 | 88 | 360 | 14.0 | 22.0 | 0.00 | 0.00 | 0.00 | 56 | 1015.9 |
| 20260901030019 | 88 | 360 | 13.0 | 22.0 | 0.00 | 0.00 | 0.00 | 56 | 1015.9 |
| 20260901025920 | 88 | 360 | 11.0 | 22.0 | 0.00 | 0.00 | 0.00 | 56 | 1015.8 |
| 20260901025821 | 88 | 360 | 9.0 | 20.0 | 0.00 | 0.00 | 0.00 | 55 | 1015.9 |
| 20260901025719 | 88 | 360 | 10.0 | 21.0 | 0.00 | 0.00 | 0.00 | 54 | 1015.9 |
| 20260901025640 | 88 | 360 | 12.0 | 21.0 | 0.00 | 0.00 | 0.00 | 54 | 1015.8 |
| 20260901025524 | 88 | 360 | 13.0 | 21.0 | 0.00 | 0.00 | 0.00 | 54 | 1015.8 |
| 20260901025425 | 88 | 360 | 12.0 | 21.0 | 0.00 | 0.00 | 0.00 | 54 | 1015.8 |
| 20260901025325 | 88 | 360 | 11.0 | 21.0 | 0.00 | 0.00 | 0.00 | 54 | 1015.8 |
| 20260901025225 | 89 | 360 | 10.0 | 21.0 | 0.00 | 0.00 | 0.00 | 53 | 1015.8 |
| 20260901025126 | 89 | 360 | 11.0 | 21.0 | 0.00 | 0.00 | 0.00 | 53 | 1015.8 |
| 20260901025027 | 89 | 360 | 13.0 | 21.0 | 0.00 | 0.00 | 0.00 | 52 | 1015.7 |
| 20260901024927 | 89 | 360 | 14.0 | 21.0 | 0.00 | 0.00 | 0.00 | 52 | 1015.8 |
| 20260901024830 | 89 | 360 | 15.0 | 21.0 | 0.00 | 0.00 | 0.00 | 52 | 1015.7 |
| 20260901024732 | 89 | 360 | 14.0 | 20.0 | 0.00 | 0.00 | 0.00 | 52 | 1015.6 |
| 20260901024633 | 89 | 360 | 15.0 | 20.0 | 0.00 | 0.00 | 0.00 | 52 | 1015.7 |
| 20260901024535 | 89 | 360 | 15.0 | 20.0 | 0.00 | 0.00 | 0.00 | 51 | 1015.6 |
| 20260901024435 | 89 | 360 | 14.0 | 20.0 | 0.00 | 0.00 | 0.00 | 51 | 1015.6 |
| 20260901024316 | 89 | 360 | 11.0 | 20.0 | 0.00 | 0.00 | 0.00 | 51 | 1015.6 |
| 20260901024221 | 89 | 360 | 10.0 | 19.0 | 0.00 | 0.00 | 0.00 | 49 | 1015.7 |
| 20260901024142 | 89 | 360 | 9.0 | 15.0 | 0.00 | 0.00 | 0.00 | 48 | 1015.6 |
| 20260901024022 | 89 | 360 | 8.0 | 15.0 | 0.00 | 0.00 | 0.00 | 48 | 1015.5 |
| 20260901023921 | 89 | 360 | 7.0 | 15.0 | 0.00 | 0.00 | 0.00 | 48 | 1015.6 |
| 20260901023822 | 89 | 360 | 7.0 | 10.0 | 0.00 | 0.00 | 0.00 | 48 | 1015.6 |
| 20260901023723 | 89 | 360 | 7.0 | 10.0 | 0.00 | 0.00 | 0.00 | 48 | 1015.5 |
| 20260901023623 | 89 | 360 | 6.0 | 10.0 | 0.00 | 0.00 | 0.00 | 48 | 1015.5 |
| 20260901023527 | 89 | 360 | 6.0 | 10.0 | 0.00 | 0.00 | 0.00 | 48 | 1015.5 |
| 20260901023428 | 89 | 360 | 5.0 | 9.0 | 0.00 | 0.00 | 0.00 | 48 | 1015.4 |
| 20260901023329 | 89 | 360 | 5.0 | 9.0 | 0.00 | 0.00 | 0.00 | 48 | 1015.4 |
| 20260901023227 | 89 | 360 | 6.0 | 9.0 | 0.00 | 0.00 | 0.00 | 48 | 1015.4 |
| 20260901023147 | 89 | 360 | 6.0 | 9.0 | 0.00 | 0.00 | 0.00 | 48 | 1015.4 |
| 20260901023026 | 89 | 360 | 5.0 | 9.0 | 0.00 | 0.00 | 0.00 | 48 | 1015.3 |
| 20260901022928 | 89 | 360 | 5.0 | 9.0 | 0.00 | 0.00 | 0.00 | 49 | 1015.4 |
| 20260901022834 | 89 | 360 | 4.0 | 8.0 | 0.00 | 0.00 | 0.00 | 49 | 1015.4 |
| 20260901022733 | 89 | 360 | 4.0 | 9.0 | 0.00 | 0.00 | 0.00 | 49 | 1015.3 |
| 20260901022634 | 89 | 360 | 4.0 | 9.0 | 0.00 | 0.00 | 0.00 | 49 | 1015.3 |
| 20260901022534 | 89 | 360 | 4.0 | 9.0 | 0.00 | 0.00 | 0.00 | 49 | 1015.3 |
| 20260901022455 | 89 | 360 | 4.0 | 9.0 | 0.00 | 0.00 | 0.00 | 49 | 1015.3 |
| 20260901022335 | 89 | 360 | 4.0 | 9.0 | 0.00 | 0.00 | 0.00 | 49 | 1015.3 |
| 20260901022220 | 89 | 360 | 5.0 | 9.0 | 0.00 | 0.00 | 0.00 | 49 | 1015.2 |
| 20260901022141 | 89 | 360 | 5.0 | 9.0 | 0.00 | 0.00 | 0.00 | 49 | 1015.2 |
| 20260901022019 | 89 | 360 | 5.0 | 9.0 | 0.00 | 0.00 | 0.00 | 49 | 1015.2 |
| 20260901021940 | 89 | 360 | 6.0 | 9.0 | 0.00 | 0.00 | 0.00 | 49 | 1015.1 |
| 20260901021839 | 89 | 360 | 5.0 | 9.0 | 0.00 | 0.00 | 0.00 | 49 | 1015.2 |
| 20260901021716 | 89 | 360 | 5.0 | 9.0 | 0.00 | 0.00 | 0.00 | 49 | 1015.2 |
| 20260901021618 | 89 | 360 | 5.0 | 9.0 | 0.00 | 0.00 | 0.00 | 49 | 1015.1 |
| 20260901021518 | 89 | 360 | 5.0 | 9.0 | 0.00 | 0.00 | 0.00 | 49 | 1015.2 |
| 20260901021419 | 89 | 360 | 5.0 | 9.0 | 0.00 | 0.00 | 0.00 | 49 | 1015.1 |
| 20260901021323 | 89 | 360 | 5.0 | 9.0 | 0.00 | 0.00 | 0.00 | 49 | 1015.1 |
| 20260901021223 | 89 | 360 | 5.0 | 8.0 | 0.00 | 0.00 | 0.00 | 49 | 1015.1 |
| 20260901021124 | 89 | 360 | 5.0 | 8.0 | 0.00 | 0.00 | 0.00 | 49 | 1015.1 |
| 20260901021025 | 89 | 360 | 5.0 | 8.0 | 0.00 | 0.00 | 0.00 | 50 | 1015.1 |
| 20260901020926 | 89 | 360 | 4.0 | 8.0 | 0.00 | 0.00 | 0.00 | 49 | 1015.1 |
| 20260901020826 | 89 | 360 | 5.0 | 8.0 | 0.00 | 0.00 | 0.00 | 49 | 1015.1 |
| 20260901020726 | 89 | 360 | 5.0 | 8.0 | 0.00 | 0.00 | 0.00 | 49 | 1015.1 |
| 20260901020630 | 89 | 360 | 4.0 | 8.0 | 0.00 | 0.00 | 0.00 | 49 | 1015.2 |
| 20260901020531 | 89 | 360 | 4.0 | 8.0 | 0.00 | 0.00 | 0.00 | 49 | 1015.1 |
| 20260901020430 | 89 | 360 | 4.0 | 8.0 | 0.00 | 0.00 | 0.00 | 49 | 1015.1 |
| 20260901020331 | 89 | 360 | 4.0 | 8.0 | 0.00 | 0.00 | 0.00 | 49 | 1015.1 |
| 20260901020251 | 89 | 360 | 4.0 | 8.0 | 0.00 | 0.00 | 0.00 | 49 | 1015.0 |
| 20260901020130 | 89 | 360 | 4.0 | 8.0 | 0.00 | 0.00 | 0.00 | 49 | 1015.0 |
| 20260901020031 | 89 | 360 | 4.0 | 6.0 | 0.00 | 0.00 | 0.00 | 49 | 1014.9 |
| 20260901015935 | 89 | 360 | 4.0 | 6.0 | 0.00 | 0.00 | 0.00 | 49 | 1015.0 |
| 20260901015818 | 89 | 360 | 3.0 | 6.0 | 0.00 | 0.00 | 0.00 | 49 | 1015.0 |
| 20260901015717 | 89 | 360 | 3.0 | 5.0 | 0.00 | 0.00 | 0.00 | 49 | 1014.9 |
| 20260901015617 | 89 | 360 | 2.0 | 5.0 | 0.00 | 0.00 | 0.00 | 49 | 1014.9 |
| 20260901015538 | 89 | 360 | 3.0 | 5.0 | 0.00 | 0.00 | 0.00 | 49 | 1014.8 |
| 20260901015419 | 89 | 360 | 2.0 | 5.0 | 0.00 | 0.00 | 0.00 | 49 | 1014.8 |
| 20260901015321 | 90 | 360 | 3.0 | 5.0 | 0.00 | 0.00 | 0.00 | 49 | 1014.7 |
| 20260901015225 | 90 | 360 | 2.0 | 4.0 | 0.00 | 0.00 | 0.00 | 48 | 1014.7 |
| 20260901015126 | 90 | 360 | 2.0 | 4.0 | 0.00 | 0.00 | 0.00 | 48 | 1014.7 |
| 20260901015046 | 90 | 360 | 2.0 | 4.0 | 0.00 | 0.00 | 0.00 | 49 | 1014.7 |
| 20260901014947 | 90 | 360 | 2.0 | 4.0 | 0.00 | 0.00 | 0.00 | 48 | 1014.7 |
| 20260901014827 | 90 | 360 | 2.0 | 4.0 | 0.00 | 0.00 | 0.00 | 48 | 1014.6 |
| 20260901014727 | 90 | 360 | 2.0 | 4.0 | 0.00 | 0.00 | 0.00 | 48 | 1014.7 |
| 20260901014625 | 90 | 360 | 2.0 | 5.0 | 0.00 | 0.00 | 0.00 | 48 | 1014.6 |
| 20260901014529 | 90 | 360 | 2.0 | 5.0 | 0.00 | 0.00 | 0.00 | 48 | 1014.7 |
| 20260901014431 | 90 | 360 | 2.0 | 5.0 | 0.00 | 0.00 | 0.00 | 48 | 1014.6 |
| 20260901014331 | 90 | 360 | 2.0 | 5.0 | 0.00 | 0.00 | 0.00 | 48 | 1014.7 |
| 20260901014252 | 90 | 360 | 2.0 | 5.0 | 0.00 | 0.00 | 0.00 | 48 | 1014.6 |
| 20260901014131 | 90 | 360 | 2.0 | 5.0 | 0.00 | 0.00 | 0.00 | 48 | 1014.7 |
| 20260901014031 | 90 | 360 | 2.0 | 5.0 | 0.00 | 0.00 | 0.00 | 48 | 1014.6 |
| 20260901013931 | 90 | 360 | 2.0 | 5.0 | 0.00 | 0.00 | 0.00 | 48 | 1014.7 |
| 20260901013816 | 90 | 360 | 2.0 | 4.0 | 0.00 | 0.00 | 0.00 | 48 | 1014.6 |
| 20260901013716 | 90 | 360 | 2.0 | 4.0 | 0.00 | 0.00 | 0.00 | 47 | 1014.6 |
| 20260901013617 | 90 | 360 | 2.0 | 4.0 | 0.00 | 0.00 | 0.00 | 47 | 1014.6 |
| 20260901013518 | 90 | 360 | 2.0 | 3.0 | 0.00 | 0.00 | 0.00 | 47 | 1014.6 |
| 20260901013419 | 90 | 360 | 2.0 | 3.0 | 0.00 | 0.00 | 0.00 | 47 | 1014.6 |
| 20260901013319 | 90 | 142 | 2.0 | 3.0 | 0.00 | 0.00 | 0.00 | 47 | 1014.6 |
| 20260901013225 | 90 | 360 | 2.0 | 3.0 | 0.00 | 0.00 | 0.00 | 47 | 1014.6 |
| 20260901013126 | 90 | 142 | 2.0 | 4.0 | 0.00 | 0.00 | 0.00 | 47 | 1014.6 |
| 20260901013046 | 90 | 360 | 2.0 | 4.0 | 0.00 | 0.00 | 0.00 | 47 | 1014.6 |
| 20260901012946 | 91 | 360 | 2.0 | 4.0 | 0.00 | 0.00 | 0.00 | 47 | 1014.6 |
| 20260901012847 | 91 | 360 | 2.0 | 4.0 | 0.00 | 0.00 | 0.00 | 48 | 1014.6 |
| 20260901012745 | 91 | 360 | 2.0 | 4.0 | 0.00 | 0.00 | 0.00 | 47 | 1014.6 |
| 20260901012624 | 91 | 360 | 2.0 | 4.0 | 0.00 | 0.00 | 0.00 | 47 | 1014.6 |
| 20260901012545 | 91 | 360 | 2.0 | 4.0 | 0.00 | 0.00 | 0.00 | 47 | 1014.6 |
| 20260901012425 | 91 | 360 | 2.0 | 3.0 | 0.00 | 0.00 | 0.00 | 47 | 1014.7 |
| 20260901012329 | 91 | 143 | 2.0 | 3.0 | 0.00 | 0.00 | 0.00 | 47 | 1014.6 |
| 20260901012229 | 91 | 360 | 2.0 | 4.0 | 0.00 | 0.00 | 0.00 | 47 | 1014.6 |
| 20260901012130 | 91 | 360 | 1.0 | 4.0 | 0.00 | 0.00 | 0.00 | 47 | 1014.6 |
| 20260901012051 | 91 | 360 | 2.0 | 4.0 | 0.00 | 0.00 | 0.00 | 47 | 1014.5 |
| 20260901011931 | 91 | 142 | 2.0 | 4.0 | 0.00 | 0.00 | 0.00 | 47 | 1014.5 |
| 20260901011831 | 91 | 142 | 2.0 | 4.0 | 0.00 | 0.00 | 0.00 | 47 | 1014.5 |
| 20260901011732 | 91 | 360 | 2.0 | 4.0 | 0.00 | 0.00 | 0.00 | 47 | 1014.4 |
| 20260901011617 | 91 | 360 | 2.0 | 4.0 | 0.00 | 0.00 | 0.00 | 47 | 1014.6 |
| 20260901011519 | 91 | 360 | 2.0 | 4.0 | 0.00 | 0.00 | 0.00 | 47 | 1014.5 |
| 20260901011419 | 91 | 360 | 2.0 | 4.0 | 0.00 | 0.00 | 0.00 | 46 | 1014.5 |
| 20260901011340 | 91 | 360 | 2.0 | 4.0 | 0.00 | 0.00 | 0.00 | 46 | 1014.5 |
| 20260901011220 | 91 | 360 | 3.0 | 5.0 | 0.00 | 0.00 | 0.00 | 46 | 1014.4 |
| 20260901011119 | 91 | 360 | 2.0 | 5.0 | 0.00 | 0.00 | 0.00 | 46 | 1014.4 |
| 20260901011040 | 91 | 360 | 2.0 | 5.0 | 0.00 | 0.00 | 0.00 | 46 | 1014.4 |
| 20260901010924 | 91 | 360 | 2.0 | 5.0 | 0.00 | 0.00 | 0.00 | 46 | 1014.4 |
| 20260901010825 | 91 | 360 | 2.0 | 5.0 | 0.00 | 0.00 | 0.00 | 46 | 1014.3 |
| 20260901010726 | 91 | 360 | 3.0 | 5.0 | 0.00 | 0.00 | 0.00 | 46 | 1014.3 |
| 20260901010625 | 92 | 360 | 3.0 | 5.0 | 0.00 | 0.00 | 0.00 | 46 | 1014.3 |
| 20260901010546 | 92 | 360 | 2.0 | 5.0 | 0.00 | 0.00 | 0.00 | 46 | 1014.4 |
| 20260901010425 | 92 | 360 | 2.0 | 4.0 | 0.00 | 0.00 | 0.00 | 46 | 1014.3 |
| 20260901010326 | 92 | 360 | 2.0 | 4.0 | 0.00 | 0.00 | 0.00 | 46 | 1014.3 |
| 20260901010230 | 92 | 360 | 2.0 | 5.0 | 0.00 | 0.00 | 0.00 | 46 | 1014.4 |
| 20260901010130 | 92 | 360 | 2.0 | 5.0 | 0.00 | 0.00 | 0.00 | 46 | 1014.4 |
| 20260901010031 | 92 | 146 | 2.0 | 5.0 | 0.00 | 0.00 | 0.00 | 46 | 1014.4 |
| 20260901005931 | 92 | 360 | 2.0 | 5.0 | 0.00 | 0.00 | 0.00 | 46 | 1014.4 |
| 20260901005833 | 92 | 146 | 2.0 | 5.0 | 0.00 | 0.00 | 0.00 | 46 | 1014.4 |
| 20260901005732 | 92 | 360 | 2.0 | 5.0 | 0.00 | 0.00 | 0.00 | 46 | 1014.3 |
| 20260901005616 | 92 | 360 | 3.0 | 5.0 | 0.00 | 0.00 | 0.00 | 46 | 1014.3 |
| 20260901005517 | 92 | 360 | 3.0 | 5.0 | 0.00 | 0.00 | 0.00 | 45 | 1014.4 |
| 20260901005437 | 92 | 147 | 3.0 | 5.0 | 0.00 | 0.00 | 0.00 | 45 | 1014.3 |
| 20260901005336 | 92 | 360 | 2.0 | 5.0 | 0.00 | 0.00 | 0.00 | 45 | 1014.4 |
| 20260901005257 | 92 | 360 | 2.0 | 5.0 | 0.00 | 0.00 | 0.00 | 45 | 1014.3 |
| 20260901005116 | 93 | 360 | 2.0 | 5.0 | 0.00 | 0.00 | 0.00 | 45 | 1014.3 |
| 20260901005017 | 93 | 122 | 2.0 | 5.0 | 0.00 | 0.00 | 0.00 | 45 | 1014.4 |
| 20260901004917 | 93 | 123 | 2.0 | 5.0 | 0.00 | 0.00 | 0.00 | 45 | 1014.3 |
| 20260901004842 | 93 | 360 | 2.0 | 6.0 | 0.00 | 0.00 | 0.00 | 45 | 1014.3 |
| 20260901004721 | 93 | 122 | 3.0 | 6.0 | 0.00 | 0.00 | 0.00 | 45 | 1014.3 |
| 20260901004622 | 93 | 360 | 3.0 | 9.0 | 0.00 | 0.00 | 0.00 | 44 | 1014.3 |
| 20260901004523 | 93 | 360 | 3.0 | 11.0 | 0.00 | 0.00 | 0.00 | 44 | 1014.4 |
| 20260901004424 | 93 | 117 | 3.0 | 11.0 | 0.00 | 0.00 | 0.00 | 44 | 1014.3 |
| 20260901004324 | 93 | 117 | 2.0 | 11.0 | 0.00 | 0.00 | 0.00 | 44 | 1014.3 |
| 20260901004225 | 93 | 117 | 3.0 | 11.0 | 0.00 | 0.00 | 0.00 | 44 | 1014.3 |
| 20260901004130 | 93 | 360 | 3.0 | 11.0 | 0.00 | 0.00 | 0.00 | 44 | 1014.4 |
| 20260901004030 | 93 | 360 | 5.0 | 11.0 | 0.00 | 0.00 | 0.00 | 44 | 1014.3 |
| 20260901003931 | 93 | 360 | 5.0 | 10.0 | 0.00 | 0.00 | 0.00 | 44 | 1014.3 |
| 20260901003830 | 93 | 360 | 5.0 | 10.0 | 0.00 | 0.00 | 0.00 | 44 | 1014.3 |
| 20260901003731 | 93 | 360 | 4.0 | 10.0 | 0.00 | 0.00 | 0.00 | 44 | 1014.4 |
| 20260901003634 | 93 | 360 | 3.0 | 9.0 | 0.00 | 0.00 | 0.00 | 44 | 1014.3 |
| 20260901003518 | 93 | 360 | 3.0 | 10.0 | 0.00 | 0.00 | 0.00 | 44 | 1014.4 |
| 20260901003419 | 94 | 360 | 4.0 | 10.0 | 0.00 | 0.00 | 0.00 | 44 | 1014.4 |
| 20260901003319 | 94 | 360 | 4.0 | 11.0 | 0.00 | 0.00 | 0.00 | 44 | 1014.4 |
| 20260901003240 | 94 | 360 | 4.0 | 11.0 | 0.00 | 0.00 | 0.00 | 44 | 1014.3 |
| 20260901003118 | 94 | 360 | 4.0 | 11.0 | 0.00 | 0.00 | 0.00 | 44 | 1014.3 |
| 20260901003019 | 94 | 360 | 4.0 | 12.0 | 0.00 | 0.00 | 0.00 | 44 | 1014.3 |
| 20260901002939 | 94 | 360 | 4.0 | 12.0 | 0.00 | 0.00 | 0.00 | 44 | 1014.3 |
| 20260901002825 | 94 | 360 | 4.0 | 12.0 | 0.00 | 0.00 | 0.00 | 44 | 1014.2 |
| 20260901002744 | 94 | 360 | 5.0 | 12.0 | 0.00 | 0.00 | 0.00 | 44 | 1014.2 |
| 20260901002643 | 94 | 360 | 5.0 | 12.0 | 0.00 | 0.00 | 0.00 | 43 | 1014.2 |
| 20260901002523 | 94 | 360 | 5.0 | 15.0 | 0.00 | 0.00 | 0.00 | 43 | 1014.1 |
| 20260901002423 | 94 | 360 | 5.0 | 15.0 | 0.00 | 0.00 | 0.00 | 43 | 1014.2 |
| 20260901002323 | 94 | 360 | 5.0 | 15.0 | 0.00 | 0.00 | 0.00 | 43 | 1014.2 |
| 20260901002224 | 94 | 360 | 5.0 | 15.0 | 0.00 | 0.00 | 0.00 | 43 | 1014.2 |
| 20260901002124 | 94 | 360 | 6.0 | 15.0 | 0.00 | 0.00 | 0.00 | 43 | 1014.2 |
| 20260901002029 | 94 | 360 | 6.0 | 15.0 | 0.00 | 0.00 | 0.00 | 43 | 1014.2 |
| 20260901001930 | 94 | 360 | 7.0 | 15.0 | 0.00 | 0.00 | 0.00 | 43 | 1014.2 |
| 20260901001830 | 94 | 360 | 6.0 | 15.0 | 0.00 | 0.00 | 0.00 | 43 | 1014.2 |
| 20260901001751 | 94 | 360 | 7.0 | 15.0 | 0.00 | 0.00 | 0.00 | 44 | 1014.2 |
| 20260901001630 | 94 | 360 | 8.0 | 15.0 | 0.00 | 0.00 | 0.00 | 44 | 1014.1 |
| 20260901001531 | 94 | 360 | 7.0 | 12.0 | 0.00 | 0.00 | 0.00 | 44 | 1014.2 |
| 20260901001415 | 94 | 360 | 7.0 | 11.0 | 0.00 | 0.00 | 0.00 | 44 | 1014.2 |
| 20260901001316 | 94 | 360 | 6.0 | 11.0 | 0.00 | 0.00 | 0.00 | 44 | 1014.2 |
| 20260901001217 | 94 | 116 | 5.0 | 11.0 | 0.00 | 0.00 | 0.00 | 44 | 1014.3 |
| 20260901001118 | 94 | 360 | 6.0 | 11.0 | 0.00 | 0.00 | 0.00 | 44 | 1014.2 |
| 20260901001018 | 94 | 360 | 6.0 | 11.0 | 0.00 | 0.00 | 0.00 | 44 | 1014.3 |
| 20260901000918 | 94 | 360 | 5.0 | 11.0 | 0.00 | 0.00 | 0.00 | 44 | 1014.2 |
| 20260901000819 | 94 | 117 | 6.0 | 10.0 | 0.00 | 0.00 | 0.00 | 44 | 1014.2 |
| 20260901000724 | 95 | 360 | 6.0 | 10.0 | 0.00 | 0.00 | 0.00 | 44 | 1014.2 |
| 20260901000644 | 95 | 360 | 6.0 | 10.0 | 0.00 | 0.00 | 0.00 | 44 | 1014.2 |
| 20260901000524 | 95 | 360 | 5.0 | 10.0 | 0.00 | 0.00 | 0.00 | 44 | 1014.2 |
| 20260901000424 | 95 | 360 | 4.0 | 8.0 | 0.00 | 0.00 | 0.00 | 44 | 1014.2 |
| 20260901000325 | 95 | 360 | 3.0 | 8.0 | 0.00 | 0.00 | 0.00 | 44 | 1014.2 |
| 20260901000248 | 95 | 360 | 3.0 | 5.0 | 0.00 | 0.00 | 0.00 | 45 | 1014.1 |
| 20260901000145 | 95 | 360 | 3.0 | 5.0 | 0.00 | 0.00 | 0.00 | 45 | 1014.2 |
| 20260901000024 | 95 | 360 | 3.0 | 5.0 | 0.00 | 0.00 | 0.00 | 44 | 1014.2 |
| 20260831235929 | 95 | 360 | 3.0 | 5.0 | 0.00 | 0.00 | 0.00 | 44 | 1014.2 |
| 20260831235829 | 95 | 360 | 3.0 | 5.0 | 0.00 | 0.00 | 0.00 | 44 | 1014.1 |
| 20260831235729 | 95 | 360 | 3.0 | 5.0 | 0.00 | 0.00 | 0.00 | 44 | 1014.1 |
| 20260831235628 | 95 | 360 | 2.0 | 5.0 | 0.00 | 0.00 | 0.00 | 43 | 1014.2 |
| 20260831235549 | 95 | 360 | 3.0 | 5.0 | 0.00 | 0.00 | 0.00 | 44 | 1014.2 |
| 20260831235429 | 95 | 360 | 2.0 | 6.0 | 0.00 | 0.00 | 0.00 | 44 | 1014.1 |
| 20260831235349 | 95 | 136 | 3.0 | 6.0 | 0.00 | 0.00 | 0.00 | 44 | 1014.2 |
| 20260831235228 | 95 | 136 | 3.0 | 6.0 | 0.00 | 0.00 | 0.00 | 44 | 1014.1 |
| 20260831235153 | 95 | 360 | 3.0 | 6.0 | 0.00 | 0.00 | 0.00 | 44 | 1014.2 |
| 20260831235033 | 95 | 360 | 3.0 | 6.0 | 0.00 | 0.00 | 0.00 | 44 | 1014.2 |
| 20260831234933 | 95 | 360 | 3.0 | 6.0 | 0.00 | 0.00 | 0.00 | 44 | 1014.2 |
| 20260831234834 | 95 | 360 | 4.0 | 6.0 | 0.00 | 0.00 | 0.00 | 44 | 1014.2 |
| 20260831234734 | 95 | 360 | 3.0 | 6.0 | 0.00 | 0.00 | 0.00 | 44 | 1014.2 |
| 20260831234635 | 95 | 360 | 3.0 | 6.0 | 0.00 | 0.00 | 0.00 | 44 | 1014.1 |
| 20260831234521 | 95 | 360 | 2.0 | 5.0 | 0.00 | 0.00 | 0.00 | 45 | 1014.2 |
| 20260831234421 | 95 | 360 | 2.0 | 5.0 | 0.00 | 0.00 | 0.00 | 45 | 1014.2 |
| 20260831234322 | 95 | 360 | 2.0 | 5.0 | 0.00 | 0.00 | 0.00 | 45 | 1014.1 |
| 20260831234242 | 95 | 151 | 3.0 | 5.0 | 0.00 | 0.00 | 0.00 | 45 | 1014.2 |
| 20260831234122 | 95 | 360 | 3.0 | 5.0 | 0.00 | 0.00 | 0.00 | 45 | 1014.1 |
| 20260831234042 | 95 | 360 | 3.0 | 5.0 | 0.00 | 0.00 | 0.00 | 45 | 1014.2 |
| 20260831233923 | 95 | 360 | 3.0 | 5.0 | 0.00 | 0.00 | 0.00 | 45 | 1014.1 |
| 20260831233823 | 95 | 360 | 3.0 | 5.0 | 0.00 | 0.00 | 0.00 | 45 | 1014.1 |
| 20260831233728 | 95 | 360 | 3.0 | 9.0 | 0.00 | 0.00 | 0.00 | 45 | 1014.1 |
| 20260831233629 | 95 | 360 | 2.0 | 9.0 | 0.00 | 0.00 | 0.00 | 45 | 1014.1 |
| 20260831233528 | 95 | 360 | 2.0 | 10.0 | 0.00 | 0.00 | 0.00 | 45 | 1014.1 |
| 20260831233429 | 95 | 158 | 2.0 | 10.0 | 0.00 | 0.00 | 0.00 | 45 | 1014.2 |
| 20260831233329 | 95 | 360 | 3.0 | 10.0 | 0.00 | 0.00 | 0.00 | 45 | 1014.1 |
| 20260831233230 | 95 | 360 | 4.0 | 10.0 | 0.00 | 0.00 | 0.00 | 44 | 1014.2 |
| 20260831233130 | 95 | 360 | 4.0 | 12.0 | 0.00 | 0.00 | 0.00 | 44 | 1014.2 |
| 20260831233035 | 95 | 360 | 4.0 | 12.0 | 0.00 | 0.00 | 0.00 | 44 | 1014.1 |
| 20260831232935 | 95 | 360 | 5.0 | 12.0 | 0.00 | 0.00 | 0.00 | 44 | 1014.2 |
| 20260831232817 | 95 | 360 | 4.0 | 12.0 | 0.00 | 0.00 | 0.00 | 45 | 1014.3 |
| 20260831232716 | 94 | 360 | 5.0 | 12.0 | 0.00 | 0.00 | 0.00 | 44 | 1014.2 |
| 20260831232617 | 94 | 360 | 5.0 | 12.0 | 0.00 | 0.00 | 0.00 | 45 | 1014.3 |
| 20260831232517 | 94 | 360 | 6.0 | 12.0 | 0.00 | 0.00 | 0.00 | 45 | 1014.3 |
| 20260831232422 | 94 | 360 | 6.0 | 12.0 | 0.00 | 0.00 | 0.00 | 45 | 1014.2 |
| 20260831232322 | 94 | 360 | 6.0 | 12.0 | 0.00 | 0.00 | 0.00 | 45 | 1014.2 |
| 20260831232223 | 94 | 360 | 6.0 | 12.0 | 0.00 | 0.00 | 0.00 | 46 | 1014.2 |
| 20260831232143 | 94 | 360 | 5.0 | 10.0 | 0.00 | 0.00 | 0.00 | 46 | 1014.2 |
| 20260831232023 | 94 | 360 | 5.0 | 10.0 | 0.00 | 0.00 | 0.00 | 46 | 1014.2 |
| 20260831231924 | 94 | 360 | 4.0 | 10.0 | 0.00 | 0.00 | 0.00 | 46 | 1014.2 |
| 20260831231825 | 94 | 360 | 4.0 | 10.0 | 0.00 | 0.00 | 0.00 | 46 | 1014.2 |
| 20260831231730 | 94 | 360 | 4.0 | 10.0 | 0.00 | 0.00 | 0.00 | 46 | 1014.3 |
| 20260831231629 | 94 | 360 | 5.0 | 10.0 | 0.00 | 0.00 | 0.00 | 46 | 1014.3 |
| 20260831231550 | 94 | 360 | 5.0 | 10.0 | 0.00 | 0.00 | 0.00 | 46 | 1014.2 |
| 20260831231430 | 94 | 360 | 6.0 | 10.0 | 0.00 | 0.00 | 0.00 | 45 | 1014.3 |
| 20260831231351 | 94 | 360 | 5.0 | 10.0 | 0.00 | 0.00 | 0.00 | 45 | 1014.3 |
| 20260831231231 | 94 | 360 | 5.0 | 10.0 | 0.00 | 0.00 | 0.00 | 46 | 1014.4 |
| 20260831231131 | 94 | 360 | 6.0 | 10.0 | 0.00 | 0.00 | 0.00 | 46 | 1014.3 |
| 20260831231035 | 94 | 360 | 5.0 | 10.0 | 0.00 | 0.00 | 0.00 | 46 | 1014.3 |
| 20260831230956 | 94 | 360 | 5.0 | 10.0 | 0.00 | 0.00 | 0.00 | 46 | 1014.4 |
| 20260831230856 | 94 | 360 | 4.0 | 10.0 | 0.00 | 0.00 | 0.00 | 45 | 1014.4 |
| 20260831230735 | 94 | 360 | 5.0 | 10.0 | 0.00 | 0.00 | 0.00 | 45 | 1014.3 |
| 20260831230636 | 94 | 360 | 6.0 | 11.0 | 0.00 | 0.00 | 0.00 | 45 | 1014.4 |
| 20260831230516 | 94 | 360 | 6.0 | 11.0 | 0.00 | 0.00 | 0.00 | 45 | 1014.4 |
| 20260831230417 | 95 | 360 | 6.0 | 11.0 | 0.00 | 0.00 | 0.00 | 45 | 1014.4 |
| 20260831230321 | 95 | 360 | 6.0 | 11.0 | 0.00 | 0.00 | 0.00 | 45 | 1014.4 |
| 20260831230221 | 95 | 360 | 6.0 | 11.0 | 0.00 | 0.00 | 0.00 | 45 | 1014.4 |
| 20260831230122 | 95 | 360 | 7.0 | 11.0 | 0.00 | 0.00 | 0.00 | 45 | 1014.3 |
| 20260831230022 | 95 | 360 | 8.0 | 11.0 | 0.00 | 0.00 | 0.00 | 45 | 1014.3 |
| 20260831225923 | 95 | 78 | 7.0 | 12.0 | 0.00 | 0.00 | 0.00 | 44 | 1014.3 |
| 20260831225825 | 95 | 360 | 6.0 | 12.0 | 0.00 | 0.00 | 0.00 | 44 | 1014.3 |
| 20260831225725 | 96 | 360 | 6.0 | 12.0 | 0.00 | 0.00 | 0.00 | 45 | 1014.3 |
| 20260831225629 | 96 | 360 | 7.0 | 12.0 | 0.00 | 0.00 | 0.00 | 45 | 1014.4 |
| 20260831225549 | 96 | 144 | 8.0 | 12.0 | 0.00 | 0.00 | 0.00 | 45 | 1014.4 |
| 20260831225429 | 96 | 360 | 8.0 | 12.0 | 0.00 | 0.00 | 0.00 | 44 | 1014.3 |
| 20260831225329 | 96 | 360 | 7.0 | 12.0 | 0.00 | 0.00 | 0.00 | 44 | 1014.3 |
| 20260831225229 | 96 | 360 | 6.0 | 12.0 | 0.00 | 0.00 | 0.00 | 44 | 1014.3 |
| 20260831225130 | 96 | 360 | 6.0 | 12.0 | 0.00 | 0.00 | 0.00 | 45 | 1014.3 |
| 20260831225030 | 96 | 360 | 7.0 | 12.0 | 0.00 | 0.00 | 0.00 | 44 | 1014.3 |
| 20260831224935 | 96 | 360 | 7.0 | 12.0 | 0.00 | 0.00 | 0.00 | 44 | 1014.4 |
| 20260831224836 | 96 | 360 | 7.0 | 12.0 | 0.00 | 0.00 | 0.00 | 44 | 1014.2 |
| 20260831224735 | 96 | 360 | 6.0 | 12.0 | 0.00 | 0.00 | 0.00 | 44 | 1014.3 |
| 20260831224635 | 96 | 360 | 6.0 | 11.0 | 0.00 | 0.00 | 0.00 | 44 | 1014.3 |
| 20260831224516 | 96 | 360 | 6.0 | 11.0 | 0.00 | 0.00 | 0.00 | 44 | 1014.3 |
| 20260831224416 | 96 | 360 | 6.0 | 13.0 | 0.00 | 0.00 | 0.00 | 46 | 1014.3 |
| 20260831224321 | 96 | 360 | 5.0 | 13.0 | 0.00 | 0.00 | 0.00 | 44 | 1014.3 |
| 20260831224220 | 96 | 360 | 5.0 | 13.0 | 0.00 | 0.00 | 0.00 | 44 | 1014.3 |
| 20260831224121 | 96 | 78 | 5.0 | 13.0 | 0.00 | 0.00 | 0.00 | 44 | 1014.3 |
| 20260831224022 | 96 | 360 | 5.0 | 13.0 | 0.00 | 0.00 | 0.00 | 44 | 1014.3 |
| 20260831223921 | 96 | 360 | 6.0 | 13.0 | 0.00 | 0.00 | 0.00 | 45 | 1014.3 |
| 20260831223821 | 96 | 360 | 6.0 | 13.0 | 0.00 | 0.00 | 0.00 | 45 | 1014.4 |
| 20260831223721 | 96 | 360 | 8.0 | 14.0 | 0.00 | 0.00 | 0.00 | 44 | 1014.4 |
| 20260831223627 | 96 | 108 | 9.0 | 14.0 | 0.00 | 0.00 | 0.00 | 43 | 1014.4 |
| 20260831223526 | 96 | 360 | 9.0 | 14.0 | 0.00 | 0.00 | 0.00 | 43 | 1014.4 |
| 20260831223427 | 97 | 360 | 7.0 | 15.0 | 0.00 | 0.00 | 0.00 | 43 | 1014.4 |
| 20260831223328 | 96 | 360 | 6.0 | 15.0 | 0.00 | 0.00 | 0.00 | 43 | 1014.5 |
| 20260831223229 | 97 | 360 | 7.0 | 15.0 | 0.00 | 0.00 | 0.00 | 44 | 1014.4 |
| 20260831223129 | 97 | 360 | 6.0 | 15.0 | 0.00 | 0.00 | 0.00 | 44 | 1014.4 |
| 20260831223030 | 97 | 360 | 6.0 | 15.0 | 0.00 | 0.00 | 0.00 | 43 | 1014.4 |
| 20260831222934 | 97 | 113 | 7.0 | 15.0 | 0.00 | 0.00 | 0.00 | 43 | 1014.5 |
| 20260831222835 | 97 | 360 | 7.0 | 15.0 | 0.00 | 0.00 | 0.00 | 43 | 1014.4 |
| 20260831222735 | 97 | 360 | 7.0 | 15.0 | 0.00 | 0.00 | 0.00 | 43 | 1014.5 |
| 20260831222635 | 97 | 150 | 8.0 | 14.0 | 0.00 | 0.00 | 0.00 | 42 | 1014.6 |
| 20260831222516 | 97 | 360 | 6.0 | 12.0 | 0.00 | 0.00 | 0.00 | 42 | 1014.5 |
| 20260831222417 | 97 | 360 | 7.0 | 12.0 | 0.00 | 0.00 | 0.00 | 42 | 1014.5 |
| 20260831222321 | 97 | 360 | 7.0 | 12.0 | 0.00 | 0.00 | 0.00 | 42 | 1014.5 |
| 20260831222223 | 97 | 360 | 7.0 | 12.0 | 0.00 | 0.00 | 0.00 | 41 | 1014.5 |
| 20260831222142 | 97 | 360 | 6.0 | 12.0 | 0.00 | 0.00 | 0.00 | 41 | 1014.5 |
| 20260831222022 | 97 | 159 | 6.0 | 12.0 | 0.00 | 0.00 | 0.00 | 41 | 1014.6 |
| 20260831221922 | 97 | 116 | 6.0 | 12.0 | 0.00 | 0.00 | 0.00 | 41 | 1014.6 |
| 20260831221822 | 97 | 360 | 7.0 | 12.0 | 0.00 | 0.00 | 0.00 | 40 | 1014.5 |
| 20260831221722 | 97 | 360 | 7.0 | 12.0 | 0.00 | 0.00 | 0.00 | 41 | 1014.5 |
| 20260831221643 | 97 | 360 | 6.0 | 12.0 | 0.00 | 0.00 | 0.00 | 41 | 1014.5 |
| 20260831221527 | 97 | 145 | 6.0 | 12.0 | 0.00 | 0.00 | 0.00 | 41 | 1014.5 |
| 20260831221426 | 97 | 360 | 5.0 | 12.0 | 0.00 | 0.00 | 0.00 | 41 | 1014.4 |
| 20260831221327 | 97 | 360 | 5.0 | 12.0 | 0.00 | 0.00 | 0.00 | 41 | 1014.5 |
| 20260831221227 | 97 | 360 | 5.0 | 12.0 | 0.00 | 0.00 | 0.00 | 41 | 1014.5 |
| 20260831221148 | 97 | 360 | 5.0 | 12.0 | 0.00 | 0.00 | 0.00 | 41 | 1014.5 |
| 20260831221027 | 97 | 360 | 5.0 | 12.0 | 0.00 | 0.00 | 0.00 | 42 | 1014.4 |
| 20260831220928 | 97 | 170 | 3.0 | 12.0 | 0.00 | 0.00 | 0.00 | 41 | 1014.4 |
| 20260831220830 | 97 | 360 | 3.0 | 13.0 | 0.00 | 0.00 | 0.00 | 41 | 1014.4 |
| 20260831220731 | 97 | 90 | 3.0 | 13.0 | 0.00 | 0.00 | 0.00 | 41 | 1014.5 |
| 20260831220651 | 97 | 360 | 3.0 | 13.0 | 0.00 | 0.00 | 0.00 | 43 | 1014.5 |
| 20260831220530 | 97 | 360 | 5.0 | 13.0 | 0.00 | 0.00 | 0.00 | 43 | 1014.5 |
| 20260831220430 | 97 | 360 | 7.0 | 13.0 | 0.00 | 0.00 | 0.00 | 42 | 1014.4 |
| 20260831220330 | 97 | 360 | 7.0 | 13.0 | 0.00 | 0.00 | 0.00 | 42 | 1014.5 |
| 20260831220250 | 97 | 142 | 7.0 | 13.0 | 0.00 | 0.00 | 0.00 | 42 | 1014.4 |
| 20260831220130 | 97 | 360 | 6.0 | 13.0 | 0.00 | 0.00 | 0.00 | 43 | 1014.5 |
| 20260831220034 | 97 | 360 | 6.0 | 13.0 | 0.00 | 0.00 | 0.00 | 43 | 1014.5 |
| 20260831215935 | 97 | 360 | 4.0 | 10.0 | 0.00 | 0.00 | 0.00 | 43 | 1014.5 |
| 20260831215816 | 97 | 360 | 5.0 | 10.0 | 0.00 | 0.00 | 0.00 | 42 | 1014.5 |
| 20260831215717 | 97 | 360 | 5.0 | 10.0 | 0.00 | 0.00 | 0.00 | 41 | 1014.4 |
| 20260831215617 | 97 | 360 | 2.0 | 10.0 | 0.00 | 0.00 | 0.00 | 41 | 1014.5 |
| 20260831215518 | 97 | 360 | 2.0 | 10.0 | 0.00 | 0.00 | 0.00 | 41 | 1014.5 |
| 20260831215422 | 97 | 360 | 2.0 | 10.0 | 0.00 | 0.00 | 0.00 | 42 | 1014.5 |
| 20260831215322 | 97 | 360 | 2.0 | 10.0 | 0.00 | 0.00 | 0.00 | 42 | 1014.5 |
| 20260831215223 | 97 | 360 | 3.0 | 13.0 | 0.00 | 0.00 | 0.00 | 43 | 1014.5 |
| 20260831215123 | 97 | 360 | 4.0 | 13.0 | 0.00 | 0.00 | 0.00 | 43 | 1014.6 |
| 20260831215023 | 97 | 360 | 4.0 | 13.0 | 0.00 | 0.00 | 0.00 | 43 | 1014.6 |
| 20260831214923 | 97 | 360 | 4.0 | 13.0 | 0.00 | 0.00 | 0.00 | 43 | 1014.7 |
| 20260831214824 | 96 | 360 | 4.0 | 13.0 | 0.00 | 0.00 | 0.00 | 43 | 1014.7 |
| 20260831214728 | 96 | 360 | 5.0 | 13.0 | 0.00 | 0.00 | 0.00 | 44 | 1014.7 |
| 20260831214629 | 96 | 360 | 7.0 | 13.0 | 0.00 | 0.00 | 0.00 | 44 | 1014.8 |
| 20260831214530 | 96 | 360 | 6.0 | 13.0 | 0.00 | 0.00 | 0.00 | 43 | 1014.9 |
| 20260831214431 | 96 | 360 | 5.0 | 13.0 | 0.00 | 0.00 | 0.00 | 44 | 1014.8 |
| 20260831214330 | 95 | 360 | 3.0 | 12.0 | 0.00 | 0.00 | 0.00 | 44 | 1014.8 |
| 20260831214231 | 95 | 360 | 3.0 | 12.0 | 0.00 | 0.00 | 0.00 | 44 | 1014.9 |
| 20260831214130 | 95 | 360 | 2.0 | 12.0 | 0.00 | 0.00 | 0.00 | 44 | 1014.8 |
| 20260831214035 | 95 | 360 | 3.0 | 12.0 | 0.00 | 0.00 | 0.00 | 44 | 1014.9 |
| 20260831213916 | 95 | 360 | 5.0 | 12.0 | 0.00 | 0.00 | 0.00 | 44 | 1014.9 |
| 20260831213816 | 95 | 360 | 7.0 | 13.0 | 0.00 | 0.00 | 0.00 | 44 | 1014.9 |
| 20260831213716 | 95 | 360 | 7.0 | 13.0 | 0.00 | 0.00 | 0.00 | 45 | 1014.9 |
| 20260831213617 | 95 | 171 | 5.0 | 13.0 | 0.00 | 0.00 | 0.00 | 46 | 1015.0 |
| 20260831213518 | 95 | 360 | 5.0 | 13.0 | 0.00 | 0.00 | 0.00 | 44 | 1014.9 |
| 20260831213440 | 95 | 360 | 5.0 | 13.0 | 0.00 | 0.00 | 0.00 | 44 | 1015.0 |
| 20260831213324 | 96 | 360 | 6.0 | 13.0 | 0.00 | 0.00 | 0.00 | 44 | 1015.0 |
| 20260831213223 | 96 | 360 | 7.0 | 13.0 | 0.00 | 0.00 | 0.00 | 43 | 1015.0 |
| 20260831213124 | 96 | 360 | 9.0 | 14.0 | 0.00 | 0.00 | 0.00 | 44 | 1015.0 |
| 20260831213025 | 96 | 360 | 8.0 | 14.0 | 0.00 | 0.00 | 0.00 | 44 | 1014.9 |
| 20260831212925 | 96 | 360 | 7.0 | 14.0 | 0.00 | 0.00 | 0.00 | 43 | 1015.0 |
| 20260831212824 | 96 | 360 | 7.0 | 14.0 | 0.00 | 0.00 | 0.00 | 43 | 1015.0 |
| 20260831212728 | 96 | 360 | 6.0 | 14.0 | 0.00 | 0.00 | 0.00 | 43 | 1015.1 |
| 20260831212627 | 96 | 360 | 7.0 | 14.0 | 0.00 | 0.00 | 0.00 | 43 | 1015.1 |
| 20260831212528 | 96 | 360 | 8.0 | 14.0 | 0.00 | 0.00 | 0.00 | 43 | 1015.1 |
| 20260831212428 | 96 | 360 | 7.0 | 14.0 | 0.00 | 0.00 | 0.00 | 44 | 1015.1 |
| 20260831212328 | 96 | 360 | 6.0 | 14.0 | 0.00 | 0.00 | 0.00 | 44 | 1015.1 |
| 20260831212229 | 96 | 360 | 4.0 | 15.0 | 0.00 | 0.00 | 0.00 | 44 | 1015.0 |
| 20260831212129 | 96 | 360 | 4.0 | 15.0 | 0.00 | 0.00 | 0.00 | 44 | 1015.1 |
| 20260831212054 | 96 | 360 | 4.0 | 15.0 | 0.00 | 0.00 | 0.00 | 44 | 1015.1 |
| 20260831211933 | 96 | 360 | 3.0 | 15.0 | 0.00 | 0.00 | 0.00 | 44 | 1015.1 |
| 20260831211854 | 96 | 360 | 3.0 | 15.0 | 0.00 | 0.00 | 0.00 | 44 | 1015.2 |
| 20260831211733 | 95 | 360 | 6.0 | 15.0 | 0.00 | 0.00 | 0.00 | 44 | 1015.1 |
| 20260831211653 | 95 | 360 | 9.0 | 15.0 | 0.00 | 0.00 | 0.00 | 44 | 1015.2 |
| 20260831211533 | 95 | 360 | 10.0 | 15.0 | 0.00 | 0.00 | 0.00 | 44 | 1015.2 |
| 20260831211453 | 95 | 360 | 9.0 | 15.0 | 0.00 | 0.00 | 0.00 | 45 | 1015.2 |
| 20260831211333 | 95 | 360 | 6.0 | 14.0 | 0.00 | 0.00 | 0.00 | 44 | 1015.2 |
| 20260831211217 | 95 | 360 | 4.0 | 17.0 | 0.00 | 0.00 | 0.00 | 44 | 1015.2 |
| 20260831211118 | 95 | 360 | 4.0 | 17.0 | 0.00 | 0.00 | 0.00 | 44 | 1015.2 |
| 20260831211018 | 95 | 360 | 5.0 | 17.0 | 0.00 | 0.00 | 0.00 | 43 | 1015.2 |
| 20260831210919 | 95 | 360 | 8.0 | 17.0 | 0.00 | 0.00 | 0.00 | 44 | 1015.3 |
| 20260831210818 | 95 | 360 | 10.0 | 17.0 | 0.00 | 0.00 | 0.00 | 43 | 1015.3 |
| 20260831210716 | 96 | 360 | 9.0 | 17.0 | 0.00 | 0.00 | 0.00 | 43 | 1015.3 |
| 20260831210638 | 96 | 360 | 10.0 | 17.0 | 0.00 | 0.00 | 0.00 | 43 | 1015.4 |
| 20260831210521 | 96 | 360 | 9.0 | 17.0 | 0.00 | 0.00 | 0.00 | 43 | 1015.4 |
| 20260831210422 | 96 | 360 | 7.0 | 16.0 | 0.00 | 0.00 | 0.00 | 44 | 1015.4 |
| 20260831210323 | 96 | 360 | 4.0 | 8.0 | 0.00 | 0.00 | 0.00 | 45 | 1015.4 |
| 20260831210223 | 96 | 360 | 4.0 | 8.0 | 0.00 | 0.00 | 0.00 | 44 | 1015.4 |
| 20260831210143 | 96 | 68 | 5.0 | 9.0 | 0.00 | 0.00 | 0.00 | 44 | 1015.2 |
| 20260831210023 | 96 | 360 | 5.0 | 12.0 | 0.00 | 0.00 | 0.00 | 45 | 1015.3 |
| 20260831205923 | 95 | 360 | 4.0 | 13.0 | 0.00 | 0.00 | 0.00 | 46 | 1015.3 |
| 20260831205845 | 95 | 360 | 2.0 | 13.0 | 0.00 | 0.00 | 0.00 | 46 | 1015.4 |
| 20260831205728 | 95 | 360 | 2.0 | 13.0 | 0.00 | 0.00 | 0.00 | 46 | 1015.4 |
| 20260831205649 | 94 | 360 | 4.0 | 13.0 | 0.00 | 0.00 | 0.00 | 46 | 1015.5 |
| 20260831205528 | 94 | 360 | 6.0 | 15.0 | 0.00 | 0.00 | 0.00 | 46 | 1015.4 |
| 20260831205426 | 94 | 360 | 8.0 | 15.0 | 0.00 | 0.00 | 0.00 | 46 | 1015.5 |
| 20260831205325 | 94 | 360 | 8.0 | 15.0 | 0.00 | 0.00 | 0.00 | 46 | 1015.5 |
| 20260831205226 | 95 | 360 | 8.0 | 15.0 | 0.00 | 0.00 | 0.00 | 46 | 1015.5 |
| 20260831205125 | 95 | 360 | 8.0 | 15.0 | 0.00 | 0.00 | 0.00 | 45 | 1015.5 |
| 20260831205025 | 95 | 360 | 8.0 | 15.0 | 0.00 | 0.00 | 0.00 | 46 | 1015.6 |
| 20260831204930 | 95 | 360 | 9.0 | 15.0 | 0.00 | 0.00 | 0.00 | 45 | 1015.6 |
| 20260831204830 | 96 | 360 | 11.0 | 15.0 | 0.00 | 0.00 | 0.00 | 45 | 1015.6 |
| 20260831204731 | 96 | 360 | 11.0 | 15.0 | 0.00 | 0.00 | 0.00 | 45 | 1015.6 |
| 20260831204630 | 96 | 360 | 9.0 | 14.0 | 0.00 | 0.00 | 0.00 | 45 | 1015.7 |
| 20260831204550 | 96 | 360 | 8.0 | 11.0 | 0.00 | 0.00 | 0.00 | 45 | 1015.6 |
| 20260831204449 | 96 | 360 | 6.0 | 11.0 | 0.00 | 0.00 | 0.00 | 46 | 1015.6 |
| 20260831204329 | 96 | 133 | 6.0 | 10.0 | 0.00 | 0.00 | 0.00 | 46 | 1015.8 |
| 20260831204230 | 96 | 360 | 7.0 | 10.0 | 0.00 | 0.00 | 0.00 | 46 | 1015.6 |
| 20260831204132 | 96 | 360 | 7.0 | 10.0 | 0.00 | 0.00 | 0.00 | 45 | 1015.7 |
| 20260831204032 | 96 | 360 | 6.0 | 11.0 | 0.00 | 0.00 | 0.00 | 45 | 1015.7 |
| 20260831203933 | 96 | 360 | 6.0 | 11.0 | 0.00 | 0.00 | 0.00 | 45 | 1015.7 |
| 20260831203832 | 96 | 360 | 5.0 | 11.0 | 0.00 | 0.00 | 0.00 | 45 | 1015.8 |
| 20260831203732 | 96 | 360 | 5.0 | 11.0 | 0.00 | 0.00 | 0.00 | 46 | 1015.8 |
| 20260831203653 | 96 | 360 | 2.0 | 13.0 | 0.00 | 0.00 | 0.00 | 45 | 1015.8 |
| 20260831203532 | 96 | 360 | 2.0 | 13.0 | 0.00 | 0.00 | 0.00 | 47 | 1015.8 |
| 20260831203431 | 96 | 360 | 3.0 | 13.0 | 0.00 | 0.00 | 0.00 | 46 | 1015.8 |
| 20260831203316 | 95 | 360 | 6.0 | 15.0 | 0.00 | 0.00 | 0.00 | 45 | 1015.9 |
| 20260831203216 | 95 | 360 | 7.0 | 15.0 | 0.00 | 0.00 | 0.00 | 45 | 1015.9 |
| 20260831203117 | 96 | 360 | 6.0 | 15.0 | 0.00 | 0.00 | 0.00 | 44 | 1015.9 |
| 20260831203017 | 95 | 360 | 7.0 | 15.0 | 0.00 | 0.00 | 0.00 | 45 | 1015.9 |
| 20260831202917 | 96 | 144 | 9.0 | 15.0 | 0.00 | 0.00 | 0.00 | 45 | 1015.9 |
| 20260831202818 | 95 | 360 | 10.0 | 15.0 | 0.00 | 0.00 | 0.00 | 45 | 1016.0 |
| 20260831202722 | 96 | 360 | 9.0 | 15.0 | 0.00 | 0.00 | 0.00 | 45 | 1016.1 |
| 20260831202623 | 95 | 360 | 9.0 | 15.0 | 0.00 | 0.00 | 0.00 | 45 | 1016.1 |
| 20260831202524 | 96 | 360 | 7.0 | 15.0 | 0.00 | 0.00 | 0.00 | 46 | 1016.1 |
| 20260831202425 | 96 | 360 | 5.0 | 14.0 | 0.00 | 0.00 | 0.00 | 46 | 1016.1 |
| 20260831202324 | 96 | 360 | 5.0 | 14.0 | 0.00 | 0.00 | 0.00 | 47 | 1016.1 |
| 20260831202225 | 96 | 360 | 6.0 | 14.0 | 0.00 | 0.00 | 0.00 | 47 | 1016.1 |
| 20260831202145 | 95 | 126 | 8.0 | 14.0 | 0.00 | 0.00 | 0.00 | 46 | 1016.1 |
| 20260831202029 | 96 | 360 | 7.0 | 14.0 | 0.00 | 0.00 | 0.00 | 46 | 1016.2 |
| 20260831201929 | 96 | 360 | 6.0 | 14.0 | 0.00 | 0.00 | 0.00 | 46 | 1016.3 |
| 20260831201830 | 96 | 360 | 3.0 | 11.0 | 0.00 | 0.00 | 0.00 | 45 | 1016.2 |
| 20260831201750 | 95 | 360 | 3.0 | 10.0 | 0.00 | 0.00 | 0.00 | 45 | 1016.2 |
| 20260831201629 | 95 | 360 | 2.0 | 12.0 | 0.00 | 0.00 | 0.00 | 46 | 1016.2 |
| 20260831201531 | 95 | 360 | 2.0 | 12.0 | 0.00 | 0.00 | 0.00 | 47 | 1016.2 |
| 20260831201430 | 94 | 360 | 3.0 | 12.0 | 0.00 | 0.00 | 0.00 | 46 | 1016.2 |
| 20260831201335 | 94 | 360 | 4.0 | 13.0 | 0.00 | 0.00 | 0.00 | 46 | 1016.3 |
| 20260831201235 | 94 | 360 | 5.0 | 13.0 | 0.00 | 0.00 | 0.00 | 47 | 1016.5 |
| 20260831201116 | 94 | 360 | 6.0 | 13.0 | 0.00 | 0.00 | 0.00 | 47 | 1016.4 |
| 20260831201035 | 94 | 360 | 7.0 | 13.0 | 0.00 | 0.00 | 0.00 | 47 | 1016.4 |
| 20260831200916 | 94 | 360 | 7.0 | 13.0 | 0.00 | 0.00 | 0.00 | 47 | 1016.5 |
| 20260831200817 | 95 | 360 | 8.0 | 13.0 | 0.00 | 0.00 | 0.00 | 47 | 1016.5 |
| 20260831200722 | 95 | 360 | 7.0 | 13.0 | 0.00 | 0.00 | 0.00 | 47 | 1016.5 |
| 20260831200622 | 96 | 360 | 5.0 | 14.0 | 0.00 | 0.00 | 0.00 | 46 | 1016.5 |
| 20260831200521 | 96 | 360 | 2.0 | 14.0 | 0.00 | 0.00 | 0.00 | 47 | 1016.5 |
| 20260831200422 | 96 | 360 | 1.0 | 14.0 | 0.00 | 0.00 | 0.00 | 47 | 1016.5 |
| 20260831200322 | 96 | 360 | 3.0 | 14.0 | 0.00 | 0.00 | 0.00 | 47 | 1016.5 |
| 20260831200223 | 95 | 360 | 4.0 | 14.0 | 0.00 | 0.00 | 0.00 | 49 | 1016.5 |
| 20260831200123 | 95 | 171 | 5.0 | 14.0 | 0.00 | 0.00 | 0.00 | 49 | 1016.7 |
| 20260831200023 | 95 | 360 | 6.0 | 14.0 | 0.00 | 0.00 | 0.00 | 48 | 1016.6 |
| 20260831195927 | 95 | 360 | 8.0 | 14.0 | 0.00 | 0.00 | 0.00 | 49 | 1016.6 |
| 20260831195828 | 95 | 360 | 9.0 | 14.0 | 0.00 | 0.00 | 0.00 | 48 | 1016.5 |
| 20260831195728 | 95 | 360 | 8.0 | 14.0 | 0.00 | 0.00 | 0.00 | 48 | 1016.6 |
| 20260831195628 | 95 | 360 | 8.0 | 13.0 | 0.00 | 0.00 | 0.00 | 48 | 1016.6 |
| 20260831195529 | 95 | 360 | 8.0 | 13.0 | 0.00 | 0.00 | 0.00 | 48 | 1016.6 |
| 20260831195429 | 95 | 360 | 5.0 | 15.0 | 0.00 | 0.00 | 0.00 | 48 | 1016.6 |
| 20260831195334 | 95 | 360 | 4.0 | 15.0 | 0.00 | 0.00 | 0.00 | 49 | 1016.6 |
| 20260831195234 | 95 | 360 | 4.0 | 15.0 | 0.00 | 0.00 | 0.00 | 49 | 1016.6 |
| 20260831195135 | 95 | 360 | 5.0 | 15.0 | 0.00 | 0.00 | 0.00 | 48 | 1016.6 |
| 20260831195035 | 95 | 360 | 5.0 | 15.0 | 0.00 | 0.00 | 0.00 | 48 | 1016.7 |
| 20260831194936 | 95 | 360 | 6.0 | 15.0 | 0.00 | 0.00 | 0.00 | 48 | 1016.7 |
| 20260831194816 | 95 | 360 | 8.0 | 15.0 | 0.00 | 0.00 | 0.00 | 48 | 1016.8 |
| 20260831194721 | 95 | 360 | 9.0 | 15.0 | 0.00 | 0.00 | 0.00 | 48 | 1016.8 |
| 20260831194623 | 95 | 360 | 9.0 | 15.0 | 0.00 | 0.00 | 0.00 | 47 | 1016.8 |
| 20260831194543 | 95 | 360 | 8.0 | 15.0 | 0.00 | 0.00 | 0.00 | 48 | 1016.8 |
| 20260831194423 | 95 | 360 | 6.0 | 19.0 | 0.00 | 0.00 | 0.00 | 48 | 1016.7 |
| 20260831194343 | 95 | 360 | 6.0 | 19.0 | 0.00 | 0.00 | 0.00 | 48 | 1016.8 |
| 20260831194224 | 94 | 360 | 5.0 | 19.0 | 0.00 | 0.00 | 0.00 | 48 | 1016.8 |
| 20260831194123 | 94 | 360 | 6.0 | 19.0 | 0.00 | 0.00 | 0.00 | 50 | 1016.9 |
| 20260831194044 | 94 | 95 | 6.0 | 19.0 | 0.00 | 0.00 | 0.00 | 50 | 1016.8 |
| 20260831193944 | 94 | 360 | 9.0 | 19.0 | 0.00 | 0.00 | 0.00 | 49 | 1016.9 |
| 20260831193827 | 94 | 360 | 10.0 | 19.0 | 0.00 | 0.00 | 0.00 | 49 | 1016.8 |
| 20260831193728 | 94 | 360 | 10.0 | 19.0 | 0.00 | 0.00 | 0.00 | 48 | 1016.8 |
| 20260831193629 | 94 | 360 | 9.0 | 19.0 | 0.00 | 0.00 | 0.00 | 49 | 1016.9 |
| 20260831193529 | 94 | 360 | 8.0 | 19.0 | 0.00 | 0.00 | 0.00 | 48 | 1017.0 |
| 20260831193431 | 94 | 360 | 8.0 | 15.0 | 0.00 | 0.00 | 0.00 | 47 | 1016.9 |
| 20260831193331 | 95 | 360 | 8.0 | 15.0 | 0.00 | 0.00 | 0.00 | 47 | 1016.9 |
| 20260831193217 | 95 | 360 | 7.0 | 15.0 | 0.00 | 0.00 | 0.00 | 47 | 1017.0 |
| 20260831193116 | 95 | 360 | 4.0 | 14.0 | 0.00 | 0.00 | 0.00 | 48 | 1016.9 |
| 20260831193017 | 95 | 360 | 5.0 | 15.0 | 0.00 | 0.00 | 0.00 | 48 | 1016.9 |
| 20260831192938 | 95 | 360 | 5.0 | 15.0 | 0.00 | 0.00 | 0.00 | 49 | 1017.0 |
| 20260831192819 | 95 | 360 | 5.0 | 15.0 | 0.00 | 0.00 | 0.00 | 49 | 1016.9 |
| 20260831192717 | 95 | 360 | 5.0 | 15.0 | 0.00 | 0.00 | 0.00 | 49 | 1017.0 |
| 20260831192618 | 95 | 179 | 4.0 | 15.0 | 0.00 | 0.00 | 0.00 | 49 | 1017.0 |
| 20260831192523 | 95 | 360 | 5.0 | 15.0 | 0.00 | 0.00 | 0.00 | 49 | 1016.9 |
| 20260831192324 | 94 | 360 | 9.0 | 15.0 | 0.00 | 0.00 | 0.00 | 49 | 1017.0 |
| 20260831192224 | 94 | 360 | 9.0 | 15.0 | 0.00 | 0.00 | 0.00 | 49 | 1017.0 |
| 20260831192125 | 94 | 360 | 9.0 | 21.0 | 0.00 | 0.00 | 0.00 | 50 | 1017.1 |
| 20260831192046 | 94 | 360 | 9.0 | 21.0 | 0.00 | 0.00 | 0.00 | 49 | 1017.1 |
| 20260831191925 | 94 | 360 | 8.0 | 21.0 | 0.00 | 0.00 | 0.00 | 50 | 1017.0 |
| 20260831191829 | 94 | 360 | 8.0 | 21.0 | 0.00 | 0.00 | 0.00 | 50 | 1017.1 |
| 20260831191728 | 94 | 360 | 8.0 | 21.0 | 0.00 | 0.00 | 0.00 | 51 | 1017.1 |
| 20260831191629 | 93 | 360 | 7.0 | 21.0 | 0.00 | 0.00 | 0.00 | 51 | 1017.1 |
| 20260831191530 | 93 | 360 | 10.0 | 21.0 | 0.00 | 0.00 | 0.00 | 50 | 1017.1 |
| 20260831191430 | 94 | 360 | 10.0 | 21.0 | 0.00 | 0.00 | 0.00 | 49 | 1017.1 |
| 20260831191351 | 94 | 360 | 11.0 | 21.0 | 0.00 | 0.00 | 0.00 | 50 | 1017.1 |
| 20260831191230 | 94 | 360 | 8.0 | 20.0 | 0.00 | 0.00 | 0.00 | 50 | 1017.1 |
| 20260831191136 | 94 | 360 | 7.0 | 20.0 | 0.00 | 0.00 | 0.00 | 50 | 1017.1 |
| 20260831191056 | 94 | 360 | 5.0 | 20.0 | 0.00 | 0.00 | 0.00 | 51 | 1017.1 |
| 20260831190934 | 94 | 360 | 4.0 | 20.0 | 0.00 | 0.00 | 0.00 | 51 | 1017.2 |
| 20260831190835 | 94 | 360 | 3.0 | 20.0 | 0.00 | 0.00 | 0.00 | 52 | 1017.2 |
| 20260831190735 | 93 | 360 | 6.0 | 20.0 | 0.00 | 0.00 | 0.00 | 52 | 1017.2 |
| 20260831190634 | 93 | 360 | 10.0 | 20.0 | 0.00 | 0.00 | 0.00 | 52 | 1017.3 |
| 20260831190534 | 93 | 360 | 13.0 | 20.0 | 0.00 | 0.00 | 0.00 | 51 | 1017.3 |
| 20260831190435 | 94 | 360 | 11.0 | 20.0 | 0.00 | 0.00 | 0.00 | 52 | 1017.3 |
| 20260831190339 | 94 | 360 | 7.0 | 13.0 | 0.00 | 0.00 | 0.00 | 52 | 1017.2 |
| 20260831190219 | 94 | 360 | 5.0 | 11.0 | 0.00 | 0.00 | 0.00 | 52 | 1017.3 |
| 20260831190119 | 94 | 360 | 6.0 | 11.0 | 0.00 | 0.00 | 0.00 | 53 | 1017.4 |
| 20260831190040 | 93 | 360 | 6.0 | 11.0 | 0.00 | 0.00 | 0.00 | 53 | 1017.4 |
| 20260831185919 | 93 | 360 | 6.0 | 11.0 | 0.00 | 0.00 | 0.00 | 52 | 1017.3 |
| 20260831185841 | 94 | 360 | 5.0 | 11.0 | 0.00 | 0.00 | 0.00 | 53 | 1017.4 |
| 20260831185719 | 93 | 360 | 4.0 | 10.0 | 0.00 | 0.00 | 0.00 | 53 | 1017.3 |
| 20260831185639 | 93 | 360 | 4.0 | 10.0 | 0.00 | 0.00 | 0.00 | 54 | 1017.4 |
| 20260831185523 | 93 | 360 | 4.0 | 10.0 | 0.00 | 0.00 | 0.00 | 53 | 1017.4 |
| 20260831185423 | 93 | 360 | 4.0 | 10.0 | 0.00 | 0.00 | 0.00 | 53 | 1017.3 |
| 20260831185324 | 93 | 360 | 4.0 | 13.0 | 0.00 | 0.00 | 0.00 | 53 | 1017.4 |
| 20260831185223 | 93 | 360 | 5.0 | 19.0 | 0.00 | 0.00 | 0.00 | 52 | 1017.4 |
| 20260831185144 | 94 | 360 | 6.0 | 19.0 | 0.00 | 0.00 | 0.00 | 52 | 1017.4 |
| 20260831185022 | 94 | 360 | 5.0 | 19.0 | 0.00 | 0.00 | 0.00 | 51 | 1017.4 |
| 20260831184922 | 94 | 360 | 4.0 | 19.0 | 0.00 | 0.00 | 0.00 | 51 | 1017.4 |
| 20260831184828 | 94 | 360 | 3.0 | 19.0 | 0.00 | 0.00 | 0.00 | 52 | 1017.5 |
| 20260831184748 | 93 | 360 | 4.0 | 19.0 | 0.00 | 0.00 | 0.00 | 52 | 1017.5 |
| 20260831184628 | 93 | 360 | 8.0 | 19.0 | 0.00 | 0.00 | 0.00 | 53 | 1017.6 |
| 20260831184529 | 93 | 360 | 12.0 | 19.0 | 0.00 | 0.00 | 0.00 | 52 | 1017.6 |
| 20260831184430 | 94 | 360 | 11.0 | 19.0 | 0.00 | 0.00 | 0.00 | 51 | 1017.6 |
| 20260831184330 | 94 | 360 | 7.0 | 17.0 | 0.00 | 0.00 | 0.00 | 51 | 1017.5 |
| 20260831184231 | 94 | 360 | 4.0 | 17.0 | 0.00 | 0.00 | 0.00 | 51 | 1017.4 |
| 20260831184136 | 94 | 360 | 2.0 | 17.0 | 0.00 | 0.00 | 0.00 | 52 | 1017.6 |
| 20260831184037 | 93 | 360 | 2.0 | 17.0 | 0.00 | 0.00 | 0.00 | 53 | 1017.5 |
| 20260831183956 | 93 | 360 | 4.0 | 17.0 | 0.00 | 0.00 | 0.00 | 54 | 1017.6 |
| 20260831183816 | 92 | 360 | 9.0 | 17.0 | 0.00 | 0.00 | 0.00 | 51 | 1017.6 |
| 20260831183717 | 92 | 360 | 9.0 | 17.0 | 0.00 | 0.00 | 0.00 | 51 | 1017.6 |
| 20260831183618 | 93 | 360 | 9.0 | 17.0 | 0.00 | 0.00 | 0.00 | 51 | 1017.6 |
| 20260831183517 | 93 | 360 | 8.0 | 17.0 | 0.00 | 0.00 | 0.00 | 52 | 1017.6 |
| 20260831183422 | 93 | 360 | 7.0 | 15.0 | 0.00 | 0.00 | 0.00 | 52 | 1017.6 |
| 20260831183322 | 93 | 360 | 7.0 | 15.0 | 0.00 | 0.00 | 0.00 | 52 | 1017.6 |
| 20260831183223 | 93 | 360 | 8.0 | 15.0 | 0.00 | 0.00 | 0.00 | 52 | 1017.6 |
| 20260831183124 | 93 | 360 | 9.0 | 15.0 | 0.00 | 0.00 | 0.00 | 52 | 1017.5 |
| 20260831183045 | 93 | 360 | 8.0 | 15.0 | 0.00 | 0.00 | 0.00 | 52 | 1017.7 |
| 20260831182924 | 93 | 360 | 7.0 | 12.0 | 0.00 | 0.00 | 0.00 | 53 | 1017.6 |
| 20260831182825 | 93 | 360 | 5.0 | 12.0 | 0.00 | 0.00 | 0.00 | 53 | 1017.6 |
| 20260831182729 | 93 | 360 | 3.0 | 12.0 | 0.00 | 0.00 | 0.00 | 53 | 1017.6 |
| 20260831182629 | 93 | 360 | 2.0 | 12.0 | 0.00 | 0.00 | 0.00 | 53 | 1017.7 |
| 20260831182530 | 93 | 360 | 2.0 | 12.0 | 0.00 | 0.00 | 0.00 | 53 | 1017.6 |
| 20260831182430 | 92 | 360 | 2.0 | 12.0 | 0.00 | 0.00 | 0.00 | 54 | 1017.6 |
| 20260831182329 | 92 | 360 | 4.0 | 14.0 | 0.00 | 0.00 | 0.00 | 55 | 1017.6 |
| 20260831182250 | 92 | 360 | 7.0 | 15.0 | 0.00 | 0.00 | 0.00 | 54 | 1017.7 |
| 20260831182130 | 92 | 360 | 7.0 | 15.0 | 0.00 | 0.00 | 0.00 | 56 | 1017.7 |
| 20260831182035 | 92 | 360 | 6.0 | 15.0 | 0.00 | 0.00 | 0.00 | 55 | 1017.7 |
| 20260831181955 | 92 | 360 | 6.0 | 15.0 | 0.00 | 0.00 | 0.00 | 54 | 1017.7 |
| 20260831181855 | 92 | 360 | 5.0 | 15.0 | 0.00 | 0.00 | 0.00 | 55 | 1017.7 |
| 20260831181734 | 92 | 360 | 6.0 | 15.0 | 0.00 | 0.00 | 0.00 | 55 | 1017.7 |
| 20260831181635 | 92 | 360 | 9.0 | 15.0 | 0.00 | 0.00 | 0.00 | 54 | 1017.7 |
| 20260831181556 | 92 | 360 | 10.0 | 15.0 | 0.00 | 0.00 | 0.00 | 53 | 1017.8 |
| 20260831181436 | 92 | 163 | 8.0 | 15.0 | 0.00 | 0.00 | 0.00 | 54 | 1017.7 |
| 20260831181355 | 92 | 360 | 6.0 | 15.0 | 0.00 | 0.00 | 0.00 | 55 | 1017.7 |
| 20260831181219 | 92 | 360 | 6.0 | 11.0 | 0.00 | 0.00 | 0.00 | 55 | 1017.8 |
| 20260831181119 | 93 | 360 | 4.0 | 11.0 | 0.00 | 0.00 | 0.00 | 55 | 1017.8 |
| 20260831181020 | 92 | 360 | 3.0 | 11.0 | 0.00 | 0.00 | 0.00 | 56 | 1017.7 |
| 20260831180920 | 92 | 360 | 3.0 | 12.0 | 0.00 | 0.00 | 0.00 | 56 | 1017.8 |
| 20260831180820 | 92 | 360 | 4.0 | 12.0 | 0.00 | 0.00 | 0.00 | 56 | 1017.8 |
| 20260831180717 | 92 | 360 | 5.0 | 12.0 | 0.00 | 0.00 | 0.00 | 56 | 1017.8 |
| 20260831180617 | 91 | 360 | 5.0 | 14.0 | 0.00 | 0.00 | 0.00 | 55 | 1017.9 |
| 20260831180518 | 92 | 360 | 6.0 | 14.0 | 0.00 | 0.00 | 0.00 | 56 | 1017.9 |
| 20260831180423 | 91 | 360 | 5.0 | 14.0 | 0.00 | 0.00 | 0.00 | 55 | 1017.8 |
| 20260831180323 | 92 | 360 | 4.0 | 14.0 | 0.00 | 0.00 | 0.00 | 55 | 1017.9 |
| 20260831180244 | 91 | 360 | 5.0 | 14.0 | 0.00 | 0.00 | 0.00 | 56 | 1018.0 |
| 20260831180124 | 91 | 360 | 4.0 | 14.0 | 0.00 | 0.00 | 0.00 | 56 | 1017.9 |
| 20260831180024 | 92 | 360 | 5.0 | 14.0 | 0.00 | 0.00 | 0.00 | 56 | 1017.9 |
| 20260831175925 | 92 | 360 | 6.0 | 14.0 | 0.00 | 0.00 | 0.00 | 56 | 1018.0 |
| 20260831175826 | 92 | 360 | 8.0 | 14.0 | 0.00 | 0.00 | 0.00 | 55 | 1017.9 |
| 20260831175730 | 92 | 360 | 6.0 | 15.0 | 0.00 | 0.00 | 0.00 | 55 | 1018.0 |
| 20260831175630 | 92 | 360 | 5.0 | 15.0 | 0.00 | 0.00 | 0.00 | 54 | 1018.0 |
| 20260831175531 | 92 | 360 | 4.0 | 15.0 | 0.00 | 0.00 | 0.00 | 56 | 1018.0 |
| 20260831175452 | 92 | 360 | 6.0 | 15.0 | 0.00 | 0.00 | 0.00 | 56 | 1018.1 |
| 20260831175331 | 92 | 360 | 9.0 | 15.0 | 0.00 | 0.00 | 0.00 | 55 | 1018.1 |
| 20260831175251 | 92 | 360 | 11.0 | 15.0 | 0.00 | 0.00 | 0.00 | 56 | 1018.2 |
| 20260831175131 | 92 | 360 | 11.0 | 15.0 | 0.00 | 0.00 | 0.00 | 55 | 1018.1 |
| 20260831175016 | 92 | 360 | 8.0 | 15.0 | 0.00 | 0.00 | 0.00 | 55 | 1018.1 |
| 20260831174937 | 92 | 360 | 6.0 | 15.0 | 0.00 | 0.00 | 0.00 | 55 | 1018.2 |
| 20260831174836 | 92 | 360 | 3.0 | 15.0 | 0.00 | 0.00 | 0.00 | 56 | 1018.1 |
| 20260831174717 | 92 | 111 | 2.0 | 9.0 | 0.00 | 0.00 | 0.00 | 56 | 1018.1 |
| 20260831174616 | 92 | 82 | 2.0 | 9.0 | 0.00 | 0.00 | 0.00 | 55 | 1018.2 |
| 20260831174518 | 92 | 138 | 3.0 | 9.0 | 0.00 | 0.00 | 0.00 | 56 | 1018.1 |
| 20260831174419 | 92 | 360 | 3.0 | 9.0 | 0.00 | 0.00 | 0.00 | 56 | 1018.2 |
| 20260831174323 | 92 | 360 | 4.0 | 9.0 | 0.00 | 0.00 | 0.00 | 57 | 1018.3 |
| 20260831174224 | 91 | 360 | 5.0 | 9.0 | 0.00 | 0.00 | 0.00 | 58 | 1018.2 |
| 20260831174124 | 91 | 360 | 6.0 | 9.0 | 0.00 | 0.00 | 0.00 | 57 | 1018.2 |
| 20260831174025 | 92 | 360 | 6.0 | 9.0 | 0.00 | 0.00 | 0.00 | 56 | 1018.2 |
| 20260831173927 | 92 | 360 | 5.0 | 11.0 | 0.00 | 0.00 | 0.00 | 57 | 1018.2 |
| 20260831173818 | 92 | 360 | 6.0 | 11.0 | 0.00 | 0.00 | 0.00 | 57 | 1018.3 |
| 20260831173719 | 92 | 360 | 4.0 | 11.0 | 0.00 | 0.00 | 0.00 | 57 | 1018.2 |
| 20260831173623 | 92 | 360 | 3.0 | 14.0 | 0.00 | 0.00 | 0.00 | 57 | 1018.3 |
| 20260831173543 | 91 | 360 | 2.0 | 16.0 | 0.00 | 0.00 | 0.00 | 58 | 1018.2 |
| 20260831173421 | 91 | 360 | 2.0 | 16.0 | 0.00 | 0.00 | 0.00 | 58 | 1018.3 |
| 20260831173321 | 90 | 360 | 3.0 | 16.0 | 0.00 | 0.00 | 0.00 | 58 | 1018.3 |
| 20260831173222 | 90 | 360 | 4.0 | 16.0 | 0.00 | 0.00 | 0.00 | 58 | 1018.3 |
| 20260831173122 | 90 | 360 | 5.0 | 16.0 | 0.00 | 0.00 | 0.00 | 59 | 1018.3 |
| 20260831173023 | 90 | 360 | 7.0 | 16.0 | 0.00 | 0.00 | 0.00 | 59 | 1018.3 |
| 20260831172928 | 90 | 360 | 7.0 | 16.0 | 0.00 | 0.00 | 0.00 | 58 | 1018.4 |
| 20260831172849 | 90 | 360 | 9.0 | 16.0 | 0.00 | 0.00 | 0.00 | 58 | 1018.4 |
| 20260831172728 | 90 | 360 | 7.0 | 16.0 | 0.00 | 0.00 | 0.00 | 59 | 1018.3 |
| 20260831172628 | 90 | 360 | 6.0 | 16.0 | 0.00 | 0.00 | 0.00 | 59 | 1018.4 |
| 20260831172529 | 90 | 360 | 5.0 | 15.0 | 0.00 | 0.00 | 0.00 | 59 | 1018.4 |
| 20260831172449 | 90 | 360 | 7.0 | 15.0 | 0.00 | 0.00 | 0.00 | 58 | 1018.4 |
| 20260831172328 | 90 | 360 | 8.0 | 15.0 | 0.00 | 0.00 | 0.00 | 58 | 1018.4 |
| 20260831172229 | 89 | 360 | 9.0 | 15.0 | 0.00 | 0.00 | 0.00 | 57 | 1018.4 |
| 20260831172134 | 90 | 360 | 9.0 | 18.0 | 0.00 | 0.00 | 0.00 | 57 | 1018.5 |
| 20260831172034 | 90 | 360 | 7.0 | 18.0 | 0.00 | 0.00 | 0.00 | 57 | 1018.4 |
| 20260831171954 | 90 | 360 | 5.0 | 18.0 | 0.00 | 0.00 | 0.00 | 58 | 1018.4 |
| 20260831171834 | 90 | 360 | 5.0 | 18.0 | 0.00 | 0.00 | 0.00 | 58 | 1018.4 |
| 20260831171735 | 90 | 360 | 4.0 | 18.0 | 0.00 | 0.00 | 0.00 | 58 | 1018.5 |
| 20260831171636 | 90 | 360 | 5.0 | 18.0 | 0.00 | 0.00 | 0.00 | 61 | 1018.5 |
| 20260831171556 | 89 | 360 | 6.0 | 18.0 | 0.00 | 0.00 | 0.00 | 60 | 1018.4 |
| 20260831171440 | 89 | 360 | 9.0 | 17.0 | 0.00 | 0.00 | 0.00 | 60 | 1018.5 |
| 20260831171339 | 90 | 360 | 10.0 | 17.0 | 0.00 | 0.00 | 0.00 | 62 | 1018.5 |
| 20260831171219 | 90 | 360 | 7.0 | 16.0 | 0.00 | 0.00 | 0.00 | 61 | 1018.4 |
| 20260831171118 | 89 | 360 | 5.0 | 16.0 | 0.00 | 0.00 | 0.00 | 62 | 1018.5 |
| 20260831171019 | 89 | 360 | 6.0 | 16.0 | 0.00 | 0.00 | 0.00 | 61 | 1018.5 |
| 20260831170918 | 89 | 360 | 10.0 | 16.0 | 0.00 | 0.00 | 0.00 | 62 | 1018.6 |
| 20260831170818 | 89 | 360 | 10.0 | 17.0 | 0.00 | 0.00 | 0.00 | 62 | 1018.5 |
| 20260831170718 | 89 | 360 | 9.0 | 17.0 | 0.00 | 0.00 | 0.00 | 61 | 1018.6 |
| 20260831170624 | 89 | 360 | 7.0 | 17.0 | 0.00 | 0.00 | 0.00 | 61 | 1018.5 |
| 20260831170544 | 89 | 360 | 6.0 | 17.0 | 0.00 | 0.00 | 0.00 | 63 | 1018.6 |
| 20260831170424 | 89 | 360 | 6.0 | 17.0 | 0.00 | 0.00 | 0.00 | 63 | 1018.6 |
| 20260831170324 | 89 | 360 | 9.0 | 17.0 | 0.00 | 0.00 | 0.00 | 63 | 1018.5 |
| 20260831170225 | 89 | 360 | 11.0 | 17.0 | 0.00 | 0.00 | 0.00 | 62 | 1018.6 |
| 20260831170125 | 89 | 360 | 10.0 | 17.0 | 0.00 | 0.00 | 0.00 | 62 | 1018.6 |
| 20260831170027 | 89 | 360 | 7.0 | 17.0 | 0.00 | 0.00 | 0.00 | 63 | 1018.6 |
| 20260831165931 | 89 | 360 | 6.0 | 15.0 | 0.00 | 0.00 | 0.00 | 63 | 1018.5 |
| 20260831165852 | 88 | 360 | 6.0 | 15.0 | 0.00 | 0.00 | 0.00 | 64 | 1018.5 |
| 20260831165730 | 88 | 360 | 6.0 | 15.0 | 0.00 | 0.00 | 0.00 | 63 | 1018.5 |
| 20260831165631 | 88 | 360 | 8.0 | 15.0 | 0.00 | 0.00 | 0.00 | 62 | 1018.6 |
| 20260831165532 | 88 | 360 | 9.0 | 15.0 | 0.00 | 0.00 | 0.00 | 62 | 1018.5 |
| 20260831165433 | 88 | 360 | 10.0 | 15.0 | 0.00 | 0.00 | 0.00 | 62 | 1018.5 |
| 20260831165317 | 89 | 360 | 11.0 | 15.0 | 0.00 | 0.00 | 0.00 | 62 | 1018.5 |
| 20260831165238 | 89 | 360 | 11.0 | 15.0 | 0.00 | 0.00 | 0.00 | 62 | 1018.5 |
| 20260831165117 | 89 | 360 | 10.0 | 15.0 | 0.00 | 0.00 | 0.00 | 61 | 1018.5 |
| 20260831165017 | 89 | 360 | 8.0 | 13.0 | 0.00 | 0.00 | 0.00 | 63 | 1018.4 |
| 20260831164937 | 89 | 360 | 8.0 | 13.0 | 0.00 | 0.00 | 0.00 | 63 | 1018.6 |
| 20260831164817 | 89 | 360 | 9.0 | 13.0 | 0.00 | 0.00 | 0.00 | 63 | 1018.6 |
| 20260831164717 | 88 | 162 | 6.0 | 12.0 | 0.00 | 0.00 | 0.00 | 64 | 1018.6 |
| 20260831164618 | 88 | 131 | 4.0 | 12.0 | 0.00 | 0.00 | 0.00 | 65 | 1018.6 |
| 20260831164523 | 88 | 360 | 3.0 | 12.0 | 0.00 | 0.00 | 0.00 | 65 | 1018.6 |
| 20260831164422 | 88 | 360 | 6.0 | 12.0 | 0.00 | 0.00 | 0.00 | 65 | 1018.6 |
| 20260831164323 | 88 | 360 | 7.0 | 12.0 | 0.00 | 0.00 | 0.00 | 65 | 1018.6 |
| 20260831164224 | 88 | 360 | 8.0 | 12.0 | 0.00 | 0.00 | 0.00 | 65 | 1018.6 |
| 20260831164123 | 88 | 360 | 8.0 | 12.0 | 0.00 | 0.00 | 0.00 | 65 | 1018.6 |
| 20260831164023 | 88 | 360 | 8.0 | 12.0 | 0.00 | 0.00 | 0.00 | 65 | 1018.6 |
| 20260831163923 | 88 | 360 | 7.0 | 11.0 | 0.00 | 0.00 | 0.00 | 66 | 1018.6 |
| 20260831163827 | 88 | 360 | 7.0 | 11.0 | 0.00 | 0.00 | 0.00 | 66 | 1018.6 |
| 20260831163728 | 88 | 360 | 6.0 | 11.0 | 0.00 | 0.00 | 0.00 | 66 | 1018.6 |
| 20260831163629 | 88 | 360 | 6.0 | 11.0 | 0.00 | 0.00 | 0.00 | 66 | 1018.7 |
| 20260831163550 | 88 | 360 | 6.0 | 11.0 | 0.00 | 0.00 | 0.00 | 66 | 1018.6 |
| 20260831163430 | 88 | 360 | 5.0 | 10.0 | 0.00 | 0.00 | 0.00 | 65 | 1018.6 |
| 20260831163331 | 88 | 360 | 6.0 | 10.0 | 0.00 | 0.00 | 0.00 | 65 | 1018.6 |
| 20260831163231 | 88 | 360 | 6.0 | 10.0 | 0.00 | 0.00 | 0.00 | 65 | 1018.5 |
| 20260831163136 | 88 | 161 | 6.0 | 10.0 | 0.00 | 0.00 | 0.00 | 64 | 1018.6 |
| 20260831163056 | 88 | 360 | 6.0 | 15.0 | 0.00 | 0.00 | 0.00 | 65 | 1018.6 |
| 20260831162954 | 88 | 360 | 4.0 | 15.0 | 0.00 | 0.00 | 0.00 | 65 | 1018.6 |
| 20260831162834 | 88 | 360 | 3.0 | 15.0 | 0.00 | 0.00 | 0.00 | 65 | 1018.6 |
| 20260831162734 | 88 | 360 | 3.0 | 15.0 | 0.00 | 0.00 | 0.00 | 65 | 1018.6 |
| 20260831162635 | 88 | 360 | 5.0 | 15.0 | 0.00 | 0.00 | 0.00 | 65 | 1018.6 |
| 20260831162556 | 88 | 360 | 5.0 | 15.0 | 0.00 | 0.00 | 0.00 | 66 | 1018.7 |
| 20260831162434 | 88 | 360 | 4.0 | 15.0 | 0.00 | 0.00 | 0.00 | 66 | 1018.7 |
| 20260831162318 | 88 | 360 | 4.0 | 15.0 | 0.00 | 0.00 | 0.00 | 66 | 1018.7 |
| 20260831162218 | 87 | 360 | 6.0 | 15.0 | 0.00 | 0.00 | 0.00 | 68 | 1018.6 |
| 20260831162120 | 87 | 360 | 8.0 | 15.0 | 0.00 | 0.00 | 0.00 | 67 | 1018.7 |
| 20260831162020 | 88 | 360 | 7.0 | 11.0 | 0.00 | 0.00 | 0.00 | 66 | 1018.6 |
| 20260831161919 | 88 | 360 | 6.0 | 14.0 | 0.00 | 0.00 | 0.00 | 67 | 1018.6 |
| 20260831161820 | 88 | 360 | 6.0 | 14.0 | 0.00 | 0.00 | 0.00 | 67 | 1018.6 |
| 20260831161721 | 88 | 360 | 6.0 | 14.0 | 0.00 | 0.00 | 0.00 | 67 | 1018.6 |
| 20260831161625 | 88 | 360 | 6.0 | 14.0 | 0.00 | 0.00 | 0.00 | 66 | 1018.5 |
| 20260831161526 | 87 | 213 | 6.0 | 14.0 | 0.00 | 0.00 | 0.00 | 66 | 1018.5 |
| 20260831161426 | 88 | 360 | 4.0 | 14.0 | 0.00 | 0.00 | 0.00 | 65 | 1018.6 |
| 20260831161327 | 88 | 360 | 4.0 | 14.0 | 0.00 | 0.00 | 0.00 | 66 | 1018.5 |
| 20260831161227 | 88 | 360 | 5.0 | 14.0 | 0.00 | 0.00 | 0.00 | 66 | 1018.4 |
| 20260831161127 | 87 | 360 | 7.0 | 14.0 | 0.00 | 0.00 | 0.00 | 66 | 1018.5 |
| 20260831161032 | 88 | 360 | 7.0 | 14.0 | 0.00 | 0.00 | 0.00 | 66 | 1018.5 |
| 20260831160932 | 88 | 360 | 5.0 | 14.0 | 0.00 | 0.00 | 0.00 | 66 | 1018.6 |
| 20260831160832 | 88 | 360 | 3.0 | 13.0 | 0.00 | 0.00 | 0.00 | 67 | 1018.4 |
| 20260831160733 | 87 | 360 | 4.0 | 13.0 | 0.00 | 0.00 | 0.00 | 67 | 1018.5 |
| 20260831160632 | 87 | 360 | 6.0 | 13.0 | 0.00 | 0.00 | 0.00 | 68 | 1018.5 |
| 20260831160532 | 87 | 360 | 8.0 | 13.0 | 0.00 | 0.00 | 0.00 | 67 | 1018.5 |
| 20260831160432 | 87 | 360 | 7.0 | 13.0 | 0.00 | 0.00 | 0.00 | 67 | 1018.5 |
| 20260831160338 | 86 | 360 | 7.0 | 13.0 | 0.00 | 0.00 | 0.00 | 69 | 1018.5 |
| 20260831160218 | 86 | 360 | 8.0 | 13.0 | 0.00 | 0.00 | 0.00 | 69 | 1018.5 |
| 20260831160139 | 86 | 360 | 9.0 | 13.0 | 0.00 | 0.00 | 0.00 | 68 | 1018.6 |
| 20260831160019 | 86 | 360 | 9.0 | 13.0 | 0.00 | 0.00 | 0.00 | 68 | 1018.6 |
| 20260831155918 | 86 | 360 | 9.0 | 13.0 | 0.00 | 0.00 | 0.00 | 68 | 1018.6 |
| 20260831155820 | 86 | 360 | 8.0 | 13.0 | 0.00 | 0.00 | 0.00 | 69 | 1018.6 |
| 20260831155719 | 86 | 360 | 7.0 | 11.0 | 0.00 | 0.00 | 0.00 | 71 | 1018.6 |
| 20260831155624 | 86 | 360 | 5.0 | 10.0 | 0.00 | 0.00 | 0.00 | 71 | 1018.6 |
| 20260831155524 | 86 | 360 | 4.0 | 8.0 | 0.00 | 0.00 | 0.00 | 71 | 1018.6 |
| 20260831155424 | 86 | 360 | 4.0 | 6.0 | 0.00 | 0.00 | 0.00 | 72 | 1018.5 |
| 20260831155345 | 86 | 360 | 3.0 | 8.0 | 0.00 | 0.00 | 0.00 | 71 | 1018.6 |
| 20260831155224 | 86 | 360 | 2.0 | 8.0 | 0.00 | 0.00 | 0.00 | 72 | 1018.6 |
| 20260831155125 | 86 | 360 | 2.0 | 9.0 | 0.00 | 0.00 | 0.00 | 72 | 1018.6 |
| 20260831155026 | 86 | 360 | 1.0 | 11.0 | 0.00 | 0.00 | 0.00 | 72 | 1018.6 |
| 20260831154946 | 86 | 360 | 1.0 | 12.0 | 0.00 | 0.00 | 0.00 | 72 | 1018.6 |
| 20260831154849 | 86 | 360 | 2.0 | 12.0 | 0.00 | 0.00 | 0.00 | 72 | 1018.7 |
| 20260831154749 | 85 | 360 | 3.0 | 12.0 | 0.00 | 0.00 | 0.00 | 73 | 1018.6 |
| 20260831154630 | 85 | 360 | 4.0 | 12.0 | 0.00 | 0.00 | 0.00 | 73 | 1018.7 |
| 20260831154529 | 85 | 360 | 5.0 | 12.0 | 0.00 | 0.00 | 0.00 | 73 | 1018.6 |
| 20260831154430 | 85 | 360 | 6.0 | 12.0 | 0.00 | 0.00 | 0.00 | 72 | 1018.6 |
| 20260831154330 | 85 | 360 | 7.0 | 12.0 | 0.00 | 0.00 | 0.00 | 72 | 1018.6 |
| 20260831154231 | 86 | 360 | 6.0 | 12.0 | 0.00 | 0.00 | 0.00 | 72 | 1018.6 |
| 20260831154152 | 86 | 360 | 5.0 | 12.0 | 0.00 | 0.00 | 0.00 | 71 | 1018.6 |
| 20260831154036 | 86 | 360 | 5.0 | 12.0 | 0.00 | 0.00 | 0.00 | 72 | 1018.6 |
| 20260831153935 | 85 | 360 | 5.0 | 12.0 | 0.00 | 0.00 | 0.00 | 72 | 1018.5 |
| 20260831153856 | 85 | 360 | 6.0 | 12.0 | 0.00 | 0.00 | 0.00 | 73 | 1018.6 |
| 20260831153716 | 85 | 360 | 7.0 | 14.0 | 0.00 | 0.00 | 0.00 | 73 | 1018.6 |
| 20260831153617 | 85 | 360 | 7.0 | 17.0 | 0.00 | 0.00 | 0.00 | 73 | 1018.5 |
| 20260831153517 | 85 | 360 | 7.0 | 17.0 | 0.00 | 0.00 | 0.00 | 73 | 1018.5 |
| 20260831153418 | 84 | 360 | 7.0 | 17.0 | 0.00 | 0.00 | 0.00 | 73 | 1018.5 |
| 20260831153322 | 84 | 360 | 8.0 | 17.0 | 0.00 | 0.00 | 0.00 | 73 | 1018.4 |
| 20260831153222 | 84 | 360 | 8.0 | 17.0 | 0.00 | 0.00 | 0.00 | 73 | 1018.5 |
| 20260831153122 | 84 | 360 | 9.0 | 17.0 | 0.00 | 0.00 | 0.00 | 73 | 1018.4 |
| 20260831153023 | 84 | 360 | 10.0 | 17.0 | 0.00 | 0.00 | 0.00 | 72 | 1018.4 |
| 20260831152924 | 85 | 360 | 11.0 | 17.0 | 0.00 | 0.00 | 0.00 | 71 | 1018.4 |
| 20260831152826 | 85 | 360 | 10.0 | 16.0 | 0.00 | 0.00 | 0.00 | 71 | 1018.3 |
| 20260831152729 | 86 | 360 | 10.0 | 16.0 | 0.00 | 0.00 | 0.00 | 70 | 1018.3 |
| 20260831152649 | 86 | 140 | 7.0 | 14.0 | 0.00 | 0.00 | 0.00 | 71 | 1018.3 |
| 20260831152528 | 86 | 360 | 6.0 | 14.0 | 0.00 | 0.00 | 0.00 | 71 | 1018.4 |
| 20260831152447 | 86 | 360 | 4.0 | 14.0 | 0.00 | 0.00 | 0.00 | 73 | 1018.4 |
| 20260831152326 | 86 | 180 | 4.0 | 10.0 | 0.00 | 0.00 | 0.00 | 73 | 1018.4 |
| 20260831152226 | 86 | 360 | 3.0 | 10.0 | 0.00 | 0.00 | 0.00 | 73 | 1018.4 |
| 20260831152126 | 86 | 360 | 4.0 | 10.0 | 0.00 | 0.00 | 0.00 | 74 | 1018.4 |
| 20260831152026 | 86 | 360 | 4.0 | 10.0 | 0.00 | 0.00 | 0.00 | 74 | 1018.4 |
| 20260831151931 | 85 | 360 | 4.0 | 11.0 | 0.00 | 0.00 | 0.00 | 74 | 1018.3 |
| 20260831151851 | 85 | 360 | 4.0 | 12.0 | 0.00 | 0.00 | 0.00 | 75 | 1018.4 |
| 20260831151729 | 85 | 360 | 4.0 | 12.0 | 0.00 | 0.00 | 0.00 | 75 | 1018.4 |
| 20260831151629 | 84 | 360 | 4.0 | 12.0 | 0.00 | 0.00 | 0.00 | 75 | 1018.4 |
| 20260831151529 | 84 | 360 | 4.0 | 12.0 | 0.00 | 0.00 | 0.00 | 75 | 1018.3 |
| 20260831151449 | 84 | 360 | 4.0 | 12.0 | 0.00 | 0.00 | 0.00 | 76 | 1018.2 |
| 20260831151348 | 84 | 360 | 5.0 | 14.0 | 0.00 | 0.00 | 0.00 | 76 | 1018.2 |
| 20260831151228 | 84 | 360 | 5.0 | 14.0 | 0.00 | 0.00 | 0.00 | 77 | 1018.3 |
| 20260831151127 | 84 | 360 | 4.0 | 14.0 | 0.00 | 0.00 | 0.00 | 78 | 1018.3 |
| 20260831151026 | 83 | 360 | 4.0 | 14.0 | 0.00 | 0.00 | 0.00 | 78 | 1018.2 |
| 20260831150952 | 83 | 360 | 3.0 | 14.0 | 0.00 | 0.00 | 0.00 | 78 | 1018.2 |
| 20260831150830 | 83 | 360 | 5.0 | 14.0 | 0.00 | 0.00 | 0.00 | 78 | 1018.2 |
| 20260831150731 | 83 | 360 | 7.0 | 14.0 | 0.00 | 0.00 | 0.00 | 78 | 1018.2 |
| 20260831150632 | 82 | 360 | 7.0 | 14.0 | 0.00 | 0.00 | 0.00 | 78 | 1018.2 |
| 20260831150553 | 82 | 360 | 6.0 | 14.0 | 0.00 | 0.00 | 0.00 | 79 | 1018.3 |
| 20260831150452 | 82 | 360 | 6.0 | 13.0 | 0.00 | 0.00 | 0.00 | 79 | 1018.3 |
| 20260831150332 | 82 | 360 | 7.0 | 11.0 | 0.00 | 0.00 | 0.00 | 79 | 1018.2 |
| 20260831150232 | 82 | 360 | 7.0 | 11.0 | 0.00 | 0.00 | 0.00 | 79 | 1018.2 |
| 20260831150116 | 82 | 360 | 5.0 | 11.0 | 0.00 | 0.00 | 0.00 | 79 | 1018.2 |
| 20260831150017 | 82 | 360 | 4.0 | 11.0 | 0.00 | 0.00 | 0.00 | 79 | 1018.2 |
| 20260831145918 | 82 | 360 | 4.0 | 11.0 | 0.00 | 0.00 | 0.00 | 80 | 1018.2 |
| 20260831145818 | 82 | 360 | 4.0 | 11.0 | 0.00 | 0.00 | 0.00 | 80 | 1018.2 |
| 20260831145717 | 82 | 360 | 4.0 | 11.0 | 0.00 | 0.00 | 0.00 | 80 | 1018.2 |
| 20260831145617 | 82 | 360 | 4.0 | 11.0 | 0.00 | 0.00 | 0.00 | 80 | 1018.2 |
| 20260831145522 | 82 | 360 | 4.0 | 11.0 | 0.00 | 0.00 | 0.00 | 80 | 1018.2 |
| 20260831145423 | 82 | 360 | 4.0 | 12.0 | 0.00 | 0.00 | 0.00 | 80 | 1018.2 |
| 20260831145325 | 82 | 360 | 5.0 | 12.0 | 0.00 | 0.00 | 0.00 | 80 | 1018.2 |
| 20260831145224 | 82 | 360 | 4.0 | 12.0 | 0.00 | 0.00 | 0.00 | 80 | 1018.1 |
| 20260831145125 | 82 | 360 | 3.0 | 12.0 | 0.00 | 0.00 | 0.00 | 80 | 1018.2 |
| 20260831145046 | 82 | 360 | 3.0 | 12.0 | 0.00 | 0.00 | 0.00 | 80 | 1018.2 |
| 20260831144926 | 81 | 360 | 4.0 | 12.0 | 0.00 | 0.00 | 0.00 | 80 | 1018.2 |
| 20260831144826 | 81 | 360 | 5.0 | 13.0 | 0.00 | 0.00 | 0.00 | 80 | 1018.2 |
| 20260831144731 | 81 | 360 | 6.0 | 13.0 | 0.00 | 0.00 | 0.00 | 80 | 1018.2 |
| 20260831144650 | 82 | 360 | 6.0 | 13.0 | 0.00 | 0.00 | 0.00 | 80 | 1018.2 |
| 20260831144529 | 82 | 360 | 5.0 | 13.0 | 0.00 | 0.00 | 0.00 | 80 | 1018.1 |
| 20260831144430 | 82 | 360 | 4.0 | 14.0 | 0.00 | 0.00 | 0.00 | 80 | 1018.2 |
| 20260831144330 | 82 | 360 | 5.0 | 14.0 | 0.00 | 0.00 | 0.00 | 80 | 1018.2 |
| 20260831144231 | 82 | 360 | 6.0 | 14.0 | 0.00 | 0.00 | 0.00 | 80 | 1018.2 |
| 20260831144131 | 82 | 360 | 6.0 | 14.0 | 0.00 | 0.00 | 0.00 | 80 | 1018.1 |
| 20260831144035 | 82 | 360 | 5.0 | 14.0 | 0.00 | 0.00 | 0.00 | 79 | 1018.1 |
| 20260831143916 | 82 | 360 | 5.0 | 14.0 | 0.00 | 0.00 | 0.00 | 80 | 1018.1 |
| 20260831143817 | 82 | 360 | 5.0 | 14.0 | 0.00 | 0.00 | 0.00 | 80 | 1018.1 |
| 20260831143717 | 82 | 360 | 6.0 | 14.0 | 0.00 | 0.00 | 0.00 | 80 | 1018.1 |
| 20260831143617 | 82 | 360 | 6.0 | 12.0 | 0.00 | 0.00 | 0.00 | 80 | 1018.1 |
| 20260831143518 | 82 | 360 | 6.0 | 12.0 | 0.00 | 0.00 | 0.00 | 80 | 1018.1 |
| 20260831143423 | 82 | 360 | 5.0 | 12.0 | 0.00 | 0.00 | 0.00 | 81 | 1018.0 |
| 20260831143323 | 82 | 360 | 7.0 | 12.0 | 0.00 | 0.00 | 0.00 | 81 | 1018.1 |
| 20260831143223 | 82 | 360 | 7.0 | 12.0 | 0.00 | 0.00 | 0.00 | 80 | 1018.1 |
| 20260831143124 | 82 | 360 | 7.0 | 12.0 | 0.00 | 0.00 | 0.00 | 80 | 1018.0 |
| 20260831143025 | 82 | 360 | 5.0 | 12.0 | 0.00 | 0.00 | 0.00 | 80 | 1018.1 |
| 20260831142926 | 82 | 360 | 3.0 | 13.0 | 0.00 | 0.00 | 0.00 | 80 | 1018.0 |
| 20260831142832 | 82 | 360 | 3.0 | 13.0 | 0.00 | 0.00 | 0.00 | 80 | 1018.1 |
| 20260831142730 | 82 | 360 | 4.0 | 13.0 | 0.00 | 0.00 | 0.00 | 80 | 1018.0 |
| 20260831142632 | 82 | 360 | 5.0 | 13.0 | 0.00 | 0.00 | 0.00 | 80 | 1018.0 |
| 20260831142552 | 82 | 360 | 5.0 | 13.0 | 0.00 | 0.00 | 0.00 | 80 | 1017.9 |
| 20260831142432 | 82 | 360 | 5.0 | 13.0 | 0.00 | 0.00 | 0.00 | 81 | 1017.9 |
| 20260831142333 | 82 | 360 | 5.0 | 13.0 | 0.00 | 0.00 | 0.00 | 81 | 1017.9 |
| 20260831142232 | 82 | 360 | 5.0 | 13.0 | 0.00 | 0.00 | 0.00 | 81 | 1017.9 |
| 20260831142117 | 82 | 360 | 5.0 | 13.0 | 0.00 | 0.00 | 0.00 | 81 | 1017.9 |
| 20260831142017 | 82 | 360 | 6.0 | 13.0 | 0.00 | 0.00 | 0.00 | 81 | 1017.9 |
| 20260831141917 | 82 | 360 | 7.0 | 13.0 | 0.00 | 0.00 | 0.00 | 81 | 1017.9 |
| 20260831141816 | 82 | 360 | 7.0 | 13.0 | 0.00 | 0.00 | 0.00 | 80 | 1017.9 |
| 20260831141737 | 82 | 360 | 5.0 | 13.0 | 0.00 | 0.00 | 0.00 | 81 | 1017.8 |
| 20260831141617 | 82 | 360 | 3.0 | 13.0 | 0.00 | 0.00 | 0.00 | 81 | 1017.8 |
| 20260831141517 | 82 | 360 | 3.0 | 13.0 | 0.00 | 0.00 | 0.00 | 81 | 1017.9 |
| 20260831141438 | 82 | 360 | 4.0 | 13.0 | 0.00 | 0.00 | 0.00 | 81 | 1017.9 |
| 20260831141321 | 82 | 360 | 4.0 | 13.0 | 0.00 | 0.00 | 0.00 | 82 | 1017.9 |
| 20260831141221 | 82 | 360 | 3.0 | 13.0 | 0.00 | 0.00 | 0.00 | 82 | 1017.8 |
| 20260831141122 | 81 | 360 | 3.0 | 11.0 | 0.00 | 0.00 | 0.00 | 82 | 1017.9 |
| 20260831141021 | 81 | 360 | 3.0 | 10.0 | 0.00 | 0.00 | 0.00 | 82 | 1017.9 |
| 20260831140922 | 81 | 360 | 4.0 | 10.0 | 0.00 | 0.00 | 0.00 | 83 | 1017.9 |
| 20260831140822 | 81 | 360 | 4.0 | 10.0 | 0.00 | 0.00 | 0.00 | 83 | 1017.9 |
| 20260831140742 | 81 | 360 | 3.0 | 9.0 | 0.00 | 0.00 | 0.00 | 84 | 1017.8 |
| 20260831140626 | 81 | 360 | 4.0 | 9.0 | 0.00 | 0.00 | 0.00 | 83 | 1017.8 |
| 20260831140527 | 81 | 360 | 3.0 | 9.0 | 0.00 | 0.00 | 0.00 | 83 | 1017.8 |
| 20260831140426 | 81 | 360 | 3.0 | 9.0 | 0.00 | 0.00 | 0.00 | 84 | 1017.7 |
| 20260831140326 | 81 | 360 | 2.0 | 8.0 | 0.00 | 0.00 | 0.00 | 84 | 1017.8 |
| 20260831140227 | 81 | 360 | 2.0 | 8.0 | 0.00 | 0.00 | 0.00 | 84 | 1017.8 |
| 20260831140148 | 81 | 360 | 2.0 | 8.0 | 0.00 | 0.00 | 0.00 | 84 | 1017.7 |
| 20260831140028 | 81 | 360 | 2.0 | 8.0 | 0.00 | 0.00 | 0.00 | 84 | 1017.7 |
| 20260831135929 | 81 | 360 | 3.0 | 9.0 | 0.00 | 0.00 | 0.00 | 84 | 1017.8 |
| 20260831135835 | 81 | 360 | 3.0 | 9.0 | 0.00 | 0.00 | 0.00 | 85 | 1017.7 |
| 20260831135735 | 81 | 360 | 2.0 | 9.0 | 0.00 | 0.00 | 0.00 | 85 | 1017.7 |
| 20260831135616 | 81 | 360 | 3.0 | 9.0 | 0.00 | 0.00 | 0.00 | 85 | 1017.6 |
| 20260831135515 | 81 | 360 | 4.0 | 9.0 | 0.00 | 0.00 | 0.00 | 85 | 1017.7 |
| 20260831135416 | 80 | 360 | 4.0 | 10.0 | 0.00 | 0.00 | 0.00 | 86 | 1017.6 |
| 20260831135317 | 80 | 360 | 4.0 | 10.0 | 0.00 | 0.00 | 0.00 | 86 | 1017.6 |
| 20260831135222 | 80 | 360 | 4.0 | 11.0 | 0.00 | 0.00 | 0.00 | 86 | 1017.6 |
| 20260831135122 | 80 | 360 | 4.0 | 11.0 | 0.00 | 0.00 | 0.00 | 86 | 1017.7 |
| 20260831134943 | 80 | 360 | 4.0 | 11.0 | 0.00 | 0.00 | 0.00 | 86 | 1017.6 |
| 20260831134822 | 80 | 360 | 4.0 | 11.0 | 0.00 | 0.00 | 0.00 | 86 | 1017.6 |
| 20260831134723 | 80 | 360 | 4.0 | 11.0 | 0.00 | 0.00 | 0.00 | 86 | 1017.7 |
| 20260831134623 | 80 | 360 | 5.0 | 11.0 | 0.00 | 0.00 | 0.00 | 86 | 1017.7 |
| 20260831134528 | 80 | 360 | 5.0 | 11.0 | 0.00 | 0.00 | 0.00 | 86 | 1017.7 |
| 20260831134428 | 80 | 360 | 4.0 | 11.0 | 0.00 | 0.00 | 0.00 | 87 | 1017.7 |
| 20260831134349 | 80 | 360 | 3.0 | 8.0 | 0.00 | 0.00 | 0.00 | 87 | 1017.5 |
| 20260831134228 | 80 | 360 | 2.0 | 8.0 | 0.00 | 0.00 | 0.00 | 87 | 1017.6 |
| 20260831134149 | 80 | 360 | 2.0 | 8.0 | 0.00 | 0.00 | 0.00 | 88 | 1017.6 |
| 20260831134028 | 80 | 360 | 3.0 | 8.0 | 0.00 | 0.00 | 0.00 | 87 | 1017.6 |
| 20260831133929 | 79 | 198 | 4.0 | 8.0 | 0.00 | 0.00 | 0.00 | 87 | 1017.5 |
| 20260831133829 | 79 | 360 | 5.0 | 8.0 | 0.00 | 0.00 | 0.00 | 88 | 1017.5 |
| 20260831133755 | 79 | 360 | 4.0 | 8.0 | 0.00 | 0.00 | 0.00 | 88 | 1017.6 |
| 20260831133635 | 79 | 360 | 3.0 | 8.0 | 0.00 | 0.00 | 0.00 | 88 | 1017.5 |
| 20260831133554 | 79 | 360 | 2.0 | 6.0 | 0.00 | 0.00 | 0.00 | 88 | 1017.5 |
| 20260831133435 | 79 | 360 | 1.0 | 6.0 | 0.00 | 0.00 | 0.00 | 89 | 1017.5 |
| 20260831133356 | 79 | 360 | 2.0 | 6.0 | 0.00 | 0.00 | 0.00 | 89 | 1017.5 |
| 20260831133215 | 79 | 360 | 3.0 | 6.0 | 0.00 | 0.00 | 0.00 | 89 | 1017.5 |
| 20260831133116 | 79 | 360 | 3.0 | 8.0 | 0.00 | 0.00 | 0.00 | 89 | 1017.5 |
| 20260831133022 | 79 | 360 | 4.0 | 9.0 | 0.00 | 0.00 | 0.00 | 89 | 1017.5 |
| 20260831132921 | 79 | 360 | 4.0 | 9.0 | 0.00 | 0.00 | 0.00 | 89 | 1017.4 |
| 20260831132824 | 79 | 360 | 4.0 | 9.0 | 0.00 | 0.00 | 0.00 | 89 | 1017.4 |
| 20260831132724 | 79 | 360 | 3.0 | 9.0 | 0.00 | 0.00 | 0.00 | 89 | 1017.5 |
| 20260831132624 | 79 | 360 | 2.0 | 9.0 | 0.00 | 0.00 | 0.00 | 89 | 1017.4 |
| 20260831132525 | 79 | 360 | 3.0 | 9.0 | 0.00 | 0.00 | 0.00 | 89 | 1017.5 |
| 20260831132426 | 78 | 360 | 4.0 | 9.0 | 0.00 | 0.00 | 0.00 | 89 | 1017.5 |
| 20260831132350 | 78 | 360 | 4.0 | 9.0 | 0.00 | 0.00 | 0.00 | 89 | 1017.5 |
| 20260831132230 | 78 | 360 | 4.0 | 9.0 | 0.00 | 0.00 | 0.00 | 90 | 1017.5 |
| 20260831132131 | 78 | 360 | 4.0 | 9.0 | 0.00 | 0.00 | 0.00 | 89 | 1017.5 |
| 20260831132031 | 78 | 360 | 5.0 | 9.0 | 0.00 | 0.00 | 0.00 | 89 | 1017.5 |
| 20260831131951 | 78 | 360 | 5.0 | 9.0 | 0.00 | 0.00 | 0.00 | 90 | 1017.5 |
| 20260831131832 | 78 | 360 | 5.0 | 9.0 | 0.00 | 0.00 | 0.00 | 90 | 1017.5 |
| 20260831131732 | 78 | 360 | 6.0 | 9.0 | 0.00 | 0.00 | 0.00 | 90 | 1017.4 |
| 20260831131616 | 78 | 360 | 4.0 | 9.0 | 0.00 | 0.00 | 0.00 | 90 | 1017.4 |
| 20260831131518 | 78 | 360 | 4.0 | 8.0 | 0.00 | 0.00 | 0.00 | 90 | 1017.5 |
| 20260831131419 | 78 | 360 | 4.0 | 8.0 | 0.00 | 0.00 | 0.00 | 90 | 1017.4 |
| 20260831131320 | 78 | 360 | 4.0 | 8.0 | 0.00 | 0.00 | 0.00 | 90 | 1017.4 |
| 20260831131220 | 78 | 360 | 3.0 | 6.0 | 0.00 | 0.00 | 0.00 | 90 | 1017.5 |
| 20260831131120 | 78 | 360 | 3.0 | 8.0 | 0.00 | 0.00 | 0.00 | 90 | 1017.5 |
| 20260831131025 | 78 | 360 | 3.0 | 8.0 | 0.00 | 0.00 | 0.00 | 90 | 1017.4 |
| 20260831130927 | 78 | 360 | 4.0 | 8.0 | 0.00 | 0.00 | 0.00 | 90 | 1017.4 |
| 20260831130827 | 78 | 360 | 4.0 | 8.0 | 0.00 | 0.00 | 0.00 | 90 | 1017.4 |
| 20260831130728 | 78 | 360 | 4.0 | 8.0 | 0.00 | 0.00 | 0.00 | 90 | 1017.3 |
| 20260831130629 | 78 | 360 | 3.0 | 8.0 | 0.00 | 0.00 | 0.00 | 90 | 1017.4 |
| 20260831130528 | 78 | 360 | 3.0 | 8.0 | 0.00 | 0.00 | 0.00 | 90 | 1017.3 |
| 20260831130429 | 78 | 360 | 3.0 | 8.0 | 0.00 | 0.00 | 0.00 | 90 | 1017.3 |
| 20260831130353 | 78 | 360 | 3.0 | 8.0 | 0.00 | 0.00 | 0.00 | 90 | 1017.3 |
| 20260831130232 | 78 | 360 | 2.0 | 8.0 | 0.00 | 0.00 | 0.00 | 90 | 1017.3 |
| 20260831130133 | 77 | 360 | 1.0 | 6.0 | 0.00 | 0.00 | 0.00 | 90 | 1017.3 |
| 20260831130033 | 77 | 360 | 1.0 | 6.0 | 0.00 | 0.00 | 0.00 | 90 | 1017.2 |
| 20260831125933 | 77 | 360 | 2.0 | 6.0 | 0.00 | 0.00 | 0.00 | 90 | 1017.3 |
| 20260831125835 | 77 | 360 | 2.0 | 6.0 | 0.00 | 0.00 | 0.00 | 90 | 1017.3 |
| 20260831125719 | 77 | 360 | 3.0 | 6.0 | 0.00 | 0.00 | 0.00 | 90 | 1017.3 |
| 20260831125617 | 77 | 360 | 2.0 | 6.0 | 0.00 | 0.00 | 0.00 | 90 | 1017.3 |
| 20260831125517 | 77 | 360 | 2.0 | 6.0 | 0.00 | 0.00 | 0.00 | 91 | 1017.2 |
| 20260831125418 | 77 | 360 | 2.0 | 5.0 | 0.00 | 0.00 | 0.00 | 91 | 1017.1 |
| 20260831125318 | 77 | 360 | 3.0 | 5.0 | 0.00 | 0.00 | 0.00 | 90 | 1017.2 |
| 20260831125219 | 77 | 360 | 3.0 | 5.0 | 0.00 | 0.00 | 0.00 | 91 | 1017.1 |
| 20260831125119 | 77 | 360 | 3.0 | 5.0 | 0.00 | 0.00 | 0.00 | 91 | 1017.1 |
| 20260831125024 | 77 | 360 | 2.0 | 5.0 | 0.00 | 0.00 | 0.00 | 91 | 1017.1 |
| 20260831124925 | 77 | 360 | 1.0 | 5.0 | 0.00 | 0.00 | 0.00 | 91 | 1017.1 |
| 20260831124826 | 77 | 360 | 1.0 | 5.0 | 0.00 | 0.00 | 0.00 | 91 | 1017.2 |
| 20260831124728 | 77 | 360 | 1.0 | 5.0 | 0.00 | 0.00 | 0.00 | 91 | 1017.1 |
| 20260831124629 | 77 | 360 | 2.0 | 5.0 | 0.00 | 0.00 | 0.00 | 91 | 1017.1 |
| 20260831124530 | 77 | 360 | 2.0 | 4.0 | 0.00 | 0.00 | 0.00 | 91 | 1017.1 |
| 20260831124450 | 77 | 360 | 2.0 | 4.0 | 0.00 | 0.00 | 0.00 | 91 | 1017.1 |
| 20260831124334 | 77 | 360 | 2.0 | 4.0 | 0.00 | 0.00 | 0.00 | 91 | 1017.1 |
| 20260831124254 | 77 | 360 | 1.0 | 4.0 | 0.00 | 0.00 | 0.00 | 91 | 1017.1 |
| 20260831124134 | 77 | 360 | 2.0 | 4.0 | 0.00 | 0.00 | 0.00 | 91 | 1017.1 |
| 20260831124034 | 77 | 360 | 2.0 | 4.0 | 0.00 | 0.00 | 0.00 | 91 | 1017.0 |
| 20260831123935 | 77 | 360 | 2.0 | 4.0 | 0.00 | 0.00 | 0.00 | 91 | 1017.1 |
| 20260831123816 | 77 | 360 | 1.0 | 4.0 | 0.00 | 0.00 | 0.00 | 91 | 1017.1 |
| 20260831123717 | 77 | 360 | 2.0 | 5.0 | 0.00 | 0.00 | 0.00 | 91 | 1017.0 |
| 20260831123621 | 77 | 360 | 2.0 | 5.0 | 0.00 | 0.00 | 0.00 | 91 | 1017.1 |
| 20260831123523 | 77 | 360 | 2.0 | 5.0 | 0.00 | 0.00 | 0.00 | 91 | 1017.1 |
| 20260831123423 | 77 | 360 | 2.0 | 5.0 | 0.00 | 0.00 | 0.00 | 91 | 1017.1 |
| 20260831123344 | 77 | 360 | 1.0 | 5.0 | 0.00 | 0.00 | 0.00 | 91 | 1017.1 |
| 20260831123224 | 77 | 360 | 2.0 | 5.0 | 0.00 | 0.00 | 0.00 | 91 | 1017.1 |
| 20260831123125 | 77 | 360 | 2.0 | 5.0 | 0.00 | 0.00 | 0.00 | 91 | 1017.0 |
| 20260831123025 | 77 | 360 | 3.0 | 5.0 | 0.00 | 0.00 | 0.00 | 91 | 1017.0 |
| 20260831122950 | 77 | 360 | 3.0 | 5.0 | 0.00 | 0.00 | 0.00 | 91 | 1017.0 |
| 20260831122832 | 77 | 360 | 3.0 | 5.0 | 0.00 | 0.00 | 0.00 | 91 | 1017.1 |
| 20260831122731 | 76 | 360 | 3.0 | 5.0 | 0.00 | 0.00 | 0.00 | 91 | 1017.0 |
| 20260831122631 | 76 | 188 | 3.0 | 5.0 | 0.00 | 0.00 | 0.00 | 91 | 1017.0 |
| 20260831122532 | 76 | 360 | 2.0 | 5.0 | 0.00 | 0.00 | 0.00 | 90 | 1017.0 |
| 20260831122433 | 76 | 360 | 3.0 | 5.0 | 0.00 | 0.00 | 0.00 | 90 | 1017.0 |
| 20260831122354 | 76 | 360 | 3.0 | 5.0 | 0.00 | 0.00 | 0.00 | 90 | 1017.0 |
| 20260831122218 | 76 | 360 | 3.0 | 5.0 | 0.00 | 0.00 | 0.00 | 90 | 1017.0 |
| 20260831122118 | 77 | 360 | 3.0 | 5.0 | 0.00 | 0.00 | 0.00 | 90 | 1017.1 |
| 20260831122018 | 77 | 360 | 3.0 | 5.0 | 0.00 | 0.00 | 0.00 | 90 | 1017.2 |
| 20260831121938 | 77 | 360 | 3.0 | 5.0 | 0.00 | 0.00 | 0.00 | 90 | 1017.0 |
| 20260831121818 | 77 | 360 | 3.0 | 5.0 | 0.00 | 0.00 | 0.00 | 90 | 1017.1 |
| 20260831121718 | 77 | 360 | 2.0 | 4.0 | 0.00 | 0.00 | 0.00 | 90 | 1017.1 |
| 20260831121619 | 77 | 360 | 2.0 | 4.0 | 0.00 | 0.00 | 0.00 | 90 | 1017.0 |
| 20260831121524 | 77 | 360 | 2.0 | 4.0 | 0.00 | 0.00 | 0.00 | 90 | 1017.1 |
| 20260831121424 | 77 | 360 | 3.0 | 4.0 | 0.00 | 0.00 | 0.00 | 90 | 1017.0 |
| 20260831121324 | 77 | 360 | 2.0 | 4.0 | 0.00 | 0.00 | 0.00 | 90 | 1017.1 |
| 20260831121226 | 77 | 360 | 2.0 | 4.0 | 0.00 | 0.00 | 0.00 | 90 | 1017.0 |
| 20260831121147 | 77 | 360 | 2.0 | 4.0 | 0.00 | 0.00 | 0.00 | 90 | 1017.0 |
| 20260831121027 | 77 | 360 | 2.0 | 4.0 | 0.00 | 0.00 | 0.00 | 90 | 1017.1 |
| 20260831120947 | 77 | 360 | 2.0 | 4.0 | 0.00 | 0.00 | 0.00 | 90 | 1017.0 |
| 20260831120831 | 77 | 360 | 2.0 | 4.0 | 0.00 | 0.00 | 0.00 | 90 | 1016.9 |
| 20260831120731 | 77 | 360 | 1.0 | 4.0 | 0.00 | 0.00 | 0.00 | 90 | 1017.0 |
| 20260831120631 | 77 | 186 | 1.0 | 4.0 | 0.00 | 0.00 | 0.00 | 90 | 1016.9 |
| 20260831120531 | 77 | 360 | 1.0 | 4.0 | 0.00 | 0.00 | 0.00 | 90 | 1017.0 |
| 20260831120451 | 77 | 360 | 1.0 | 4.0 | 0.00 | 0.00 | 0.00 | 90 | 1017.0 |
| 20260831120330 | 77 | 360 | 2.0 | 4.0 | 0.00 | 0.00 | 0.00 | 90 | 1016.9 |
| 20260831120231 | 77 | 360 | 2.0 | 4.0 | 0.00 | 0.00 | 0.00 | 90 | 1016.9 |
| 20260831120116 | 77 | 360 | 2.0 | 4.0 | 0.00 | 0.00 | 0.00 | 90 | 1017.0 |
| 20260831120017 | 77 | 360 | 2.0 | 4.0 | 0.00 | 0.00 | 0.00 | 90 | 1017.0 |
| 20260831115917 | 77 | 360 | 1.0 | 5.0 | 0.00 | 0.00 | 0.00 | 90 | 1017.0 |
| 20260831115819 | 77 | 360 | 1.0 | 5.0 | 0.00 | 0.00 | 0.00 | 90 | 1017.0 |
| 20260831115720 | 77 | 360 | 2.0 | 5.0 | 0.00 | 0.00 | 0.00 | 90 | 1017.0 |
| 20260831115620 | 77 | 360 | 2.0 | 5.0 | 0.00 | 0.00 | 0.00 | 90 | 1017.0 |
| 20260831115520 | 77 | 360 | 2.0 | 6.0 | 0.00 | 0.00 | 0.00 | 90 | 1017.0 |
| 20260831115424 | 77 | 360 | 3.0 | 6.0 | 0.00 | 0.00 | 0.00 | 90 | 1017.0 |
| 20260831115325 | 77 | 360 | 3.0 | 6.0 | 0.00 | 0.00 | 0.00 | 90 | 1017.0 |
| 20260831115225 | 77 | 360 | 3.0 | 6.0 | 0.00 | 0.00 | 0.00 | 90 | 1017.1 |
| 20260831115125 | 77 | 360 | 4.0 | 6.0 | 0.00 | 0.00 | 0.00 | 90 | 1017.0 |
| 20260831115027 | 77 | 360 | 4.0 | 6.0 | 0.00 | 0.00 | 0.00 | 90 | 1017.0 |
| 20260831114927 | 77 | 360 | 4.0 | 6.0 | 0.00 | 0.00 | 0.00 | 90 | 1017.0 |
| 20260831114831 | 77 | 360 | 4.0 | 9.0 | 0.00 | 0.00 | 0.00 | 90 | 1017.0 |
| 20260831114732 | 77 | 360 | 4.0 | 9.0 | 0.00 | 0.00 | 0.00 | 90 | 1017.0 |
| 20260831114632 | 77 | 360 | 3.0 | 9.0 | 0.00 | 0.00 | 0.00 | 89 | 1017.0 |
| 20260831114532 | 77 | 360 | 3.0 | 9.0 | 0.00 | 0.00 | 0.00 | 90 | 1017.0 |
| 20260831114432 | 77 | 360 | 3.0 | 9.0 | 0.00 | 0.00 | 0.00 | 89 | 1017.0 |
| 20260831114332 | 77 | 360 | 3.0 | 9.0 | 0.00 | 0.00 | 0.00 | 89 | 1017.0 |
| 20260831114216 | 77 | 360 | 3.0 | 9.0 | 0.00 | 0.00 | 0.00 | 89 | 1017.0 |
| 20260831114117 | 77 | 360 | 4.0 | 9.0 | 0.00 | 0.00 | 0.00 | 89 | 1016.9 |
| 20260831114017 | 77 | 360 | 4.0 | 9.0 | 0.00 | 0.00 | 0.00 | 89 | 1016.9 |
| 20260831113918 | 77 | 360 | 4.0 | 9.0 | 0.00 | 0.00 | 0.00 | 89 | 1016.9 |
| 20260831113818 | 77 | 360 | 4.0 | 9.0 | 0.00 | 0.00 | 0.00 | 89 | 1016.9 |
| 20260831113719 | 77 | 360 | 4.0 | 9.0 | 0.00 | 0.00 | 0.00 | 89 | 1017.0 |
| 20260831113619 | 77 | 360 | 4.0 | 9.0 | 0.00 | 0.00 | 0.00 | 89 | 1017.0 |
| 20260831113544 | 77 | 360 | 4.0 | 9.0 | 0.00 | 0.00 | 0.00 | 89 | 1016.9 |
| 20260831113424 | 77 | 360 | 4.0 | 9.0 | 0.00 | 0.00 | 0.00 | 89 | 1016.9 |
| 20260831113325 | 77 | 360 | 4.0 | 5.0 | 0.00 | 0.00 | 0.00 | 89 | 1017.0 |
| 20260831113225 | 77 | 360 | 4.0 | 5.0 | 0.00 | 0.00 | 0.00 | 89 | 1017.0 |
| 20260831113126 | 77 | 360 | 3.0 | 5.0 | 0.00 | 0.00 | 0.00 | 89 | 1017.0 |
| 20260831113028 | 77 | 360 | 2.0 | 5.0 | 0.00 | 0.00 | 0.00 | 89 | 1017.0 |
| 20260831112928 | 77 | 360 | 2.0 | 5.0 | 0.00 | 0.00 | 0.00 | 89 | 1017.1 |
| 20260831112834 | 77 | 360 | 1.0 | 5.0 | 0.00 | 0.00 | 0.00 | 89 | 1017.1 |
| 20260831112733 | 77 | 360 | 2.0 | 5.0 | 0.00 | 0.00 | 0.00 | 89 | 1017.1 |
| 20260831112633 | 77 | 360 | 2.0 | 7.0 | 0.00 | 0.00 | 0.00 | 89 | 1017.1 |
| 20260831112534 | 77 | 360 | 2.0 | 7.0 | 0.00 | 0.00 | 0.00 | 89 | 1017.1 |
| 20260831112453 | 77 | 360 | 2.0 | 7.0 | 0.00 | 0.00 | 0.00 | 89 | 1017.0 |
| 20260831112333 | 77 | 360 | 2.0 | 7.0 | 0.00 | 0.00 | 0.00 | 89 | 1017.0 |
| 20260831112234 | 77 | 360 | 2.0 | 7.0 | 0.00 | 0.00 | 0.00 | 89 | 1017.0 |
| 20260831112139 | 77 | 360 | 3.0 | 7.0 | 0.00 | 0.00 | 0.00 | 89 | 1017.1 |
| 20260831112019 | 77 | 360 | 4.0 | 8.0 | 0.00 | 0.00 | 0.00 | 89 | 1017.0 |
| 20260831111919 | 77 | 360 | 4.0 | 8.0 | 0.00 | 0.00 | 0.00 | 89 | 1017.1 |
| 20260831111819 | 77 | 360 | 5.0 | 8.0 | 0.00 | 0.00 | 0.00 | 89 | 1017.0 |
| 20260831111720 | 77 | 360 | 4.0 | 6.0 | 0.00 | 0.00 | 0.00 | 89 | 1017.1 |
| 20260831111621 | 77 | 360 | 3.0 | 5.0 | 0.00 | 0.00 | 0.00 | 89 | 1017.0 |
| 20260831111521 | 77 | 360 | 2.0 | 5.0 | 0.00 | 0.00 | 0.00 | 89 | 1017.0 |
| 20260831111426 | 77 | 360 | 1.0 | 5.0 | 0.00 | 0.00 | 0.00 | 89 | 1017.0 |
| 20260831111346 | 77 | 360 | 1.0 | 5.0 | 0.00 | 0.00 | 0.00 | 89 | 1017.0 |
| 20260831111246 | 77 | 360 | 2.0 | 5.0 | 0.00 | 0.00 | 0.00 | 89 | 1017.1 |
| 20260831111125 | 77 | 360 | 3.0 | 5.0 | 0.00 | 0.00 | 0.00 | 89 | 1017.0 |
| 20260831111025 | 77 | 360 | 3.0 | 5.0 | 0.00 | 0.00 | 0.00 | 89 | 1016.9 |
| 20260831110926 | 77 | 360 | 2.0 | 5.0 | 0.00 | 0.00 | 0.00 | 89 | 1017.0 |
| 20260831110827 | 77 | 360 | 1.0 | 5.0 | 0.00 | 0.00 | 0.00 | 89 | 1017.0 |
| 20260831110748 | 78 | 360 | 1.0 | 5.0 | 0.00 | 0.00 | 0.00 | 89 | 1017.0 |
| 20260831110632 | 78 | 360 | 1.0 | 5.0 | 0.00 | 0.00 | 0.00 | 89 | 1017.0 |
| 20260831110532 | 78 | 360 | 1.0 | 5.0 | 0.00 | 0.00 | 0.00 | 89 | 1017.0 |
| 20260831110432 | 78 | 360 | 1.0 | 5.0 | 0.00 | 0.00 | 0.00 | 89 | 1017.0 |
| 20260831110333 | 77 | 360 | 2.0 | 5.0 | 0.00 | 0.00 | 0.00 | 89 | 1016.9 |
| 20260831110233 | 77 | 360 | 2.0 | 5.0 | 0.00 | 0.00 | 0.00 | 89 | 1016.9 |
| 20260831110134 | 77 | 360 | 2.0 | 5.0 | 0.00 | 0.00 | 0.00 | 89 | 1016.9 |
| 20260831110019 | 77 | 360 | 2.0 | 5.0 | 0.00 | 0.00 | 0.00 | 89 | 1016.9 |
| 20260831105920 | 77 | 360 | 2.0 | 5.0 | 0.00 | 0.00 | 0.00 | 89 | 1016.9 |
| 20260831105821 | 77 | 360 | 3.0 | 5.0 | 0.00 | 0.00 | 0.00 | 89 | 1016.9 |
| 20260831105720 | 77 | 360 | 2.0 | 5.0 | 0.00 | 0.00 | 0.00 | 89 | 1016.8 |
| 20260831105621 | 78 | 360 | 2.0 | 5.0 | 0.00 | 0.00 | 0.00 | 89 | 1016.8 |
| 20260831105522 | 78 | 360 | 1.0 | 5.0 | 0.00 | 0.00 | 0.00 | 89 | 1016.8 |
| 20260831105426 | 78 | 360 | 2.0 | 5.0 | 0.00 | 0.00 | 0.00 | 89 | 1016.8 |
| 20260831105326 | 78 | 360 | 2.0 | 5.0 | 0.00 | 0.00 | 0.00 | 89 | 1016.9 |
| 20260831105225 | 78 | 360 | 2.0 | 5.0 | 0.00 | 0.00 | 0.00 | 89 | 1016.8 |
| 20260831105126 | 78 | 360 | 2.0 | 5.0 | 0.00 | 0.00 | 0.00 | 89 | 1016.8 |
| 20260831105027 | 78 | 360 | 3.0 | 5.0 | 0.00 | 0.00 | 0.00 | 89 | 1016.8 |
| 20260831104929 | 78 | 360 | 2.0 | 5.0 | 0.00 | 0.00 | 0.00 | 89 | 1016.8 |
| 20260831104829 | 78 | 360 | 2.0 | 5.0 | 0.00 | 0.00 | 0.00 | 89 | 1016.8 |
| 20260831104733 | 78 | 360 | 2.0 | 5.0 | 0.00 | 0.00 | 0.00 | 89 | 1016.7 |
| 20260831104633 | 78 | 360 | 2.0 | 5.0 | 0.00 | 0.00 | 0.00 | 89 | 1016.9 |
| 20260831104533 | 78 | 360 | 1.0 | 5.0 | 0.00 | 0.00 | 0.00 | 89 | 1016.8 |
| 20260831104454 | 78 | 360 | 1.0 | 5.0 | 0.00 | 0.00 | 0.00 | 89 | 1016.8 |
| 20260831104333 | 78 | 360 | 1.0 | 5.0 | 0.00 | 0.00 | 0.00 | 89 | 1016.8 |
| 20260831104233 | 78 | 360 | 2.0 | 5.0 | 0.00 | 0.00 | 0.00 | 89 | 1016.8 |
| 20260831104133 | 78 | 360 | 2.0 | 5.0 | 0.00 | 0.00 | 0.00 | 89 | 1016.9 |
| 20260831104018 | 78 | 360 | 2.0 | 5.0 | 0.00 | 0.00 | 0.00 | 89 | 1016.8 |
| 20260831103919 | 78 | 360 | 1.0 | 5.0 | 0.00 | 0.00 | 0.00 | 89 | 1016.9 |
| 20260831103819 | 78 | 360 | 1.0 | 5.0 | 0.00 | 0.00 | 0.00 | 89 | 1016.8 |
| 20260831103720 | 78 | 360 | 1.0 | 5.0 | 0.00 | 0.00 | 0.00 | 89 | 1016.8 |
| 20260831103642 | 78 | 360 | 2.0 | 5.0 | 0.00 | 0.00 | 0.00 | 89 | 1016.8 |
| 20260831103520 | 78 | 198 | 2.0 | 5.0 | 0.00 | 0.00 | 0.00 | 89 | 1016.8 |
| 20260831103421 | 78 | 360 | 3.0 | 5.0 | 0.00 | 0.00 | 0.00 | 89 | 1016.9 |
| 20260831103341 | 78 | 360 | 3.0 | 6.0 | 0.00 | 0.00 | 0.00 | 89 | 1016.8 |
| 20260831103225 | 78 | 360 | 3.0 | 6.0 | 0.00 | 0.00 | 0.00 | 89 | 1016.9 |
| 20260831103125 | 78 | 360 | 3.0 | 6.0 | 0.00 | 0.00 | 0.00 | 89 | 1016.9 |
| 20260831103025 | 78 | 360 | 2.0 | 6.0 | 0.00 | 0.00 | 0.00 | 89 | 1016.9 |
| 20260831102927 | 78 | 360 | 3.0 | 6.0 | 0.00 | 0.00 | 0.00 | 89 | 1016.9 |
| 20260831102828 | 78 | 360 | 3.0 | 6.0 | 0.00 | 0.00 | 0.00 | 89 | 1016.9 |
| 20260831102728 | 78 | 360 | 4.0 | 6.0 | 0.00 | 0.00 | 0.00 | 89 | 1016.8 |
| 20260831102632 | 78 | 360 | 4.0 | 6.0 | 0.00 | 0.00 | 0.00 | 89 | 1016.8 |
| 20260831102533 | 78 | 360 | 3.0 | 6.0 | 0.00 | 0.00 | 0.00 | 89 | 1016.8 |
| 20260831102433 | 78 | 360 | 3.0 | 6.0 | 0.00 | 0.00 | 0.00 | 88 | 1016.8 |
| 20260831102334 | 78 | 360 | 2.0 | 6.0 | 0.00 | 0.00 | 0.00 | 88 | 1016.8 |
| 20260831102234 | 78 | 360 | 2.0 | 6.0 | 0.00 | 0.00 | 0.00 | 88 | 1016.7 |
| 20260831102135 | 78 | 360 | 2.0 | 6.0 | 0.00 | 0.00 | 0.00 | 88 | 1016.8 |
| 20260831102020 | 78 | 360 | 2.0 | 6.0 | 0.00 | 0.00 | 0.00 | 88 | 1016.8 |
| 20260831101921 | 78 | 360 | 2.0 | 6.0 | 0.00 | 0.00 | 0.00 | 88 | 1016.8 |
| 20260831101822 | 78 | 360 | 2.0 | 6.0 | 0.00 | 0.00 | 0.00 | 88 | 1016.8 |
| 20260831101722 | 78 | 360 | 3.0 | 6.0 | 0.00 | 0.00 | 0.00 | 88 | 1016.8 |
| 20260831101643 | 78 | 360 | 3.0 | 8.0 | 0.00 | 0.00 | 0.00 | 88 | 1016.9 |
| 20260831101603 | 78 | 360 | 3.0 | 8.0 | 0.00 | 0.00 | 0.00 | 88 | 1016.9 |
| 20260831101416 | 78 | 360 | 3.0 | 8.0 | 0.00 | 0.00 | 0.00 | 88 | 1016.8 |
| 20260831101321 | 78 | 360 | 3.0 | 8.0 | 0.00 | 0.00 | 0.00 | 88 | 1016.9 |
| 20260831101223 | 78 | 184 | 3.0 | 8.0 | 0.00 | 0.00 | 0.00 | 88 | 1016.8 |
| 20260831101123 | 78 | 360 | 3.0 | 8.0 | 0.00 | 0.00 | 0.00 | 88 | 1016.9 |
| 20260831101024 | 78 | 360 | 4.0 | 8.0 | 0.00 | 0.00 | 0.00 | 88 | 1016.9 |
| 20260831100925 | 78 | 184 | 4.0 | 8.0 | 0.00 | 0.00 | 0.00 | 88 | 1016.9 |
| 20260831100825 | 78 | 360 | 3.0 | 8.0 | 0.00 | 0.00 | 0.00 | 88 | 1016.8 |
| 20260831100727 | 78 | 360 | 3.0 | 8.0 | 0.00 | 0.00 | 0.00 | 88 | 1016.9 |
| 20260831100630 | 78 | 360 | 3.0 | 8.0 | 0.00 | 0.00 | 0.00 | 88 | 1016.9 |
| 20260831100531 | 78 | 360 | 3.0 | 8.0 | 0.00 | 0.00 | 0.00 | 88 | 1016.9 |
| 20260831100432 | 78 | 360 | 3.0 | 8.0 | 0.00 | 0.00 | 0.00 | 88 | 1016.9 |
| 20260831100353 | 78 | 360 | 4.0 | 8.0 | 0.00 | 0.00 | 0.00 | 88 | 1016.9 |
| 20260831100252 | 78 | 360 | 4.0 | 8.0 | 0.00 | 0.00 | 0.00 | 88 | 1017.0 |
| 20260831100130 | 78 | 360 | 4.0 | 8.0 | 0.00 | 0.00 | 0.00 | 88 | 1016.9 |
| 20260831100050 | 78 | 360 | 4.0 | 8.0 | 0.00 | 0.00 | 0.00 | 88 | 1017.0 |
| 20260831095950 | 78 | 360 | 4.0 | 8.0 | 0.00 | 0.00 | 0.00 | 88 | 1016.9 |
| 20260831095832 | 78 | 360 | 4.0 | 8.0 | 0.00 | 0.00 | 0.00 | 88 | 1016.9 |
| 20260831095734 | 78 | 360 | 3.0 | 11.0 | 0.00 | 0.00 | 0.00 | 88 | 1016.9 |
| 20260831095635 | 78 | 161 | 2.0 | 11.0 | 0.00 | 0.00 | 0.00 | 88 | 1016.9 |
| 20260831095534 | 78 | 360 | 2.0 | 11.0 | 0.00 | 0.00 | 0.00 | 88 | 1016.9 |
| 20260831095455 | 78 | 198 | 2.0 | 11.0 | 0.00 | 0.00 | 0.00 | 88 | 1016.8 |
| 20260831095355 | 78 | 360 | 2.0 | 11.0 | 0.00 | 0.00 | 0.00 | 88 | 1016.9 |
| 20260831095235 | 78 | 360 | 3.0 | 11.0 | 0.00 | 0.00 | 0.00 | 88 | 1016.9 |
| 20260831095134 | 78 | 360 | 4.0 | 11.0 | 0.00 | 0.00 | 0.00 | 88 | 1016.9 |
| 20260831095019 | 78 | 360 | 4.0 | 11.0 | 0.00 | 0.00 | 0.00 | 88 | 1016.9 |
| 20260831094920 | 78 | 360 | 4.0 | 11.0 | 0.00 | 0.00 | 0.00 | 88 | 1016.9 |
| 20260831094821 | 78 | 360 | 4.0 | 10.0 | 0.00 | 0.00 | 0.00 | 88 | 1016.9 |
| 20260831094721 | 78 | 360 | 4.0 | 10.0 | 0.00 | 0.00 | 0.00 | 88 | 1016.9 |
| 20260831094643 | 78 | 360 | 4.0 | 10.0 | 0.00 | 0.00 | 0.00 | 88 | 1016.8 |
| 20260831094516 | 78 | 360 | 4.0 | 10.0 | 0.00 | 0.00 | 0.00 | 87 | 1016.9 |
| 20260831094437 | 78 | 360 | 3.0 | 9.0 | 0.00 | 0.00 | 0.00 | 87 | 1016.9 |
| 20260831094321 | 78 | 360 | 3.0 | 9.0 | 0.00 | 0.00 | 0.00 | 87 | 1016.9 |
| 20260831094221 | 78 | 360 | 3.0 | 9.0 | 0.00 | 0.00 | 0.00 | 87 | 1016.8 |
| 20260831094122 | 78 | 360 | 3.0 | 9.0 | 0.00 | 0.00 | 0.00 | 87 | 1016.8 |
| 20260831094023 | 78 | 360 | 3.0 | 9.0 | 0.00 | 0.00 | 0.00 | 87 | 1016.8 |
| 20260831093923 | 78 | 360 | 3.0 | 9.0 | 0.00 | 0.00 | 0.00 | 87 | 1016.8 |
| 20260831093824 | 78 | 360 | 3.0 | 9.0 | 0.00 | 0.00 | 0.00 | 87 | 1016.7 |
| 20260831093725 | 78 | 360 | 3.0 | 8.0 | 0.00 | 0.00 | 0.00 | 87 | 1016.7 |
| 20260831093629 | 78 | 360 | 3.0 | 10.0 | 0.00 | 0.00 | 0.00 | 87 | 1016.7 |
| 20260831093531 | 78 | 360 | 3.0 | 10.0 | 0.00 | 0.00 | 0.00 | 87 | 1016.7 |
| 20260831093432 | 78 | 360 | 4.0 | 10.0 | 0.00 | 0.00 | 0.00 | 87 | 1016.7 |
| 20260831093333 | 78 | 360 | 4.0 | 10.0 | 0.00 | 0.00 | 0.00 | 87 | 1016.8 |
| 20260831093235 | 78 | 360 | 3.0 | 10.0 | 0.00 | 0.00 | 0.00 | 87 | 1016.7 |
| 20260831093135 | 78 | 360 | 2.0 | 10.0 | 0.00 | 0.00 | 0.00 | 87 | 1016.8 |
| 20260831093019 | 78 | 360 | 3.0 | 10.0 | 0.00 | 0.00 | 0.00 | 87 | 1016.8 |
| 20260831092940 | 78 | 360 | 3.0 | 10.0 | 0.00 | 0.00 | 0.00 | 87 | 1016.7 |
| 20260831092840 | 78 | 360 | 3.0 | 10.0 | 0.00 | 0.00 | 0.00 | 87 | 1016.7 |
| 20260831092719 | 78 | 360 | 4.0 | 10.0 | 0.00 | 0.00 | 0.00 | 87 | 1016.7 |
| 20260831092640 | 78 | 360 | 3.0 | 12.0 | 0.00 | 0.00 | 0.00 | 87 | 1016.7 |
| 20260831092520 | 78 | 360 | 3.0 | 12.0 | 0.00 | 0.00 | 0.00 | 87 | 1016.7 |
| 20260831092420 | 78 | 360 | 3.0 | 12.0 | 0.00 | 0.00 | 0.00 | 87 | 1016.7 |
| 20260831092320 | 78 | 360 | 4.0 | 12.0 | 0.00 | 0.00 | 0.00 | 87 | 1016.7 |
| 20260831092222 | 78 | 360 | 4.0 | 12.0 | 0.00 | 0.00 | 0.00 | 87 | 1016.7 |
| 20260831092123 | 78 | 360 | 5.0 | 13.0 | 0.00 | 0.00 | 0.00 | 87 | 1016.6 |
| 20260831092043 | 78 | 360 | 5.0 | 13.0 | 0.00 | 0.00 | 0.00 | 87 | 1016.7 |
| 20260831091923 | 78 | 360 | 5.0 | 13.0 | 0.00 | 0.00 | 0.00 | 87 | 1016.7 |
| 20260831091823 | 78 | 360 | 4.0 | 13.0 | 0.00 | 0.00 | 0.00 | 87 | 1016.7 |
| 20260831091724 | 78 | 360 | 3.0 | 13.0 | 0.00 | 0.00 | 0.00 | 87 | 1016.6 |
| 20260831091624 | 78 | 360 | 2.0 | 13.0 | 0.00 | 0.00 | 0.00 | 87 | 1016.6 |
| 20260831091529 | 78 | 360 | 4.0 | 13.0 | 0.00 | 0.00 | 0.00 | 87 | 1016.6 |
| 20260831091431 | 78 | 360 | 4.0 | 13.0 | 0.00 | 0.00 | 0.00 | 87 | 1016.6 |
| 20260831091331 | 78 | 360 | 5.0 | 13.0 | 0.00 | 0.00 | 0.00 | 87 | 1016.6 |
| 20260831091231 | 78 | 360 | 6.0 | 13.0 | 0.00 | 0.00 | 0.00 | 87 | 1016.6 |
| 20260831091132 | 78 | 360 | 5.0 | 13.0 | 0.00 | 0.00 | 0.00 | 87 | 1016.7 |
| 20260831091033 | 78 | 360 | 5.0 | 13.0 | 0.00 | 0.00 | 0.00 | 87 | 1016.6 |
| 20260831090918 | 78 | 360 | 3.0 | 11.0 | 0.00 | 0.00 | 0.00 | 87 | 1016.5 |
| 20260831090818 | 78 | 360 | 3.0 | 11.0 | 0.00 | 0.00 | 0.00 | 87 | 1016.6 |
| 20260831090718 | 78 | 360 | 4.0 | 11.0 | 0.00 | 0.00 | 0.00 | 87 | 1016.6 |
| 20260831090618 | 78 | 360 | 4.0 | 11.0 | 0.00 | 0.00 | 0.00 | 87 | 1016.6 |
| 20260831090519 | 78 | 360 | 5.0 | 12.0 | 0.00 | 0.00 | 0.00 | 87 | 1016.6 |
| 20260831090439 | 78 | 360 | 4.0 | 12.0 | 0.00 | 0.00 | 0.00 | 87 | 1016.6 |
| 20260831090318 | 78 | 360 | 4.0 | 12.0 | 0.00 | 0.00 | 0.00 | 86 | 1016.6 |
| 20260831090243 | 78 | 360 | 4.0 | 12.0 | 0.00 | 0.00 | 0.00 | 86 | 1016.7 |
| 20260831090142 | 78 | 360 | 4.0 | 12.0 | 0.00 | 0.00 | 0.00 | 86 | 1016.6 |
| 20260831090022 | 78 | 360 | 4.0 | 12.0 | 0.00 | 0.00 | 0.00 | 86 | 1016.7 |
| 20260831085923 | 78 | 360 | 4.0 | 12.0 | 0.00 | 0.00 | 0.00 | 86 | 1016.7 |
| 20260831085824 | 78 | 360 | 4.0 | 12.0 | 0.00 | 0.00 | 0.00 | 86 | 1016.6 |
| 20260831085723 | 78 | 360 | 6.0 | 12.0 | 0.00 | 0.00 | 0.00 | 86 | 1016.7 |
| 20260831085624 | 78 | 360 | 6.0 | 12.0 | 0.00 | 0.00 | 0.00 | 86 | 1016.7 |
| 20260831085529 | 78 | 360 | 5.0 | 12.0 | 0.00 | 0.00 | 0.00 | 86 | 1016.7 |
| 20260831085430 | 78 | 360 | 5.0 | 12.0 | 0.00 | 0.00 | 0.00 | 86 | 1016.7 |
| 20260831085350 | 78 | 360 | 5.0 | 12.0 | 0.00 | 0.00 | 0.00 | 86 | 1016.7 |
| 20260831085229 | 78 | 360 | 5.0 | 12.0 | 0.00 | 0.00 | 0.00 | 86 | 1016.7 |
| 20260831085129 | 78 | 360 | 7.0 | 12.0 | 0.00 | 0.00 | 0.00 | 86 | 1016.7 |
| 20260831085050 | 78 | 360 | 6.0 | 13.0 | 0.00 | 0.00 | 0.00 | 86 | 1016.7 |
| 20260831084930 | 78 | 360 | 6.0 | 13.0 | 0.00 | 0.00 | 0.00 | 86 | 1016.7 |
| 20260831084831 | 78 | 360 | 5.0 | 13.0 | 0.00 | 0.00 | 0.00 | 86 | 1016.8 |
| 20260831084716 | 78 | 360 | 5.0 | 13.0 | 0.00 | 0.00 | 0.00 | 86 | 1016.8 |
| 20260831084616 | 78 | 360 | 4.0 | 13.0 | 0.00 | 0.00 | 0.00 | 86 | 1016.8 |
| 20260831084517 | 78 | 360 | 5.0 | 13.0 | 0.00 | 0.00 | 0.00 | 86 | 1016.7 |
| 20260831084418 | 78 | 360 | 5.0 | 13.0 | 0.00 | 0.00 | 0.00 | 86 | 1016.8 |
| 20260831084317 | 78 | 360 | 5.0 | 13.0 | 0.00 | 0.00 | 0.00 | 86 | 1016.8 |
| 20260831084217 | 78 | 360 | 5.0 | 12.0 | 0.00 | 0.00 | 0.00 | 86 | 1016.7 |
| 20260831084122 | 78 | 360 | 5.0 | 12.0 | 0.00 | 0.00 | 0.00 | 86 | 1016.7 |
| 20260831084023 | 78 | 360 | 5.0 | 12.0 | 0.00 | 0.00 | 0.00 | 86 | 1016.7 |
| 20260831083944 | 78 | 360 | 6.0 | 12.0 | 0.00 | 0.00 | 0.00 | 86 | 1016.8 |
| 20260831083823 | 78 | 360 | 5.0 | 12.0 | 0.00 | 0.00 | 0.00 | 85 | 1016.7 |
| 20260831083723 | 78 | 360 | 5.0 | 12.0 | 0.00 | 0.00 | 0.00 | 85 | 1016.8 |
| 20260831083623 | 78 | 360 | 5.0 | 11.0 | 0.00 | 0.00 | 0.00 | 85 | 1016.7 |
| 20260831083544 | 78 | 360 | 6.0 | 12.0 | 0.00 | 0.00 | 0.00 | 85 | 1016.7 |
| 20260831083423 | 78 | 360 | 6.0 | 12.0 | 0.00 | 0.00 | 0.00 | 85 | 1016.8 |
| 20260831083328 | 78 | 360 | 7.0 | 13.0 | 0.00 | 0.00 | 0.00 | 85 | 1016.8 |
| 20260831083229 | 78 | 360 | 6.0 | 13.0 | 0.00 | 0.00 | 0.00 | 85 | 1016.8 |
| 20260831083130 | 78 | 360 | 5.0 | 13.0 | 0.00 | 0.00 | 0.00 | 85 | 1016.9 |
| 20260831083051 | 78 | 360 | 5.0 | 13.0 | 0.00 | 0.00 | 0.00 | 85 | 1016.8 |
| 20260831082929 | 78 | 360 | 6.0 | 13.0 | 0.00 | 0.00 | 0.00 | 85 | 1016.9 |
| 20260831082832 | 78 | 360 | 7.0 | 13.0 | 0.00 | 0.00 | 0.00 | 85 | 1016.8 |
| 20260831082751 | 79 | 360 | 8.0 | 13.0 | 0.00 | 0.00 | 0.00 | 85 | 1016.9 |
| 20260831082631 | 78 | 360 | 8.0 | 13.0 | 0.00 | 0.00 | 0.00 | 85 | 1016.8 |
| 20260831082536 | 78 | 360 | 8.0 | 13.0 | 0.00 | 0.00 | 0.00 | 85 | 1016.9 |
| 20260831082456 | 79 | 360 | 7.0 | 11.0 | 0.00 | 0.00 | 0.00 | 85 | 1016.9 |
| 20260831082355 | 79 | 360 | 6.0 | 11.0 | 0.00 | 0.00 | 0.00 | 85 | 1016.9 |
| 20260831082255 | 79 | 360 | 6.0 | 11.0 | 0.00 | 0.00 | 0.00 | 85 | 1016.9 |
| 20260831082135 | 78 | 360 | 5.0 | 11.0 | 0.00 | 0.00 | 0.00 | 85 | 1016.9 |
| 20260831082036 | 79 | 360 | 4.0 | 12.0 | 0.00 | 0.00 | 0.00 | 85 | 1016.9 |
| 20260831081935 | 78 | 360 | 4.0 | 12.0 | 0.00 | 0.00 | 0.00 | 85 | 1017.0 |
| 20260831081835 | 78 | 360 | 4.0 | 12.0 | 0.00 | 0.00 | 0.00 | 84 | 1016.9 |
| 20260831081720 | 78 | 360 | 5.0 | 12.0 | 0.00 | 0.00 | 0.00 | 84 | 1017.0 |
| 20260831081620 | 78 | 360 | 5.0 | 12.0 | 0.00 | 0.00 | 0.00 | 84 | 1016.9 |
| 20260831081542 | 78 | 360 | 4.0 | 12.0 | 0.00 | 0.00 | 0.00 | 84 | 1017.1 |
| 20260831081416 | 78 | 360 | 4.0 | 12.0 | 0.00 | 0.00 | 0.00 | 84 | 1016.9 |
| 20260831081317 | 78 | 360 | 4.0 | 12.0 | 0.00 | 0.00 | 0.00 | 84 | 1017.0 |
| 20260831081238 | 78 | 360 | 4.0 | 12.0 | 0.00 | 0.00 | 0.00 | 84 | 1016.9 |
| 20260831081117 | 78 | 360 | 4.0 | 12.0 | 0.00 | 0.00 | 0.00 | 84 | 1016.9 |
| 20260831081021 | 78 | 360 | 4.0 | 10.0 | 0.00 | 0.00 | 0.00 | 84 | 1016.8 |
| 20260831080922 | 78 | 360 | 5.0 | 10.0 | 0.00 | 0.00 | 0.00 | 84 | 1016.9 |
| 20260831080822 | 78 | 360 | 5.0 | 10.0 | 0.00 | 0.00 | 0.00 | 84 | 1016.9 |
| 20260831080723 | 78 | 360 | 5.0 | 9.0 | 0.00 | 0.00 | 0.00 | 84 | 1016.9 |
| 20260831080623 | 78 | 360 | 4.0 | 9.0 | 0.00 | 0.00 | 0.00 | 84 | 1016.9 |
| 20260831080523 | 78 | 360 | 4.0 | 9.0 | 0.00 | 0.00 | 0.00 | 84 | 1016.9 |
| 20260831080428 | 78 | 360 | 4.0 | 9.0 | 0.00 | 0.00 | 0.00 | 84 | 1016.8 |
| 20260831080348 | 78 | 360 | 4.0 | 9.0 | 0.00 | 0.00 | 0.00 | 84 | 1016.9 |
| 20260831080227 | 78 | 180 | 5.0 | 10.0 | 0.00 | 0.00 | 0.00 | 84 | 1016.9 |
| 20260831080128 | 78 | 360 | 5.0 | 10.0 | 0.00 | 0.00 | 0.00 | 84 | 1016.9 |
| 20260831080029 | 78 | 360 | 5.0 | 10.0 | 0.00 | 0.00 | 0.00 | 84 | 1016.8 |
| 20260831075927 | 78 | 360 | 5.0 | 10.0 | 0.00 | 0.00 | 0.00 | 84 | 1016.8 |
| 20260831075829 | 79 | 360 | 4.0 | 10.0 | 0.00 | 0.00 | 0.00 | 84 | 1016.9 |
| 20260831075728 | 79 | 360 | 4.0 | 10.0 | 0.00 | 0.00 | 0.00 | 84 | 1016.9 |
| 20260831075632 | 79 | 360 | 5.0 | 10.0 | 0.00 | 0.00 | 0.00 | 83 | 1016.8 |
| 20260831075552 | 79 | 360 | 4.0 | 10.0 | 0.00 | 0.00 | 0.00 | 83 | 1016.8 |
| 20260831075430 | 79 | 360 | 4.0 | 10.0 | 0.00 | 0.00 | 0.00 | 83 | 1016.8 |
| 20260831075328 | 79 | 360 | 5.0 | 10.0 | 0.00 | 0.00 | 0.00 | 83 | 1016.8 |
| 20260831075229 | 79 | 360 | 3.0 | 10.0 | 0.00 | 0.00 | 0.00 | 83 | 1016.8 |
| 20260831075130 | 79 | 183 | 3.0 | 10.0 | 0.00 | 0.00 | 0.00 | 83 | 1016.8 |
| 20260831075030 | 79 | 360 | 3.0 | 10.0 | 0.00 | 0.00 | 0.00 | 83 | 1016.9 |
| 20260831074932 | 79 | 360 | 3.0 | 10.0 | 0.00 | 0.00 | 0.00 | 83 | 1016.9 |
| 20260831074837 | 79 | 188 | 4.0 | 11.0 | 0.00 | 0.00 | 0.00 | 83 | 1016.9 |
| 20260831074735 | 79 | 360 | 5.0 | 11.0 | 0.00 | 0.00 | 0.00 | 83 | 1016.8 |
| 20260831074633 | 79 | 360 | 5.0 | 11.0 | 0.00 | 0.00 | 0.00 | 83 | 1016.9 |
| 20260831074533 | 79 | 360 | 6.0 | 11.0 | 0.00 | 0.00 | 0.00 | 83 | 1016.8 |
| 20260831074433 | 79 | 360 | 5.0 | 11.0 | 0.00 | 0.00 | 0.00 | 83 | 1016.9 |
| 20260831074335 | 79 | 360 | 5.0 | 11.0 | 0.00 | 0.00 | 0.00 | 83 | 1016.9 |
| 20260831074234 | 79 | 360 | 5.0 | 11.0 | 0.00 | 0.00 | 0.00 | 83 | 1016.8 |
| 20260831074120 | 79 | 360 | 6.0 | 11.0 | 0.00 | 0.00 | 0.00 | 82 | 1016.8 |
| 20260831074021 | 79 | 360 | 6.0 | 11.0 | 0.00 | 0.00 | 0.00 | 82 | 1016.7 |
| 20260831073943 | 79 | 360 | 6.0 | 11.0 | 0.00 | 0.00 | 0.00 | 82 | 1016.8 |
| 20260831073822 | 79 | 360 | 7.0 | 11.0 | 0.00 | 0.00 | 0.00 | 82 | 1016.8 |
| 20260831073723 | 79 | 360 | 5.0 | 10.0 | 0.00 | 0.00 | 0.00 | 82 | 1016.9 |
| 20260831073644 | 79 | 360 | 5.0 | 10.0 | 0.00 | 0.00 | 0.00 | 82 | 1016.8 |
| 20260831073523 | 79 | 360 | 6.0 | 10.0 | 0.00 | 0.00 | 0.00 | 82 | 1016.8 |
| 20260831073424 | 79 | 360 | 6.0 | 10.0 | 0.00 | 0.00 | 0.00 | 82 | 1016.9 |
| 20260831073329 | 79 | 360 | 6.0 | 10.0 | 0.00 | 0.00 | 0.00 | 82 | 1016.9 |
| 20260831073250 | 79 | 360 | 5.0 | 10.0 | 0.00 | 0.00 | 0.00 | 82 | 1016.9 |
| 20260831073130 | 79 | 360 | 4.0 | 10.0 | 0.00 | 0.00 | 0.00 | 82 | 1017.0 |
| 20260831073030 | 79 | 360 | 4.0 | 10.0 | 0.00 | 0.00 | 0.00 | 82 | 1016.9 |
| 20260831072951 | 79 | 360 | 4.0 | 10.0 | 0.00 | 0.00 | 0.00 | 82 | 1016.9 |
| 20260831072832 | 79 | 360 | 4.0 | 10.0 | 0.00 | 0.00 | 0.00 | 82 | 1016.9 |
| 20260831072752 | 79 | 360 | 5.0 | 10.0 | 0.00 | 0.00 | 0.00 | 81 | 1016.9 |
| 20260831072616 | 79 | 360 | 4.0 | 9.0 | 0.00 | 0.00 | 0.00 | 81 | 1016.9 |
| 20260831072517 | 79 | 360 | 4.0 | 9.0 | 0.00 | 0.00 | 0.00 | 81 | 1016.9 |
| 20260831072419 | 79 | 360 | 4.0 | 9.0 | 0.00 | 0.00 | 0.00 | 82 | 1016.9 |
| 20260831072319 | 79 | 360 | 3.0 | 9.0 | 0.00 | 0.00 | 0.00 | 82 | 1016.9 |
| 20260831072240 | 79 | 360 | 4.0 | 9.0 | 0.00 | 0.00 | 0.00 | 82 | 1016.9 |
| 20260831072140 | 79 | 360 | 4.0 | 8.0 | 0.00 | 0.00 | 0.00 | 81 | 1016.9 |
| 20260831072020 | 79 | 360 | 4.0 | 6.0 | 0.00 | 0.00 | 0.00 | 81 | 1016.9 |
| 20260831071940 | 79 | 360 | 4.0 | 10.0 | 0.00 | 0.00 | 0.00 | 81 | 1016.9 |
| 20260831071824 | 79 | 360 | 4.0 | 10.0 | 0.00 | 0.00 | 0.00 | 81 | 1017.0 |
| 20260831071723 | 79 | 360 | 4.0 | 10.0 | 0.00 | 0.00 | 0.00 | 81 | 1016.9 |
| 20260831071624 | 79 | 360 | 3.0 | 10.0 | 0.00 | 0.00 | 0.00 | 81 | 1016.9 |
| 20260831071525 | 80 | 360 | 3.0 | 10.0 | 0.00 | 0.00 | 0.00 | 81 | 1016.9 |
| 20260831071427 | 80 | 360 | 3.0 | 10.0 | 0.00 | 0.00 | 0.00 | 81 | 1016.9 |
| 20260831071348 | 80 | 360 | 2.0 | 13.0 | 0.00 | 0.00 | 0.00 | 81 | 1016.8 |
| 20260831071308 | 80 | 360 | 3.0 | 13.0 | 0.00 | 0.00 | 0.00 | 80 | 1016.8 |
| 20260831071022 | 80 | 360 | 5.0 | 13.0 | 0.00 | 0.00 | 0.00 | 80 | 1016.8 |
| 20260831070924 | 80 | 360 | 5.0 | 13.0 | 0.00 | 0.00 | 0.00 | 80 | 1016.8 |
| 20260831070826 | 80 | 360 | 6.0 | 13.0 | 0.00 | 0.00 | 0.00 | 80 | 1016.8 |
| 20260831070747 | 80 | 360 | 6.0 | 13.0 | 0.00 | 0.00 | 0.00 | 80 | 1016.8 |
| 20260831070627 | 80 | 360 | 6.0 | 13.0 | 0.00 | 0.00 | 0.00 | 80 | 1016.8 |
| 20260831070527 | 80 | 360 | 6.0 | 13.0 | 0.00 | 0.00 | 0.00 | 80 | 1016.9 |
| 20260831070428 | 80 | 360 | 6.0 | 13.0 | 0.00 | 0.00 | 0.00 | 80 | 1016.9 |
| 20260831070333 | 80 | 360 | 5.0 | 13.0 | 0.00 | 0.00 | 0.00 | 80 | 1016.9 |
| 20260831070234 | 80 | 360 | 5.0 | 13.0 | 0.00 | 0.00 | 0.00 | 80 | 1016.9 |
| 20260831070133 | 80 | 360 | 6.0 | 13.0 | 0.00 | 0.00 | 0.00 | 80 | 1016.9 |
| 20260831070034 | 80 | 185 | 6.0 | 13.0 | 0.00 | 0.00 | 0.00 | 80 | 1016.9 |
| 20260831065935 | 80 | 360 | 7.0 | 13.0 | 0.00 | 0.00 | 0.00 | 80 | 1016.9 |
| 20260831065817 | 80 | 360 | 6.0 | 11.0 | 0.00 | 0.00 | 0.00 | 79 | 1017.0 |
| 20260831065717 | 80 | 360 | 6.0 | 11.0 | 0.00 | 0.00 | 0.00 | 79 | 1017.0 |
| 20260831065642 | 80 | 360 | 6.0 | 11.0 | 0.00 | 0.00 | 0.00 | 79 | 1016.9 |
| 20260831065516 | 80 | 360 | 6.0 | 17.0 | 0.00 | 0.00 | 0.00 | 79 | 1016.9 |
| 20260831065416 | 80 | 360 | 6.0 | 17.0 | 0.00 | 0.00 | 0.00 | 79 | 1016.9 |
| 20260831065317 | 80 | 360 | 5.0 | 17.0 | 0.00 | 0.00 | 0.00 | 79 | 1017.0 |
| 20260831065218 | 80 | 360 | 4.0 | 17.0 | 0.00 | 0.00 | 0.00 | 79 | 1016.9 |
| 20260831065118 | 80 | 360 | 4.0 | 17.0 | 0.00 | 0.00 | 0.00 | 79 | 1017.0 |
| 20260831065040 | 80 | 360 | 4.0 | 17.0 | 0.00 | 0.00 | 0.00 | 79 | 1016.9 |
| 20260831064923 | 80 | 360 | 6.0 | 17.0 | 0.00 | 0.00 | 0.00 | 79 | 1016.9 |
| 20260831064824 | 80 | 360 | 6.0 | 17.0 | 0.00 | 0.00 | 0.00 | 79 | 1016.9 |
| 20260831064725 | 80 | 360 | 7.0 | 17.0 | 0.00 | 0.00 | 0.00 | 79 | 1016.9 |
| 20260831064645 | 80 | 360 | 6.0 | 15.0 | 0.00 | 0.00 | 0.00 | 78 | 1017.0 |
| 20260831064525 | 80 | 360 | 6.0 | 15.0 | 0.00 | 0.00 | 0.00 | 78 | 1016.9 |
| 20260831064447 | 80 | 360 | 5.0 | 15.0 | 0.00 | 0.00 | 0.00 | 78 | 1016.9 |
| 20260831064325 | 80 | 360 | 5.0 | 15.0 | 0.00 | 0.00 | 0.00 | 78 | 1017.0 |
| 20260831064230 | 81 | 360 | 5.0 | 15.0 | 0.00 | 0.00 | 0.00 | 78 | 1016.9 |
| 20260831064131 | 81 | 360 | 7.0 | 15.0 | 0.00 | 0.00 | 0.00 | 78 | 1016.9 |
| 20260831064031 | 81 | 360 | 8.0 | 15.0 | 0.00 | 0.00 | 0.00 | 78 | 1016.9 |
| 20260831063931 | 81 | 360 | 9.0 | 15.0 | 0.00 | 0.00 | 0.00 | 78 | 1016.9 |
| 20260831063852 | 81 | 360 | 9.0 | 16.0 | 0.00 | 0.00 | 0.00 | 78 | 1016.9 |
| 20260831063753 | 81 | 360 | 8.0 | 16.0 | 0.00 | 0.00 | 0.00 | 78 | 1017.0 |
| 20260831063633 | 81 | 360 | 7.0 | 16.0 | 0.00 | 0.00 | 0.00 | 78 | 1017.0 |
| 20260831063533 | 81 | 360 | 8.0 | 16.0 | 0.00 | 0.00 | 0.00 | 78 | 1017.0 |
| 20260831063453 | 81 | 360 | 9.0 | 16.0 | 0.00 | 0.00 | 0.00 | 77 | 1017.0 |
| 20260831063333 | 81 | 360 | 11.0 | 16.0 | 0.00 | 0.00 | 0.00 | 77 | 1017.0 |
| 20260831063232 | 81 | 360 | 10.0 | 16.0 | 0.00 | 0.00 | 0.00 | 77 | 1017.0 |
| 20260831063153 | 81 | 360 | 8.0 | 16.0 | 0.00 | 0.00 | 0.00 | 77 | 1017.0 |
| 20260831063032 | 81 | 360 | 6.0 | 16.0 | 0.00 | 0.00 | 0.00 | 77 | 1017.1 |
| 20260831062933 | 81 | 360 | 7.0 | 15.0 | 0.00 | 0.00 | 0.00 | 77 | 1017.1 |
| 20260831062834 | 81 | 360 | 7.0 | 15.0 | 0.00 | 0.00 | 0.00 | 77 | 1017.0 |
| 20260831062717 | 81 | 360 | 8.0 | 15.0 | 0.00 | 0.00 | 0.00 | 77 | 1017.1 |
| 20260831062618 | 81 | 360 | 8.0 | 14.0 | 0.00 | 0.00 | 0.00 | 77 | 1017.0 |
| 20260831062538 | 81 | 360 | 8.0 | 14.0 | 0.00 | 0.00 | 0.00 | 77 | 1017.1 |
| 20260831062438 | 81 | 360 | 8.0 | 14.0 | 0.00 | 0.00 | 0.00 | 77 | 1017.0 |
| 20260831062338 | 81 | 360 | 7.0 | 13.0 | 0.00 | 0.00 | 0.00 | 76 | 1017.1 |
| 20260831062216 | 81 | 360 | 6.0 | 19.0 | 0.00 | 0.00 | 0.00 | 76 | 1017.0 |
| 20260831062117 | 81 | 360 | 5.0 | 19.0 | 0.00 | 0.00 | 0.00 | 76 | 1017.0 |
| 20260831062016 | 81 | 360 | 5.0 | 19.0 | 0.00 | 0.00 | 0.00 | 76 | 1016.9 |
| 20260831061937 | 81 | 360 | 5.0 | 19.0 | 0.00 | 0.00 | 0.00 | 76 | 1017.0 |
| 20260831061820 | 81 | 360 | 5.0 | 19.0 | 0.00 | 0.00 | 0.00 | 76 | 1016.9 |
| 20260831061721 | 81 | 360 | 6.0 | 19.0 | 0.00 | 0.00 | 0.00 | 76 | 1016.9 |
| 20260831061620 | 81 | 360 | 7.0 | 19.0 | 0.00 | 0.00 | 0.00 | 76 | 1017.0 |
| 20260831061521 | 81 | 360 | 9.0 | 19.0 | 0.00 | 0.00 | 0.00 | 76 | 1016.9 |
| 20260831061422 | 81 | 360 | 8.0 | 19.0 | 0.00 | 0.00 | 0.00 | 76 | 1016.8 |
| 20260831061343 | 81 | 360 | 7.0 | 19.0 | 0.00 | 0.00 | 0.00 | 76 | 1016.8 |
| 20260831061221 | 81 | 360 | 4.0 | 13.0 | 0.00 | 0.00 | 0.00 | 76 | 1016.9 |
| 20260831061125 | 81 | 360 | 4.0 | 14.0 | 0.00 | 0.00 | 0.00 | 75 | 1016.9 |
| 20260831061025 | 81 | 360 | 5.0 | 14.0 | 0.00 | 0.00 | 0.00 | 75 | 1016.8 |
| 20260831060926 | 82 | 360 | 6.0 | 14.0 | 0.00 | 0.00 | 0.00 | 75 | 1016.8 |
| 20260831060846 | 82 | 360 | 6.0 | 14.0 | 0.00 | 0.00 | 0.00 | 76 | 1016.8 |
| 20260831060726 | 82 | 360 | 7.0 | 14.0 | 0.00 | 0.00 | 0.00 | 75 | 1016.8 |
| 20260831060626 | 82 | 360 | 7.0 | 14.0 | 0.00 | 0.00 | 0.00 | 75 | 1016.8 |
| 20260831060527 | 82 | 360 | 7.0 | 14.0 | 0.00 | 0.00 | 0.00 | 75 | 1016.7 |
| 20260831060430 | 82 | 360 | 7.0 | 14.0 | 0.00 | 0.00 | 0.00 | 75 | 1016.8 |
| 20260831060331 | 82 | 360 | 7.0 | 14.0 | 0.00 | 0.00 | 0.00 | 75 | 1016.8 |
| 20260831060230 | 82 | 360 | 6.0 | 13.0 | 0.00 | 0.00 | 0.00 | 76 | 1016.8 |
| 20260831060151 | 82 | 360 | 5.0 | 13.0 | 0.00 | 0.00 | 0.00 | 76 | 1016.8 |
| 20260831060030 | 82 | 360 | 4.0 | 13.0 | 0.00 | 0.00 | 0.00 | 76 | 1016.8 |
| 20260831055931 | 82 | 360 | 5.0 | 14.0 | 0.00 | 0.00 | 0.00 | 76 | 1016.8 |
| 20260831055832 | 82 | 360 | 5.0 | 14.0 | 0.00 | 0.00 | 0.00 | 76 | 1016.8 |
| 20260831055732 | 82 | 360 | 5.0 | 14.0 | 0.00 | 0.00 | 0.00 | 75 | 1016.8 |
| 20260831055634 | 82 | 360 | 6.0 | 14.0 | 0.00 | 0.00 | 0.00 | 75 | 1016.8 |
| 20260831055555 | 82 | 360 | 6.0 | 14.0 | 0.00 | 0.00 | 0.00 | 75 | 1016.8 |
| 20260831055435 | 82 | 360 | 8.0 | 14.0 | 0.00 | 0.00 | 0.00 | 75 | 1016.8 |
| 20260831055356 | 82 | 360 | 8.0 | 14.0 | 0.00 | 0.00 | 0.00 | 75 | 1016.8 |
| 20260831055235 | 82 | 360 | 9.0 | 14.0 | 0.00 | 0.00 | 0.00 | 75 | 1016.7 |
| 20260831055116 | 82 | 360 | 8.0 | 13.0 | 0.00 | 0.00 | 0.00 | 75 | 1016.7 |
| 20260831055016 | 82 | 360 | 9.0 | 13.0 | 0.00 | 0.00 | 0.00 | 75 | 1016.7 |
| 20260831054921 | 82 | 360 | 9.0 | 13.0 | 0.00 | 0.00 | 0.00 | 75 | 1016.7 |
| 20260831054822 | 82 | 360 | 8.0 | 14.0 | 0.00 | 0.00 | 0.00 | 75 | 1016.7 |
| 20260831054722 | 82 | 360 | 7.0 | 13.0 | 0.00 | 0.00 | 0.00 | 75 | 1016.7 |
| 20260831054623 | 82 | 360 | 6.0 | 17.0 | 0.00 | 0.00 | 0.00 | 75 | 1016.6 |
| 20260831054522 | 82 | 360 | 5.0 | 18.0 | 0.00 | 0.00 | 0.00 | 75 | 1016.7 |
| 20260831054423 | 82 | 360 | 4.0 | 18.0 | 0.00 | 0.00 | 0.00 | 75 | 1016.6 |
| 20260831054325 | 82 | 360 | 5.0 | 18.0 | 0.00 | 0.00 | 0.00 | 75 | 1016.6 |
| 20260831054230 | 82 | 360 | 6.0 | 18.0 | 0.00 | 0.00 | 0.00 | 75 | 1016.6 |
| 20260831054130 | 82 | 360 | 7.0 | 18.0 | 0.00 | 0.00 | 0.00 | 75 | 1016.6 |
| 20260831054050 | 83 | 360 | 8.0 | 18.0 | 0.00 | 0.00 | 0.00 | 75 | 1016.5 |
| 20260831053930 | 83 | 360 | 8.0 | 19.0 | 0.00 | 0.00 | 0.00 | 75 | 1016.6 |
| 20260831053831 | 83 | 360 | 9.0 | 19.0 | 0.00 | 0.00 | 0.00 | 75 | 1016.6 |
| 20260831053732 | 83 | 360 | 9.0 | 19.0 | 0.00 | 0.00 | 0.00 | 75 | 1016.6 |
| 20260831053632 | 83 | 360 | 9.0 | 19.0 | 0.00 | 0.00 | 0.00 | 74 | 1016.6 |
| 20260831053536 | 83 | 360 | 9.0 | 19.0 | 0.00 | 0.00 | 0.00 | 74 | 1016.6 |
| 20260831053456 | 83 | 360 | 9.0 | 19.0 | 0.00 | 0.00 | 0.00 | 74 | 1016.6 |
| 20260831053317 | 83 | 360 | 10.0 | 19.0 | 0.00 | 0.00 | 0.00 | 74 | 1016.5 |
| 20260831053218 | 83 | 360 | 11.0 | 19.0 | 0.00 | 0.00 | 0.00 | 74 | 1016.6 |
| 20260831053119 | 83 | 360 | 10.0 | 19.0 | 0.00 | 0.00 | 0.00 | 74 | 1016.6 |
| 20260831053019 | 83 | 360 | 9.0 | 19.0 | 0.00 | 0.00 | 0.00 | 74 | 1016.6 |
| 20260831052939 | 83 | 360 | 8.0 | 19.0 | 0.00 | 0.00 | 0.00 | 74 | 1016.5 |
| 20260831052843 | 83 | 360 | 7.0 | 14.0 | 0.00 | 0.00 | 0.00 | 74 | 1016.6 |
| 20260831052716 | 83 | 360 | 7.0 | 14.0 | 0.00 | 0.00 | 0.00 | 74 | 1016.5 |
| 20260831052616 | 83 | 360 | 6.0 | 13.0 | 0.00 | 0.00 | 0.00 | 74 | 1016.5 |
| 20260831052517 | 83 | 360 | 7.0 | 13.0 | 0.00 | 0.00 | 0.00 | 74 | 1016.5 |
| 20260831052417 | 83 | 360 | 6.0 | 13.0 | 0.00 | 0.00 | 0.00 | 74 | 1016.5 |
| 20260831052337 | 83 | 360 | 5.0 | 13.0 | 0.00 | 0.00 | 0.00 | 74 | 1016.5 |
| 20260831052237 | 83 | 360 | 5.0 | 14.0 | 0.00 | 0.00 | 0.00 | 74 | 1016.5 |
| 20260831052117 | 83 | 360 | 5.0 | 14.0 | 0.00 | 0.00 | 0.00 | 74 | 1016.5 |
| 20260831052020 | 83 | 360 | 6.0 | 14.0 | 0.00 | 0.00 | 0.00 | 74 | 1016.5 |
| 20260831051921 | 83 | 360 | 6.0 | 20.0 | 0.00 | 0.00 | 0.00 | 74 | 1016.5 |
| 20260831051822 | 83 | 360 | 6.0 | 20.0 | 0.00 | 0.00 | 0.00 | 74 | 1016.4 |
| 20260831051722 | 83 | 360 | 4.0 | 20.0 | 0.00 | 0.00 | 0.00 | 74 | 1016.4 |
| 20260831051623 | 83 | 360 | 5.0 | 20.0 | 0.00 | 0.00 | 0.00 | 74 | 1016.4 |
| 20260831051523 | 83 | 360 | 7.0 | 20.0 | 0.00 | 0.00 | 0.00 | 73 | 1016.4 |
| 20260831051424 | 84 | 360 | 8.0 | 20.0 | 0.00 | 0.00 | 0.00 | 73 | 1016.4 |
| 20260831051329 | 83 | 360 | 9.0 | 20.0 | 0.00 | 0.00 | 0.00 | 73 | 1016.3 |
| 20260831051230 | 84 | 360 | 10.0 | 20.0 | 0.00 | 0.00 | 0.00 | 73 | 1016.4 |
| 20260831051130 | 84 | 360 | 11.0 | 20.0 | 0.00 | 0.00 | 0.00 | 73 | 1016.4 |
| 20260831051030 | 84 | 360 | 11.0 | 18.0 | 0.00 | 0.00 | 0.00 | 73 | 1016.4 |
| 20260831050931 | 84 | 360 | 12.0 | 18.0 | 0.00 | 0.00 | 0.00 | 73 | 1016.4 |
| 20260831050832 | 84 | 360 | 11.0 | 16.0 | 0.00 | 0.00 | 0.00 | 73 | 1016.4 |
| 20260831050731 | 84 | 360 | 10.0 | 16.0 | 0.00 | 0.00 | 0.00 | 73 | 1016.4 |
| 20260831050636 | 84 | 360 | 10.0 | 16.0 | 0.00 | 0.00 | 0.00 | 73 | 1016.5 |
| 20260831050556 | 84 | 360 | 9.0 | 16.0 | 0.00 | 0.00 | 0.00 | 73 | 1016.4 |
| 20260831050435 | 84 | 360 | 9.0 | 16.0 | 0.00 | 0.00 | 0.00 | 73 | 1016.5 |
| 20260831050316 | 84 | 360 | 7.0 | 16.0 | 0.00 | 0.00 | 0.00 | 73 | 1016.5 |
| 20260831050216 | 84 | 360 | 7.0 | 16.0 | 0.00 | 0.00 | 0.00 | 73 | 1016.5 |
| 20260831050136 | 84 | 360 | 7.0 | 22.0 | 0.00 | 0.00 | 0.00 | 73 | 1016.5 |
| 20260831050057 | 84 | 360 | 8.0 | 22.0 | 0.00 | 0.00 | 0.00 | 73 | 1016.5 |
| 20260831045934 | 84 | 360 | 8.0 | 22.0 | 0.00 | 0.00 | 0.00 | 72 | 1016.5 |
| 20260831045836 | 84 | 360 | 9.0 | 22.0 | 0.00 | 0.00 | 0.00 | 72 | 1016.4 |
| 20260831045736 | 84 | 360 | 9.0 | 22.0 | 0.00 | 0.00 | 0.00 | 72 | 1016.4 |
| 20260831045616 | 84 | 360 | 9.0 | 22.0 | 0.00 | 0.00 | 0.00 | 72 | 1016.4 |
| 20260831045517 | 84 | 360 | 10.0 | 22.0 | 0.00 | 0.00 | 0.00 | 72 | 1016.4 |
| 20260831045419 | 84 | 360 | 10.0 | 22.0 | 0.00 | 0.00 | 0.00 | 72 | 1016.4 |
| 20260831045323 | 84 | 360 | 12.0 | 22.0 | 0.00 | 0.00 | 0.00 | 72 | 1016.4 |
| 20260831045224 | 84 | 360 | 11.0 | 20.0 | 0.00 | 0.00 | 0.00 | 72 | 1016.3 |
| 20260831045125 | 84 | 360 | 12.0 | 20.0 | 0.00 | 0.00 | 0.00 | 72 | 1016.4 |
| 20260831045025 | 84 | 360 | 11.0 | 20.0 | 0.00 | 0.00 | 0.00 | 72 | 1016.4 |
| 20260831044926 | 84 | 360 | 10.0 | 18.0 | 0.00 | 0.00 | 0.00 | 72 | 1016.4 |
| 20260831044847 | 84 | 360 | 9.0 | 18.0 | 0.00 | 0.00 | 0.00 | 72 | 1016.4 |
| 20260831044726 | 84 | 360 | 6.0 | 22.0 | 0.00 | 0.00 | 0.00 | 72 | 1016.3 |
| 20260831044632 | 84 | 360 | 7.0 | 22.0 | 0.00 | 0.00 | 0.00 | 71 | 1016.4 |
| 20260831044532 | 84 | 360 | 6.0 | 22.0 | 0.00 | 0.00 | 0.00 | 71 | 1016.4 |
| 20260831044433 | 84 | 360 | 8.0 | 22.0 | 0.00 | 0.00 | 0.00 | 71 | 1016.4 |
| 20260831044334 | 84 | 360 | 9.0 | 22.0 | 0.00 | 0.00 | 0.00 | 71 | 1016.5 |
| 20260831044235 | 84 | 360 | 11.0 | 22.0 | 0.00 | 0.00 | 0.00 | 71 | 1016.4 |
| 20260831044135 | 85 | 360 | 11.0 | 22.0 | 0.00 | 0.00 | 0.00 | 71 | 1016.4 |
| 20260831044035 | 85 | 360 | 11.0 | 22.0 | 0.00 | 0.00 | 0.00 | 70 | 1016.5 |
| 20260831043919 | 85 | 360 | 9.0 | 21.0 | 0.00 | 0.00 | 0.00 | 70 | 1016.4 |
| 20260831043821 | 85 | 360 | 7.0 | 14.0 | 0.00 | 0.00 | 0.00 | 70 | 1016.4 |
| 20260831043722 | 85 | 360 | 7.0 | 15.0 | 0.00 | 0.00 | 0.00 | 70 | 1016.4 |
| 20260831043622 | 85 | 360 | 7.0 | 15.0 | 0.00 | 0.00 | 0.00 | 70 | 1016.5 |
| 20260831043523 | 85 | 360 | 7.0 | 15.0 | 0.00 | 0.00 | 0.00 | 69 | 1016.5 |
| 20260831043443 | 85 | 360 | 6.0 | 15.0 | 0.00 | 0.00 | 0.00 | 69 | 1016.5 |
| 20260831043323 | 85 | 360 | 7.0 | 15.0 | 0.00 | 0.00 | 0.00 | 69 | 1016.5 |
| 20260831043228 | 85 | 360 | 6.0 | 15.0 | 0.00 | 0.00 | 0.00 | 69 | 1016.5 |
| 20260831043129 | 85 | 360 | 7.0 | 14.0 | 0.00 | 0.00 | 0.00 | 69 | 1016.5 |
| 20260831043029 | 85 | 360 | 7.0 | 14.0 | 0.00 | 0.00 | 0.00 | 69 | 1016.5 |
| 20260831042930 | 85 | 360 | 7.0 | 14.0 | 0.00 | 0.00 | 0.00 | 69 | 1016.5 |
| 20260831042852 | 85 | 360 | 8.0 | 14.0 | 0.00 | 0.00 | 0.00 | 69 | 1016.4 |
| 20260831042730 | 85 | 360 | 8.0 | 14.0 | 0.00 | 0.00 | 0.00 | 69 | 1016.4 |
| 20260831042631 | 85 | 360 | 7.0 | 14.0 | 0.00 | 0.00 | 0.00 | 68 | 1016.4 |
| 20260831042515 | 85 | 360 | 6.0 | 14.0 | 0.00 | 0.00 | 0.00 | 68 | 1016.4 |
| 20260831042416 | 85 | 360 | 7.0 | 14.0 | 0.00 | 0.00 | 0.00 | 68 | 1016.4 |
| 20260831042337 | 85 | 360 | 7.0 | 14.0 | 0.00 | 0.00 | 0.00 | 68 | 1016.4 |
| 20260831042217 | 85 | 360 | 8.0 | 14.0 | 0.00 | 0.00 | 0.00 | 68 | 1016.4 |
| 20260831042118 | 85 | 360 | 8.0 | 14.0 | 0.00 | 0.00 | 0.00 | 68 | 1016.4 |
| 20260831042018 | 85 | 360 | 8.0 | 14.0 | 0.00 | 0.00 | 0.00 | 68 | 1016.4 |
| 20260831041918 | 85 | 360 | 9.0 | 14.0 | 0.00 | 0.00 | 0.00 | 68 | 1016.4 |
| 20260831041842 | 85 | 360 | 9.0 | 14.0 | 0.00 | 0.00 | 0.00 | 68 | 1016.3 |
| 20260831041741 | 85 | 360 | 9.0 | 14.0 | 0.00 | 0.00 | 0.00 | 68 | 1016.5 |
| 20260831041620 | 85 | 360 | 9.0 | 14.0 | 0.00 | 0.00 | 0.00 | 68 | 1016.4 |
| 20260831041521 | 85 | 360 | 8.0 | 14.0 | 0.00 | 0.00 | 0.00 | 68 | 1016.5 |
| 20260831041442 | 85 | 360 | 8.0 | 14.0 | 0.00 | 0.00 | 0.00 | 68 | 1016.5 |
| 20260831041403 | 85 | 360 | 9.0 | 14.0 | 0.00 | 0.00 | 0.00 | 68 | 1016.5 |
| 20260831041303 | 85 | 360 | 9.0 | 14.0 | 0.00 | 0.00 | 0.00 | 68 | 1016.4 |
| 20260831041203 | 85 | 360 | 9.0 | 14.0 | 0.00 | 0.00 | 0.00 | 68 | 1016.4 |
| 20260831041021 | 85 | 360 | 9.0 | 14.0 | 0.00 | 0.00 | 0.00 | 67 | 1016.4 |
| 20260831040926 | 85 | 360 | 9.0 | 14.0 | 0.00 | 0.00 | 0.00 | 67 | 1016.5 |
| 20260831040826 | 85 | 360 | 8.0 | 14.0 | 0.00 | 0.00 | 0.00 | 67 | 1016.4 |
| 20260831040747 | 86 | 360 | 7.0 | 14.0 | 0.00 | 0.00 | 0.00 | 67 | 1016.5 |
| 20260831040627 | 86 | 360 | 6.0 | 14.0 | 0.00 | 0.00 | 0.00 | 67 | 1016.5 |
| 20260831040528 | 86 | 360 | 6.0 | 18.0 | 0.00 | 0.00 | 0.00 | 67 | 1016.5 |
| 20260831040428 | 86 | 360 | 6.0 | 18.0 | 0.00 | 0.00 | 0.00 | 67 | 1016.5 |
| 20260831040328 | 86 | 360 | 6.0 | 18.0 | 0.00 | 0.00 | 0.00 | 67 | 1016.4 |
| 20260831040228 | 86 | 360 | 6.0 | 18.0 | 0.00 | 0.00 | 0.00 | 66 | 1016.4 |
| 20260831040133 | 86 | 360 | 7.0 | 18.0 | 0.00 | 0.00 | 0.00 | 66 | 1016.4 |
| 20260831040034 | 86 | 360 | 8.0 | 18.0 | 0.00 | 0.00 | 0.00 | 66 | 1016.4 |
| 20260831035935 | 86 | 360 | 11.0 | 18.0 | 0.00 | 0.00 | 0.00 | 66 | 1016.4 |
| 20260831035837 | 86 | 360 | 11.0 | 18.0 | 0.00 | 0.00 | 0.00 | 66 | 1016.4 |
| 20260831035756 | 86 | 360 | 12.0 | 18.0 | 0.00 | 0.00 | 0.00 | 66 | 1016.4 |
| 20260831035635 | 86 | 360 | 11.0 | 18.0 | 0.00 | 0.00 | 0.00 | 66 | 1016.4 |
| 20260831035535 | 86 | 360 | 10.0 | 18.0 | 0.00 | 0.00 | 0.00 | 66 | 1016.4 |
| 20260831035419 | 86 | 360 | 10.0 | 18.0 | 0.00 | 0.00 | 0.00 | 66 | 1016.4 |
| 20260831035320 | 86 | 360 | 9.0 | 17.0 | 0.00 | 0.00 | 0.00 | 66 | 1016.3 |
| 20260831035221 | 86 | 360 | 9.0 | 17.0 | 0.00 | 0.00 | 0.00 | 66 | 1016.3 |
| 20260831035120 | 86 | 360 | 9.0 | 18.0 | 0.00 | 0.00 | 0.00 | 66 | 1016.4 |
| 20260831035021 | 86 | 360 | 9.0 | 18.0 | 0.00 | 0.00 | 0.00 | 66 | 1016.3 |
| 20260831034941 | 86 | 360 | 10.0 | 18.0 | 0.00 | 0.00 | 0.00 | 66 | 1016.3 |
| 20260831034820 | 86 | 360 | 10.0 | 18.0 | 0.00 | 0.00 | 0.00 | 65 | 1016.2 |
| 20260831034741 | 86 | 360 | 10.0 | 18.0 | 0.00 | 0.00 | 0.00 | 65 | 1016.4 |
| 20260831034624 | 86 | 360 | 11.0 | 18.0 | 0.00 | 0.00 | 0.00 | 65 | 1016.2 |
| 20260831034525 | 86 | 360 | 11.0 | 18.0 | 0.00 | 0.00 | 0.00 | 65 | 1016.2 |
| 20260831034426 | 86 | 360 | 11.0 | 18.0 | 0.00 | 0.00 | 0.00 | 65 | 1016.2 |
| 20260831034347 | 86 | 360 | 11.0 | 18.0 | 0.00 | 0.00 | 0.00 | 65 | 1016.2 |
| 20260831034225 | 86 | 360 | 10.0 | 18.0 | 0.00 | 0.00 | 0.00 | 65 | 1016.2 |
| 20260831034126 | 86 | 360 | 9.0 | 23.0 | 0.00 | 0.00 | 0.00 | 65 | 1016.2 |
| 20260831034047 | 86 | 360 | 8.0 | 23.0 | 0.00 | 0.00 | 0.00 | 65 | 1016.1 |
| 20260831033926 | 86 | 360 | 9.0 | 23.0 | 0.00 | 0.00 | 0.00 | 65 | 1016.1 |
| 20260831033831 | 86 | 360 | 9.0 | 23.0 | 0.00 | 0.00 | 0.00 | 65 | 1016.1 |
| 20260831033732 | 86 | 360 | 9.0 | 23.0 | 0.00 | 0.00 | 0.00 | 64 | 1016.1 |
| 20260831033631 | 87 | 360 | 11.0 | 23.0 | 0.00 | 0.00 | 0.00 | 64 | 1016.1 |
| 20260831033552 | 87 | 360 | 14.0 | 23.0 | 0.00 | 0.00 | 0.00 | 64 | 1016.1 |
| 20260831033452 | 87 | 360 | 14.0 | 23.0 | 0.00 | 0.00 | 0.00 | 64 | 1016.1 |
| 20260831033331 | 87 | 360 | 14.0 | 23.0 | 0.00 | 0.00 | 0.00 | 64 | 1016.0 |
| 20260831033232 | 87 | 360 | 13.0 | 23.0 | 0.00 | 0.00 | 0.00 | 64 | 1016.0 |
| 20260831033116 | 87 | 360 | 11.0 | 20.0 | 0.00 | 0.00 | 0.00 | 64 | 1016.0 |
| 20260831033016 | 87 | 360 | 12.0 | 20.0 | 0.00 | 0.00 | 0.00 | 64 | 1016.0 |
| 20260831032916 | 87 | 360 | 10.0 | 20.0 | 0.00 | 0.00 | 0.00 | 63 | 1016.0 |
| 20260831032818 | 87 | 360 | 10.0 | 20.0 | 0.00 | 0.00 | 0.00 | 63 | 1015.9 |
| 20260831032717 | 87 | 360 | 10.0 | 22.0 | 0.00 | 0.00 | 0.00 | 63 | 1016.0 |
| 20260831032617 | 87 | 360 | 11.0 | 22.0 | 0.00 | 0.00 | 0.00 | 63 | 1015.9 |
| 20260831032517 | 87 | 360 | 13.0 | 22.0 | 0.00 | 0.00 | 0.00 | 63 | 1016.0 |
| 20260831032422 | 87 | 360 | 14.0 | 22.0 | 0.00 | 0.00 | 0.00 | 63 | 1015.9 |
| 20260831032343 | 87 | 360 | 15.0 | 22.0 | 0.00 | 0.00 | 0.00 | 63 | 1016.0 |
| 20260831032223 | 87 | 360 | 15.0 | 22.0 | 0.00 | 0.00 | 0.00 | 62 | 1015.9 |
| 20260831032123 | 87 | 360 | 14.0 | 22.0 | 0.00 | 0.00 | 0.00 | 62 | 1015.9 |